Wetterdaten: Montag, 25.07.2016
Datum Zeit Temp. A. Feuchte A. Luftdruck Regen Wind Richtung Richtung Sonnenschein ET UV Solar Taupunkt Windchill Windben Empfang
25.07.2016 00:00 19,7 C 89 % 1015,8 hPa 0,0 l/m 0,0 km/h (0 Bft) O-NO 76 0 min 0,000 mm 0,0 UV-I 0 W/m 17,8 C 19,7 C 0,0 km/h (0 Bft) 98,00 %
25.07.2016 00:02 19,7 C 89 % 1015,8 hPa 0,0 l/m 0,1 km/h (0 Bft) O-NO 76 0 min 0,000 mm 0,0 UV-I 0 W/m 17,8 C 19,7 C 1,6 km/h (1 Bft) 100,00 %
25.07.2016 00:04 19,6 C 89 % 1015,8 hPa 0,0 l/m 1,1 km/h (1 Bft) O-NO 76 0 min 0,000 mm 0,0 UV-I 0 W/m 17,7 C 19,6 C 1,6 km/h (1 Bft) 100,00 %
25.07.2016 00:06 19,6 C 90 % 1015,8 hPa 0,0 l/m 0,5 km/h (0 Bft) O-NO 76 0 min 0,000 mm 0,0 UV-I 0 W/m 17,9 C 19,6 C 1,6 km/h (1 Bft) 100,00 %
25.07.2016 00:08 19,6 C 90 % 1015,8 hPa 0,0 l/m 0,0 km/h (0 Bft) O-NO 76 0 min 0,000 mm 0,0 UV-I 0 W/m 17,9 C 19,6 C 0,0 km/h (0 Bft) 98,51 %
25.07.2016 00:10 19,5 C 90 % 1015,8 hPa 0,0 l/m 0,0 km/h (0 Bft) O-NO 76 0 min 0,000 mm 0,0 UV-I 0 W/m 17,8 C 19,5 C 0,0 km/h (0 Bft) 100,00 %
25.07.2016 00:12 19,4 C 90 % 1015,8 hPa 0,0 l/m 1,1 km/h (1 Bft) O-NO 76 0 min 0,000 mm 0,0 UV-I 0 W/m 17,7 C 19,4 C 1,6 km/h (1 Bft) 97,87 %
25.07.2016 00:14 19,4 C 90 % 1015,8 hPa 0,0 l/m 1,9 km/h (1 Bft) O-NO 76 0 min 0,000 mm 0,0 UV-I 0 W/m 17,7 C 19,4 C 3,2 km/h (1 Bft) 100,00 %
25.07.2016 00:16 19,3 C 91 % 1015,8 hPa 0,0 l/m 2,5 km/h (1 Bft) O-NO 76 0 min 0,000 mm 0,0 UV-I 0 W/m 17,8 C 19,3 C 3,2 km/h (1 Bft) 100,00 %
25.07.2016 00:18 19,3 C 91 % 1015,8 hPa 0,0 l/m 1,6 km/h (1 Bft) O-NO 76 0 min 0,000 mm 0,0 UV-I 0 W/m 17,8 C 19,3 C 3,2 km/h (1 Bft) 100,00 %
25.07.2016 00:20 19,2 C 91 % 1015,8 hPa 0,0 l/m 1,8 km/h (1 Bft) O-NO 76 0 min 0,000 mm 0,0 UV-I 0 W/m 17,7 C 19,2 C 3,2 km/h (1 Bft) 100,00 %
25.07.2016 00:22 19,2 C 91 % 1015,8 hPa 0,0 l/m 2,7 km/h (1 Bft) O-NO 76 0 min 0,000 mm 0,0 UV-I 0 W/m 17,7 C 19,2 C 3,2 km/h (1 Bft) 100,00 %
25.07.2016 00:24 19,2 C 92 % 1015,8 hPa 0,0 l/m 1,1 km/h (1 Bft) O-NO 76 0 min 0,000 mm 0,0 UV-I 0 W/m 17,9 C 19,2 C 3,2 km/h (1 Bft) 100,00 %
25.07.2016 00:26 19,2 C 91 % 1015,8 hPa 0,0 l/m 0,7 km/h (0 Bft) O-NO 76 0 min 0,000 mm 0,0 UV-I 0 W/m 17,7 C 19,2 C 1,6 km/h (1 Bft) 100,00 %
25.07.2016 00:28 19,1 C 91 % 1015,8 hPa 0,0 l/m 0,7 km/h (0 Bft) O-NO 76 0 min 0,000 mm 0,0 UV-I 0 W/m 17,6 C 19,1 C 1,6 km/h (1 Bft) 100,00 %
25.07.2016 00:30 19,1 C 91 % 1015,9 hPa 0,0 l/m 0,3 km/h (0 Bft) O-NO 76 0 min 0,000 mm 0,0 UV-I 0 W/m 17,6 C 19,1 C 1,6 km/h (1 Bft) 97,37 %
25.07.2016 00:32 19,0 C 91 % 1015,9 hPa 0,0 l/m 1,8 km/h (1 Bft) O-NO 76 0 min 0,000 mm 0,0 UV-I 0 W/m 17,5 C 19,0 C 3,2 km/h (1 Bft) 98,31 %
25.07.2016 00:34 19,0 C 92 % 1015,9 hPa 0,0 l/m 2,3 km/h (1 Bft) O-NO 76 0 min 0,000 mm 0,0 UV-I 0 W/m 17,7 C 19,0 C 3,2 km/h (1 Bft) 97,37 %
25.07.2016 00:36 19,0 C 91 % 1015,9 hPa 0,0 l/m 2,5 km/h (1 Bft) O-NO 76 0 min 0,000 mm 0,0 UV-I 0 W/m 17,5 C 19,0 C 3,2 km/h (1 Bft) 98,11 %
25.07.2016 00:38 19,1 C 91 % 1015,9 hPa 0,0 l/m 2,4 km/h (1 Bft) O-NO 78 0 min 0,000 mm 0,0 UV-I 0 W/m 17,6 C 19,1 C 3,2 km/h (1 Bft) 98,00 %
25.07.2016 00:40 19,1 C 91 % 1015,9 hPa 0,0 l/m 2,1 km/h (1 Bft) O-NO 78 0 min 0,000 mm 0,0 UV-I 0 W/m 17,6 C 19,1 C 3,2 km/h (1 Bft) 95,74 %
25.07.2016 00:42 19,1 C 92 % 1015,9 hPa 0,0 l/m 2,2 km/h (1 Bft) O-NO 78 0 min 0,000 mm 0,0 UV-I 0 W/m 17,8 C 19,1 C 3,2 km/h (1 Bft) 97,87 %
25.07.2016 00:44 19,1 C 92 % 1015,8 hPa 0,0 l/m 2,2 km/h (1 Bft) O-NO 78 0 min 0,000 mm 0,0 UV-I 0 W/m 17,8 C 19,1 C 3,2 km/h (1 Bft) 95,74 %
25.07.2016 00:46 19,1 C 92 % 1015,8 hPa 0,0 l/m 1,4 km/h (1 Bft) O-NO 78 0 min 0,000 mm 0,0 UV-I 0 W/m 17,8 C 19,1 C 3,2 km/h (1 Bft) 97,56 %
25.07.2016 00:48 19,1 C 91 % 1015,8 hPa 0,0 l/m 2,8 km/h (1 Bft) O-NO 78 0 min 0,000 mm 0,0 UV-I 0 W/m 17,6 C 19,1 C 3,2 km/h (1 Bft) 97,87 %
25.07.2016 00:50 19,1 C 92 % 1015,8 hPa 0,0 l/m 0,6 km/h (0 Bft) O-NO 78 0 min 0,000 mm 0,0 UV-I 0 W/m 17,8 C 19,1 C 1,6 km/h (1 Bft) 96,00 %
25.07.2016 00:52 19,0 C 91 % 1015,8 hPa 0,0 l/m 0,6 km/h (0 Bft) O-NO 78 0 min 0,000 mm 0,0 UV-I 0 W/m 17,5 C 19,0 C 1,6 km/h (1 Bft) 94,44 %
25.07.2016 00:54 19,0 C 92 % 1015,9 hPa 0,0 l/m 0,1 km/h (0 Bft) O-NO 78 0 min 0,000 mm 0,0 UV-I 0 W/m 17,7 C 19,0 C 1,6 km/h (1 Bft) 96,00 %
25.07.2016 00:56 19,0 C 92 % 1015,9 hPa 0,0 l/m 0,7 km/h (0 Bft) O-NO 74 0 min 0,000 mm 0,0 UV-I 0 W/m 17,7 C 19,0 C 3,2 km/h (1 Bft) 97,87 %
25.07.2016 00:58 19,0 C 92 % 1015,9 hPa 0,0 l/m 1,4 km/h (1 Bft) O-NO 71 0 min 0,000 mm 0,0 UV-I 0 W/m 17,7 C 19,0 C 3,2 km/h (1 Bft) 97,87 %
25.07.2016 01:00 18,9 C 92 % 1015,8 hPa 0,0 l/m 0,3 km/h (0 Bft) O-NO 71 0 min 0,000 mm 0,0 UV-I 0 W/m 17,6 C 18,9 C 1,6 km/h (1 Bft) 96,23 %
25.07.2016 01:01 18,9 C 92 % 1015,9 hPa 0,0 l/m 1,4 km/h (1 Bft) O-NO 71 0 min 0,000 mm 0,0 UV-I 0 W/m 17,6 C 18,9 C 3,2 km/h (1 Bft) 100,00 %
25.07.2016 01:04 18,8 C 92 % 1015,9 hPa 0,0 l/m 2,2 km/h (1 Bft) O-NO 71 0 min 0,000 mm 0,0 UV-I 0 W/m 17,5 C 18,8 C 3,2 km/h (1 Bft) 98,31 %
25.07.2016 01:06 18,8 C 92 % 1015,8 hPa 0,0 l/m 2,0 km/h (1 Bft) O-NO 72 0 min 0,000 mm 0,0 UV-I 0 W/m 17,5 C 18,8 C 3,2 km/h (1 Bft) 100,00 %
25.07.2016 01:08 18,8 C 92 % 1015,8 hPa 0,0 l/m 3,0 km/h (1 Bft) O-SO 111 0 min 0,000 mm 0,0 UV-I 0 W/m 17,5 C 18,8 C 4,8 km/h (1 Bft) 97,87 %
25.07.2016 01:10 18,8 C 93 % 1015,9 hPa 0,0 l/m 2,1 km/h (1 Bft) O-SO 111 0 min 0,000 mm 0,0 UV-I 0 W/m 17,6 C 18,8 C 3,2 km/h (1 Bft) 100,00 %
25.07.2016 01:12 18,8 C 93 % 1015,9 hPa 0,0 l/m 2,0 km/h (1 Bft) O-SO 111 0 min 0,000 mm 0,0 UV-I 0 W/m 17,6 C 18,8 C 4,8 km/h (1 Bft) 94,74 %
25.07.2016 01:14 18,7 C 92 % 1015,9 hPa 0,0 l/m 1,2 km/h (1 Bft) O-SO 111 0 min 0,000 mm 0,0 UV-I 0 W/m 17,4 C 18,7 C 3,2 km/h (1 Bft) 98,00 %
25.07.2016 01:16 18,6 C 92 % 1015,9 hPa 0,0 l/m 1,0 km/h (0 Bft) O-SO 111 0 min 0,000 mm 0,0 UV-I 0 W/m 17,3 C 18,6 C 1,6 km/h (1 Bft) 100,00 %
25.07.2016 01:18 18,6 C 92 % 1015,8 hPa 0,0 l/m 1,0 km/h (0 Bft) O-SO 111 0 min 0,000 mm 0,0 UV-I 0 W/m 17,3 C 18,6 C 1,6 km/h (1 Bft) 100,00 %
25.07.2016 01:20 18,5 C 92 % 1015,8 hPa 0,0 l/m 0,4 km/h (0 Bft) O-SO 111 0 min 0,000 mm 0,0 UV-I 0 W/m 17,2 C 18,5 C 1,6 km/h (1 Bft) 100,00 %
25.07.2016 01:22 18,4 C 93 % 1015,8 hPa 0,0 l/m 1,2 km/h (1 Bft) O-SO 111 0 min 0,000 mm 0,0 UV-I 0 W/m 17,2 C 18,4 C 3,2 km/h (1 Bft) 98,00 %
25.07.2016 01:24 18,5 C 93 % 1015,8 hPa 0,0 l/m 1,3 km/h (1 Bft) O-SO 111 0 min 0,000 mm 0,0 UV-I 0 W/m 17,3 C 18,5 C 1,6 km/h (1 Bft) 100,00 %
25.07.2016 01:26 18,6 C 94 % 1015,7 hPa 0,0 l/m 1,2 km/h (1 Bft) O-SO 111 0 min 0,000 mm 0,0 UV-I 0 W/m 17,6 C 18,6 C 1,6 km/h (1 Bft) 100,00 %
25.07.2016 01:28 18,6 C 93 % 1015,7 hPa 0,0 l/m 0,3 km/h (0 Bft) O-SO 111 0 min 0,000 mm 0,0 UV-I 0 W/m 17,4 C 18,6 C 1,6 km/h (1 Bft) 100,00 %
25.07.2016 01:30 18,6 C 93 % 1015,7 hPa 0,0 l/m 0,0 km/h (0 Bft) O-SO 111 0 min 0,000 mm 0,0 UV-I 0 W/m 17,4 C 18,6 C 0,0 km/h (0 Bft) 100,00 %
25.07.2016 01:32 18,7 C 93 % 1015,7 hPa 0,0 l/m 0,4 km/h (0 Bft) O-SO 111 0 min 0,000 mm 0,0 UV-I 0 W/m 17,5 C 18,7 C 1,6 km/h (1 Bft) 100,00 %
25.07.2016 01:34 18,7 C 93 % 1015,7 hPa 0,0 l/m 1,3 km/h (1 Bft) O-SO 111 0 min 0,000 mm 0,0 UV-I 0 W/m 17,5 C 18,7 C 1,6 km/h (1 Bft) 100,00 %
25.07.2016 01:36 18,6 C 93 % 1015,7 hPa 0,0 l/m 1,9 km/h (1 Bft) O-SO 111 0 min 0,000 mm 0,0 UV-I 0 W/m 17,4 C 18,6 C 3,2 km/h (1 Bft) 95,74 %
25.07.2016 01:38 18,6 C 93 % 1015,8 hPa 0,0 l/m 1,0 km/h (0 Bft) O-SO 111 0 min 0,000 mm 0,0 UV-I 0 W/m 17,4 C 18,6 C 1,6 km/h (1 Bft) 100,00 %
25.07.2016 01:40 18,4 C 93 % 1015,7 hPa 0,0 l/m 2,0 km/h (1 Bft) O-SO 111 0 min 0,000 mm 0,0 UV-I 0 W/m 17,2 C 18,4 C 3,2 km/h (1 Bft) 100,00 %
25.07.2016 01:42 18,4 C 93 % 1015,7 hPa 0,0 l/m 1,0 km/h (0 Bft) O-SO 111 0 min 0,000 mm 0,0 UV-I 0 W/m 17,2 C 18,4 C 3,2 km/h (1 Bft) 100,00 %
25.07.2016 01:44 18,3 C 94 % 1015,7 hPa 0,0 l/m 0,2 km/h (0 Bft) O-SO 111 0 min 0,000 mm 0,0 UV-I 0 W/m 17,3 C 18,3 C 1,6 km/h (1 Bft) 98,00 %
25.07.2016 01:46 18,3 C 94 % 1015,7 hPa 0,0 l/m 1,2 km/h (1 Bft) O-SO 111 0 min 0,000 mm 0,0 UV-I 0 W/m 17,3 C 18,3 C 3,2 km/h (1 Bft) 97,56 %
25.07.2016 01:48 18,3 C 94 % 1015,7 hPa 0,0 l/m 0,2 km/h (0 Bft) O-SO 111 0 min 0,000 mm 0,0 UV-I 0 W/m 17,3 C 18,3 C 1,6 km/h (1 Bft) 100,00 %
25.07.2016 01:50 18,2 C 93 % 1015,7 hPa 0,0 l/m 0,0 km/h (0 Bft) O-SO 111 0 min 0,000 mm 0,0 UV-I 0 W/m 17,0 C 18,2 C 0,0 km/h (0 Bft) 100,00 %
25.07.2016 01:52 18,2 C 94 % 1015,7 hPa 0,0 l/m 0,0 km/h (0 Bft) O-SO 111 0 min 0,000 mm 0,0 UV-I 0 W/m 17,2 C 18,2 C 0,0 km/h (0 Bft) 100,00 %
25.07.2016 01:54 18,1 C 94 % 1015,7 hPa 0,0 l/m 0,0 km/h (0 Bft) O-SO 111 0 min 0,000 mm 0,0 UV-I 0 W/m 17,1 C 18,1 C 0,0 km/h (0 Bft) 100,00 %
25.07.2016 01:56 18,1 C 94 % 1015,7 hPa 0,0 l/m 0,0 km/h (0 Bft) O-SO 111 0 min 0,000 mm 0,0 UV-I 0 W/m 17,1 C 18,1 C 0,0 km/h (0 Bft) 100,00 %
25.07.2016 01:58 18,1 C 94 % 1015,7 hPa 0,0 l/m 0,0 km/h (0 Bft) O-SO 111 0 min 0,000 mm 0,0 UV-I 0 W/m 17,1 C 18,1 C 0,0 km/h (0 Bft) 100,00 %
25.07.2016 02:00 18,2 C 94 % 1015,7 hPa 0,0 l/m 0,0 km/h (0 Bft) O-SO 111 0 min 0,000 mm 0,0 UV-I 0 W/m 17,2 C 18,2 C 0,0 km/h (0 Bft) 100,00 %
25.07.2016 02:02 18,2 C 94 % 1015,7 hPa 0,0 l/m 0,4 km/h (0 Bft) O-SO 111 0 min 0,000 mm 0,0 UV-I 0 W/m 17,2 C 18,2 C 1,6 km/h (1 Bft) 100,00 %
25.07.2016 02:04 18,2 C 95 % 1015,7 hPa 0,0 l/m 0,8 km/h (0 Bft) O-SO 111 0 min 0,000 mm 0,0 UV-I 0 W/m 17,4 C 18,2 C 1,6 km/h (1 Bft) 100,00 %
25.07.2016 02:06 18,3 C 95 % 1015,7 hPa 0,0 l/m 0,7 km/h (0 Bft) O-SO 111 0 min 0,000 mm 0,0 UV-I 0 W/m 17,5 C 18,3 C 1,6 km/h (1 Bft) 100,00 %
25.07.2016 02:08 18,3 C 95 % 1015,7 hPa 0,0 l/m 0,8 km/h (0 Bft) O-SO 111 0 min 0,000 mm 0,0 UV-I 0 W/m 17,5 C 18,3 C 1,6 km/h (1 Bft) 100,00 %
25.07.2016 02:10 18,3 C 95 % 1015,7 hPa 0,0 l/m 1,1 km/h (1 Bft) O-SO 111 0 min 0,000 mm 0,0 UV-I 0 W/m 17,5 C 18,3 C 3,2 km/h (1 Bft) 100,00 %
25.07.2016 02:12 18,3 C 95 % 1015,7 hPa 0,0 l/m 0,9 km/h (0 Bft) O-SO 111 0 min 0,000 mm 0,0 UV-I 0 W/m 17,5 C 18,3 C 1,6 km/h (1 Bft) 100,00 %
25.07.2016 02:14 18,4 C 94 % 1015,7 hPa 0,0 l/m 0,5 km/h (0 Bft) O-SO 111 0 min 0,000 mm 0,0 UV-I 0 W/m 17,4 C 18,4 C 1,6 km/h (1 Bft) 98,00 %
25.07.2016 02:16 18,4 C 94 % 1015,7 hPa 0,0 l/m 1,8 km/h (1 Bft) O-SO 111 0 min 0,000 mm 0,0 UV-I 0 W/m 17,4 C 18,4 C 3,2 km/h (1 Bft) 100,00 %
25.07.2016 02:18 18,3 C 94 % 1015,7 hPa 0,0 l/m 1,8 km/h (1 Bft) O-SO 111 0 min 0,000 mm 0,0 UV-I 0 W/m 17,3 C 18,3 C 3,2 km/h (1 Bft) 100,00 %
25.07.2016 02:20 18,3 C 94 % 1015,7 hPa 0,0 l/m 1,6 km/h (1 Bft) O-SO 111 0 min 0,000 mm 0,0 UV-I 0 W/m 17,3 C 18,3 C 3,2 km/h (1 Bft) 100,00 %
25.07.2016 02:22 18,2 C 94 % 1015,7 hPa 0,0 l/m 2,3 km/h (1 Bft) O-SO 111 0 min 0,000 mm 0,0 UV-I 0 W/m 17,2 C 18,2 C 3,2 km/h (1 Bft) 97,87 %
25.07.2016 02:24 18,2 C 94 % 1015,7 hPa 0,0 l/m 1,9 km/h (1 Bft) O-SO 111 0 min 0,000 mm 0,0 UV-I 0 W/m 17,2 C 18,2 C 3,2 km/h (1 Bft) 100,00 %
25.07.2016 02:26 18,2 C 94 % 1015,7 hPa 0,0 l/m 2,0 km/h (1 Bft) O-SO 111 0 min 0,000 mm 0,0 UV-I 0 W/m 17,2 C 18,2 C 3,2 km/h (1 Bft) 100,00 %
25.07.2016 02:28 18,2 C 94 % 1015,7 hPa 0,0 l/m 2,7 km/h (1 Bft) O-SO 112 0 min 0,000 mm 0,0 UV-I 0 W/m 17,2 C 18,2 C 4,8 km/h (1 Bft) 97,87 %
25.07.2016 02:30 18,1 C 94 % 1015,8 hPa 0,0 l/m 2,9 km/h (1 Bft) O-SO 112 0 min 0,000 mm 0,0 UV-I 0 W/m 17,1 C 18,1 C 4,8 km/h (1 Bft) 95,74 %
25.07.2016 02:32 18,1 C 94 % 1015,7 hPa 0,0 l/m 2,4 km/h (1 Bft) O-SO 112 0 min 0,000 mm 0,0 UV-I 0 W/m 17,1 C 18,1 C 3,2 km/h (1 Bft) 97,73 %
25.07.2016 02:34 18,1 C 94 % 1015,7 hPa 0,0 l/m 2,0 km/h (1 Bft) O-SO 112 0 min 0,000 mm 0,0 UV-I 0 W/m 17,1 C 18,1 C 4,8 km/h (1 Bft) 95,74 %
25.07.2016 02:36 18,0 C 94 % 1015,7 hPa 0,0 l/m 0,8 km/h (0 Bft) O-SO 112 0 min 0,000 mm 0,0 UV-I 0 W/m 17,0 C 18,0 C 1,6 km/h (1 Bft) 96,00 %
25.07.2016 02:38 17,9 C 94 % 1015,7 hPa 0,0 l/m 0,8 km/h (0 Bft) O-SO 112 0 min 0,000 mm 0,0 UV-I 0 W/m 16,9 C 17,9 C 1,6 km/h (1 Bft) 98,11 %
25.07.2016 02:40 17,9 C 94 % 1015,7 hPa 0,0 l/m 0,2 km/h (0 Bft) O-SO 112 0 min 0,000 mm 0,0 UV-I 0 W/m 16,9 C 17,9 C 1,6 km/h (1 Bft) 97,56 %
25.07.2016 02:42 17,9 C 94 % 1015,7 hPa 0,0 l/m 0,0 km/h (0 Bft) O-SO 112 0 min 0,000 mm 0,0 UV-I 0 W/m 16,9 C 17,9 C 0,0 km/h (0 Bft) 97,87 %
25.07.2016 02:44 17,9 C 95 % 1015,6 hPa 0,0 l/m 0,0 km/h (0 Bft) O-SO 112 0 min 0,000 mm 0,0 UV-I 0 W/m 17,1 C 17,9 C 0,0 km/h (0 Bft) 96,23 %
25.07.2016 02:46 18,0 C 95 % 1015,6 hPa 0,0 l/m 0,4 km/h (0 Bft) O-SO 112 0 min 0,000 mm 0,0 UV-I 0 W/m 17,2 C 18,0 C 1,6 km/h (1 Bft) 97,73 %
25.07.2016 02:48 18,0 C 95 % 1015,7 hPa 0,0 l/m 1,5 km/h (1 Bft) O-SO 112 0 min 0,000 mm 0,0 UV-I 0 W/m 17,2 C 18,0 C 1,6 km/h (1 Bft) 97,22 %
25.07.2016 02:50 18,1 C 95 % 1015,7 hPa 0,0 l/m 1,6 km/h (1 Bft) O-SO 112 0 min 0,000 mm 0,0 UV-I 0 W/m 17,3 C 18,1 C 1,6 km/h (1 Bft) 98,18 %
25.07.2016 02:52 18,0 C 95 % 1015,7 hPa 0,0 l/m 1,3 km/h (1 Bft) O-SO 112 0 min 0,000 mm 0,0 UV-I 0 W/m 17,2 C 18,0 C 1,6 km/h (1 Bft) 97,87 %
25.07.2016 02:54 18,0 C 95 % 1015,6 hPa 0,0 l/m 1,5 km/h (1 Bft) O-SO 112 0 min 0,000 mm 0,0 UV-I 0 W/m 17,2 C 18,0 C 3,2 km/h (1 Bft) 95,83 %
25.07.2016 02:56 18,0 C 95 % 1015,6 hPa 0,0 l/m 1,5 km/h (1 Bft) O-SO 112 0 min 0,000 mm 0,0 UV-I 0 W/m 17,2 C 18,0 C 3,2 km/h (1 Bft) 96,00 %
25.07.2016 02:58 18,1 C 95 % 1015,6 hPa 0,0 l/m 1,9 km/h (1 Bft) O-SO 112 0 min 0,000 mm 0,0 UV-I 0 W/m 17,3 C 18,1 C 3,2 km/h (1 Bft) 97,37 %
25.07.2016 03:00 17,9 C 94 % 1015,6 hPa 0,0 l/m 2,4 km/h (1 Bft) O-SO 112 0 min 0,000 mm 0,0 UV-I 0 W/m 16,9 C 17,9 C 3,2 km/h (1 Bft) 96,23 %
25.07.2016 03:02 17,9 C 95 % 1015,6 hPa 0,0 l/m 3,6 km/h (1 Bft) O-SO 114 0 min 0,000 mm 0,0 UV-I 0 W/m 17,1 C 17,9 C 4,8 km/h (1 Bft) 98,00 %
25.07.2016 03:04 17,9 C 95 % 1015,6 hPa 0,0 l/m 3,4 km/h (1 Bft) O-SO 114 0 min 0,000 mm 0,0 UV-I 0 W/m 17,1 C 17,9 C 4,8 km/h (1 Bft) 97,87 %
25.07.2016 03:06 17,9 C 95 % 1015,6 hPa 0,0 l/m 3,5 km/h (1 Bft) O-SO 114 0 min 0,000 mm 0,0 UV-I 0 W/m 17,1 C 17,9 C 4,8 km/h (1 Bft) 100,00 %
25.07.2016 03:08 17,9 C 95 % 1015,6 hPa 0,0 l/m 3,3 km/h (1 Bft) O-SO 115 0 min 0,000 mm 0,0 UV-I 0 W/m 17,1 C 17,9 C 4,8 km/h (1 Bft) 97,87 %
25.07.2016 03:10 17,9 C 95 % 1015,7 hPa 0,0 l/m 3,7 km/h (1 Bft) O-SO 116 0 min 0,000 mm 0,0 UV-I 0 W/m 17,1 C 17,9 C 4,8 km/h (1 Bft) 100,00 %
25.07.2016 03:12 17,9 C 95 % 1015,7 hPa 0,0 l/m 3,6 km/h (1 Bft) O-SO 116 0 min 0,000 mm 0,0 UV-I 0 W/m 17,1 C 17,9 C 4,8 km/h (1 Bft) 100,00 %
25.07.2016 03:14 17,9 C 95 % 1015,7 hPa 0,0 l/m 3,1 km/h (1 Bft) O-SO 116 0 min 0,000 mm 0,0 UV-I 0 W/m 17,1 C 17,9 C 4,8 km/h (1 Bft) 97,87 %
25.07.2016 03:16 17,9 C 95 % 1015,6 hPa 0,0 l/m 3,3 km/h (1 Bft) O-SO 117 0 min 0,000 mm 0,0 UV-I 0 W/m 17,1 C 17,9 C 4,8 km/h (1 Bft) 100,00 %
25.07.2016 03:18 17,9 C 95 % 1015,6 hPa 0,0 l/m 2,1 km/h (1 Bft) O-SO 119 0 min 0,000 mm 0,0 UV-I 0 W/m 17,1 C 17,9 C 4,8 km/h (1 Bft) 100,00 %
25.07.2016 03:20 17,9 C 95 % 1015,7 hPa 0,0 l/m 1,8 km/h (1 Bft) O-SO 119 0 min 0,000 mm 0,0 UV-I 0 W/m 17,1 C 17,9 C 3,2 km/h (1 Bft) 100,00 %
25.07.2016 03:22 17,9 C 95 % 1015,7 hPa 0,0 l/m 1,6 km/h (1 Bft) O-SO 119 0 min 0,000 mm 0,0 UV-I 0 W/m 17,1 C 17,9 C 3,2 km/h (1 Bft) 100,00 %
25.07.2016 03:24 17,9 C 95 % 1015,7 hPa 0,0 l/m 1,4 km/h (1 Bft) O-SO 122 0 min 0,000 mm 0,0 UV-I 0 W/m 17,1 C 17,9 C 3,2 km/h (1 Bft) 100,00 %
25.07.2016 03:26 17,9 C 95 % 1015,7 hPa 0,0 l/m 3,4 km/h (1 Bft) SO 142 0 min 0,000 mm 0,0 UV-I 0 W/m 17,1 C 17,9 C 6,4 km/h (2 Bft) 98,00 %
25.07.2016 03:28 17,9 C 95 % 1015,7 hPa 0,0 l/m 3,6 km/h (1 Bft) SO 144 0 min 0,000 mm 0,0 UV-I 0 W/m 17,1 C 17,9 C 4,8 km/h (1 Bft) 98,11 %
25.07.2016 03:30 18,0 C 95 % 1015,7 hPa 0,0 l/m 3,5 km/h (1 Bft) SO 144 0 min 0,000 mm 0,0 UV-I 0 W/m 17,2 C 18,0 C 4,8 km/h (1 Bft) 97,44 %
25.07.2016 03:32 18,1 C 95 % 1015,7 hPa 0,0 l/m 2,7 km/h (1 Bft) SO 144 0 min 0,000 mm 0,0 UV-I 0 W/m 17,3 C 18,1 C 3,2 km/h (1 Bft) 100,00 %
25.07.2016 03:34 18,1 C 95 % 1015,7 hPa 0,0 l/m 3,3 km/h (1 Bft) SO 146 0 min 0,000 mm 0,0 UV-I 0 W/m 17,3 C 18,1 C 4,8 km/h (1 Bft) 100,00 %
25.07.2016 03:36 18,1 C 95 % 1015,8 hPa 0,0 l/m 3,5 km/h (1 Bft) SO 146 0 min 0,000 mm 0,0 UV-I 0 W/m 17,3 C 18,1 C 4,8 km/h (1 Bft) 100,00 %
25.07.2016 03:38 18,1 C 95 % 1015,7 hPa 0,0 l/m 2,5 km/h (1 Bft) SO 146 0 min 0,000 mm 0,0 UV-I 0 W/m 17,3 C 18,1 C 4,8 km/h (1 Bft) 100,00 %
25.07.2016 03:40 18,1 C 95 % 1015,8 hPa 0,0 l/m 1,5 km/h (1 Bft) SO 146 0 min 0,000 mm 0,0 UV-I 0 W/m 17,3 C 18,1 C 3,2 km/h (1 Bft) 100,00 %
25.07.2016 03:42 18,1 C 95 % 1015,7 hPa 0,0 l/m 2,1 km/h (1 Bft) SO 146 0 min 0,000 mm 0,0 UV-I 0 W/m 17,3 C 18,1 C 3,2 km/h (1 Bft) 100,00 %
25.07.2016 03:44 18,0 C 95 % 1015,7 hPa 0,0 l/m 3,1 km/h (1 Bft) SO 146 0 min 0,000 mm 0,0 UV-I 0 W/m 17,2 C 18,0 C 4,8 km/h (1 Bft) 100,00 %
25.07.2016 03:46 18,0 C 95 % 1015,7 hPa 0,0 l/m 2,1 km/h (1 Bft) SO 146 0 min 0,000 mm 0,0 UV-I 0 W/m 17,2 C 18,0 C 3,2 km/h (1 Bft) 100,00 %
25.07.2016 03:48 18,0 C 95 % 1015,7 hPa 0,0 l/m 2,4 km/h (1 Bft) SO 146 0 min 0,000 mm 0,0 UV-I 0 W/m 17,2 C 18,0 C 3,2 km/h (1 Bft) 100,00 %
25.07.2016 03:50 18,0 C 95 % 1015,7 hPa 0,0 l/m 2,7 km/h (1 Bft) SO 146 0 min 0,000 mm 0,0 UV-I 0 W/m 17,2 C 18,0 C 4,8 km/h (1 Bft) 100,00 %
25.07.2016 03:52 18,0 C 95 % 1015,6 hPa 0,0 l/m 2,8 km/h (1 Bft) SO 146 0 min 0,000 mm 0,0 UV-I 0 W/m 17,2 C 18,0 C 4,8 km/h (1 Bft) 100,00 %
25.07.2016 03:54 17,9 C 95 % 1015,7 hPa 0,0 l/m 3,0 km/h (1 Bft) SO 146 0 min 0,000 mm 0,0 UV-I 0 W/m 17,1 C 17,9 C 4,8 km/h (1 Bft) 100,00 %
25.07.2016 03:56 17,8 C 94 % 1015,6 hPa 0,0 l/m 3,9 km/h (1 Bft) S 188 0 min 0,000 mm 0,0 UV-I 0 W/m 16,8 C 17,8 C 6,4 km/h (2 Bft) 100,00 %
25.07.2016 03:58 17,8 C 95 % 1015,7 hPa 0,0 l/m 3,9 km/h (1 Bft) S-SW 198 0 min 0,000 mm 0,0 UV-I 0 W/m 17,0 C 17,8 C 4,8 km/h (1 Bft) 100,00 %
25.07.2016 04:00 17,7 C 94 % 1015,6 hPa 0,0 l/m 3,5 km/h (1 Bft) S-SW 197 0 min 0,000 mm 0,0 UV-I 0 W/m 16,7 C 17,7 C 4,8 km/h (1 Bft) 100,00 %
25.07.2016 04:02 17,7 C 95 % 1015,7 hPa 0,0 l/m 4,3 km/h (1 Bft) S-SW 198 0 min 0,000 mm 0,0 UV-I 0 W/m 16,9 C 17,7 C 4,8 km/h (1 Bft) 96,97 %
25.07.2016 04:04 17,7 C 95 % 1015,6 hPa 0,0 l/m 3,4 km/h (1 Bft) S-SW 198 0 min 0,000 mm 0,0 UV-I 0 W/m 16,9 C 17,7 C 4,8 km/h (1 Bft) 98,00 %
25.07.2016 04:06 17,7 C 95 % 1015,7 hPa 0,0 l/m 3,4 km/h (1 Bft) S-SW 198 0 min 0,000 mm 0,0 UV-I 0 W/m 16,9 C 17,7 C 4,8 km/h (1 Bft) 97,87 %
25.07.2016 04:08 17,7 C 95 % 1015,7 hPa 0,0 l/m 3,6 km/h (1 Bft) S-SW 197 0 min 0,000 mm 0,0 UV-I 0 W/m 16,9 C 17,7 C 6,4 km/h (2 Bft) 100,00 %
25.07.2016 04:10 17,7 C 95 % 1015,7 hPa 0,0 l/m 2,6 km/h (1 Bft) S-SW 197 0 min 0,000 mm 0,0 UV-I 0 W/m 16,9 C 17,7 C 3,2 km/h (1 Bft) 100,00 %
25.07.2016 04:12 17,8 C 95 % 1015,7 hPa 0,0 l/m 3,4 km/h (1 Bft) S-SW 197 0 min 0,000 mm 0,0 UV-I 0 W/m 17,0 C 17,8 C 4,8 km/h (1 Bft) 100,00 %
25.07.2016 04:14 17,8 C 95 % 1015,7 hPa 0,0 l/m 3,0 km/h (1 Bft) S-SW 197 0 min 0,000 mm 0,0 UV-I 0 W/m 17,0 C 17,8 C 4,8 km/h (1 Bft) 100,00 %
25.07.2016 04:16 17,8 C 95 % 1015,7 hPa 0,0 l/m 1,8 km/h (1 Bft) S-SW 197 0 min 0,000 mm 0,0 UV-I 0 W/m 17,0 C 17,8 C 3,2 km/h (1 Bft) 97,87 %
25.07.2016 04:18 17,8 C 95 % 1015,7 hPa 0,0 l/m 1,3 km/h (1 Bft) S-SW 197 0 min 0,000 mm 0,0 UV-I 0 W/m 17,0 C 17,8 C 3,2 km/h (1 Bft) 100,00 %
25.07.2016 04:20 17,9 C 95 % 1015,7 hPa 0,0 l/m 1,8 km/h (1 Bft) S-SW 197 0 min 0,000 mm 0,0 UV-I 0 W/m 17,1 C 17,9 C 3,2 km/h (1 Bft) 100,00 %
25.07.2016 04:22 17,9 C 95 % 1015,7 hPa 0,0 l/m 1,0 km/h (0 Bft) S-SW 197 0 min 0,000 mm 0,0 UV-I 0 W/m 17,1 C 17,9 C 3,2 km/h (1 Bft) 97,87 %
25.07.2016 04:24 17,9 C 95 % 1015,7 hPa 0,0 l/m 1,2 km/h (1 Bft) S-SW 197 0 min 0,000 mm 0,0 UV-I 0 W/m 17,1 C 17,9 C 3,2 km/h (1 Bft) 100,00 %
25.07.2016 04:26 17,8 C 95 % 1015,8 hPa 0,0 l/m 1,5 km/h (1 Bft) S-SW 197 0 min 0,000 mm 0,0 UV-I 0 W/m 17,0 C 17,8 C 3,2 km/h (1 Bft) 96,23 %
25.07.2016 04:28 17,8 C 95 % 1015,8 hPa 0,0 l/m 1,1 km/h (1 Bft) S-SW 197 0 min 0,000 mm 0,0 UV-I 0 W/m 17,0 C 17,8 C 3,2 km/h (1 Bft) 93,62 %
25.07.2016 04:30 17,8 C 95 % 1015,7 hPa 0,0 l/m 2,7 km/h (1 Bft) S-SW 197 0 min 0,000 mm 0,0 UV-I 0 W/m 17,0 C 17,8 C 4,8 km/h (1 Bft) 97,37 %
25.07.2016 04:32 17,8 C 95 % 1015,7 hPa 0,0 l/m 2,1 km/h (1 Bft) S-SW 197 0 min 0,000 mm 0,0 UV-I 0 W/m 17,0 C 17,8 C 3,2 km/h (1 Bft) 97,87 %
25.07.2016 04:34 17,8 C 95 % 1015,8 hPa 0,0 l/m 1,7 km/h (1 Bft) S-SW 197 0 min 0,000 mm 0,0 UV-I 0 W/m 17,0 C 17,8 C 3,2 km/h (1 Bft) 95,74 %
25.07.2016 04:36 17,9 C 95 % 1015,8 hPa 0,0 l/m 2,1 km/h (1 Bft) S-SW 197 0 min 0,000 mm 0,0 UV-I 0 W/m 17,1 C 17,9 C 4,8 km/h (1 Bft) 96,00 %
25.07.2016 04:38 17,8 C 95 % 1015,8 hPa 0,0 l/m 2,6 km/h (1 Bft) S-SW 197 0 min 0,000 mm 0,0 UV-I 0 W/m 17,0 C 17,8 C 4,8 km/h (1 Bft) 95,12 %
25.07.2016 04:40 17,9 C 95 % 1015,8 hPa 0,0 l/m 2,7 km/h (1 Bft) S-SW 197 0 min 0,000 mm 0,0 UV-I 0 W/m 17,1 C 17,9 C 4,8 km/h (1 Bft) 98,00 %
25.07.2016 04:42 17,8 C 95 % 1015,7 hPa 0,0 l/m 2,7 km/h (1 Bft) S-SW 197 0 min 0,000 mm 0,0 UV-I 0 W/m 17,0 C 17,8 C 6,4 km/h (2 Bft) 97,87 %
25.07.2016 04:44 17,8 C 95 % 1015,7 hPa 0,0 l/m 2,1 km/h (1 Bft) S-SW 197 0 min 0,000 mm 0,0 UV-I 0 W/m 17,0 C 17,8 C 4,8 km/h (1 Bft) 96,00 %
25.07.2016 04:46 17,8 C 95 % 1015,7 hPa 0,0 l/m 1,5 km/h (1 Bft) S-SW 197 0 min 0,000 mm 0,0 UV-I 0 W/m 17,0 C 17,8 C 3,2 km/h (1 Bft) 98,00 %
25.07.2016 04:48 17,8 C 95 % 1015,8 hPa 0,0 l/m 1,9 km/h (1 Bft) S-SW 197 0 min 0,000 mm 0,0 UV-I 0 W/m 17,0 C 17,8 C 3,2 km/h (1 Bft) 97,87 %
25.07.2016 04:50 17,8 C 94 % 1015,7 hPa 0,0 l/m 1,8 km/h (1 Bft) S-SW 197 0 min 0,000 mm 0,0 UV-I 0 W/m 16,8 C 17,8 C 4,8 km/h (1 Bft) 97,87 %
25.07.2016 04:52 17,8 C 94 % 1015,7 hPa 0,0 l/m 1,7 km/h (1 Bft) S-SW 197 0 min 0,000 mm 0,0 UV-I 0 W/m 16,8 C 17,8 C 3,2 km/h (1 Bft) 97,87 %
25.07.2016 04:54 17,7 C 95 % 1015,7 hPa 0,0 l/m 0,8 km/h (0 Bft) S-SW 197 0 min 0,000 mm 0,0 UV-I 0 W/m 16,9 C 17,7 C 3,2 km/h (1 Bft) 97,92 %
25.07.2016 04:56 17,7 C 95 % 1015,8 hPa 0,0 l/m 0,3 km/h (0 Bft) S-SW 197 0 min 0,000 mm 0,0 UV-I 0 W/m 16,9 C 17,7 C 1,6 km/h (1 Bft) 97,87 %
25.07.2016 04:58 17,8 C 95 % 1015,8 hPa 0,0 l/m 0,5 km/h (0 Bft) S-SW 197 0 min 0,000 mm 0,0 UV-I 0 W/m 17,0 C 17,8 C 3,2 km/h (1 Bft) 97,37 %
25.07.2016 05:00 17,8 C 95 % 1015,8 hPa 0,0 l/m 2,7 km/h (1 Bft) S-SW 197 0 min 0,000 mm 0,0 UV-I 0 W/m 17,0 C 17,8 C 3,2 km/h (1 Bft) 97,87 %
25.07.2016 05:02 17,8 C 95 % 1015,8 hPa 0,0 l/m 2,7 km/h (1 Bft) S-SW 197 0 min 0,000 mm 0,0 UV-I 0 W/m 17,0 C 17,8 C 4,8 km/h (1 Bft) 98,11 %
25.07.2016 05:04 17,8 C 95 % 1015,8 hPa 0,0 l/m 1,1 km/h (1 Bft) S-SW 197 0 min 0,000 mm 0,0 UV-I 0 W/m 17,0 C 17,8 C 1,6 km/h (1 Bft) 100,00 %
25.07.2016 05:06 17,8 C 95 % 1015,8 hPa 0,0 l/m 0,4 km/h (0 Bft) S-SW 197 0 min 0,000 mm 0,0 UV-I 0 W/m 17,0 C 17,8 C 1,6 km/h (1 Bft) 100,00 %
25.07.2016 05:08 17,8 C 95 % 1015,8 hPa 0,0 l/m 0,0 km/h (0 Bft) S-SW 197 0 min 0,000 mm 0,0 UV-I 0 W/m 17,0 C 17,8 C 0,0 km/h (0 Bft) 100,00 %
25.07.2016 05:10 17,8 C 95 % 1015,8 hPa 0,0 l/m 1,0 km/h (0 Bft) S-SW 197 0 min 0,000 mm 0,0 UV-I 0 W/m 17,0 C 17,8 C 3,2 km/h (1 Bft) 97,37 %
25.07.2016 05:12 17,8 C 95 % 1015,8 hPa 0,0 l/m 0,7 km/h (0 Bft) S-SW 197 0 min 0,000 mm 0,0 UV-I 0 W/m 17,0 C 17,8 C 1,6 km/h (1 Bft) 96,43 %
25.07.2016 05:14 17,7 C 95 % 1015,8 hPa 0,0 l/m 0,0 km/h (0 Bft) S-SW 197 0 min 0,000 mm 0,0 UV-I 0 W/m 16,9 C 17,7 C 0,0 km/h (0 Bft) 100,00 %
25.07.2016 05:16 17,7 C 95 % 1015,8 hPa 0,0 l/m 0,0 km/h (0 Bft) S-SW 197 0 min 0,000 mm 0,0 UV-I 0 W/m 16,9 C 17,7 C 0,0 km/h (0 Bft) 100,00 %
25.07.2016 05:18 17,7 C 95 % 1015,8 hPa 0,0 l/m 0,0 km/h (0 Bft) S-SW 197 0 min 0,000 mm 0,0 UV-I 0 W/m 16,9 C 17,7 C 0,0 km/h (0 Bft) 100,00 %
25.07.2016 05:20 17,6 C 95 % 1015,7 hPa 0,0 l/m 0,0 km/h (0 Bft) S-SW 197 0 min 0,000 mm 0,0 UV-I 1 W/m 16,8 C 17,6 C 0,0 km/h (0 Bft) 95,74 %
25.07.2016 05:22 17,6 C 95 % 1015,7 hPa 0,0 l/m 0,4 km/h (0 Bft) S-SW 197 0 min 0,000 mm 0,0 UV-I 5 W/m 16,8 C 17,6 C 1,6 km/h (1 Bft) 100,00 %
25.07.2016 05:24 17,5 C 95 % 1015,7 hPa 0,0 l/m 0,1 km/h (0 Bft) S-SW 197 0 min 0,000 mm 0,0 UV-I 5 W/m 16,7 C 17,5 C 1,6 km/h (1 Bft) 100,00 %
25.07.2016 05:26 17,4 C 95 % 1015,6 hPa 0,0 l/m 0,0 km/h (0 Bft) S-SW 197 0 min 0,000 mm 0,0 UV-I 5 W/m 16,6 C 17,4 C 0,0 km/h (0 Bft) 97,87 %
25.07.2016 05:28 17,4 C 95 % 1015,6 hPa 0,0 l/m 0,0 km/h (0 Bft) S-SW 197 0 min 0,000 mm 0,0 UV-I 5 W/m 16,6 C 17,4 C 0,0 km/h (0 Bft) 94,87 %
25.07.2016 05:30 17,4 C 95 % 1015,7 hPa 0,0 l/m 0,0 km/h (0 Bft) S-SW 197 0 min 0,000 mm 0,0 UV-I 5 W/m 16,6 C 17,4 C 0,0 km/h (0 Bft) 100,00 %
25.07.2016 05:32 17,4 C 96 % 1015,7 hPa 0,0 l/m 0,0 km/h (0 Bft) S-SW 197 0 min 0,000 mm 0,0 UV-I 5 W/m 16,8 C 17,4 C 0,0 km/h (0 Bft) 100,00 %
25.07.2016 05:34 17,4 C 96 % 1015,7 hPa 0,0 l/m 0,1 km/h (0 Bft) S-SW 197 0 min 0,000 mm 0,0 UV-I 6 W/m 16,8 C 17,4 C 1,6 km/h (1 Bft) 98,00 %
25.07.2016 05:36 17,4 C 96 % 1015,7 hPa 0,0 l/m 0,4 km/h (0 Bft) S-SW 197 0 min 0,000 mm 0,0 UV-I 7 W/m 16,8 C 17,4 C 1,6 km/h (1 Bft) 100,00 %
25.07.2016 05:38 17,3 C 95 % 1015,8 hPa 0,0 l/m 0,0 km/h (0 Bft) S-SW 197 0 min 0,000 mm 0,0 UV-I 8 W/m 16,5 C 17,3 C 0,0 km/h (0 Bft) 100,00 %
25.07.2016 05:40 17,3 C 96 % 1015,7 hPa 0,0 l/m 0,0 km/h (0 Bft) S-SW 197 0 min 0,000 mm 0,0 UV-I 10 W/m 16,7 C 17,3 C 0,0 km/h (0 Bft) 100,00 %
25.07.2016 05:42 17,3 C 96 % 1015,7 hPa 0,0 l/m 0,0 km/h (0 Bft) S-SW 197 0 min 0,000 mm 0,0 UV-I 11 W/m 16,7 C 17,3 C 0,0 km/h (0 Bft) 100,00 %
25.07.2016 05:44 17,3 C 96 % 1015,8 hPa 0,0 l/m 0,1 km/h (0 Bft) S-SW 197 2 min 0,000 mm 0,0 UV-I 12 W/m 16,7 C 17,3 C 1,6 km/h (1 Bft) 97,87 %
25.07.2016 05:46 17,2 C 96 % 1015,8 hPa 0,0 l/m 0,2 km/h (0 Bft) S-SW 197 2 min 0,000 mm 0,0 UV-I 14 W/m 16,6 C 17,2 C 1,6 km/h (1 Bft) 100,00 %
25.07.2016 05:48 17,3 C 96 % 1015,8 hPa 0,0 l/m 0,2 km/h (0 Bft) S-SW 197 2 min 0,000 mm 0,0 UV-I 16 W/m 16,7 C 17,3 C 1,6 km/h (1 Bft) 100,00 %
25.07.2016 05:50 17,2 C 96 % 1015,8 hPa 0,0 l/m 0,0 km/h (0 Bft) S-SW 197 2 min 0,000 mm 0,0 UV-I 19 W/m 16,6 C 17,2 C 1,6 km/h (1 Bft) 97,87 %
25.07.2016 05:52 17,2 C 95 % 1015,9 hPa 0,0 l/m 0,0 km/h (0 Bft) S-SW 197 0 min 0,000 mm 0,0 UV-I 21 W/m 16,4 C 17,2 C 1,6 km/h (1 Bft) 100,00 %
25.07.2016 05:54 17,1 C 95 % 1015,8 hPa 0,0 l/m 0,0 km/h (0 Bft) S-SW 197 0 min 0,000 mm 0,0 UV-I 24 W/m 16,3 C 17,1 C 0,0 km/h (0 Bft) 100,00 %
25.07.2016 05:56 17,1 C 96 % 1015,9 hPa 0,0 l/m 0,0 km/h (0 Bft) S-SW 197 0 min 0,000 mm 0,0 UV-I 25 W/m 16,5 C 17,1 C 0,0 km/h (0 Bft) 100,00 %
25.07.2016 05:58 17,2 C 96 % 1015,9 hPa 0,0 l/m 0,0 km/h (0 Bft) S-SW 197 0 min 0,000 mm 0,0 UV-I 28 W/m 16,6 C 17,2 C 0,0 km/h (0 Bft) 100,00 %
25.07.2016 06:00 17,2 C 96 % 1015,9 hPa 0,0 l/m 0,3 km/h (0 Bft) S-SW 197 0 min 0,000 mm 0,0 UV-I 30 W/m 16,6 C 17,2 C 1,6 km/h (1 Bft) 100,00 %
25.07.2016 06:02 17,2 C 96 % 1015,9 hPa 0,0 l/m 0,0 km/h (0 Bft) S-SW 197 0 min 0,000 mm 0,0 UV-I 31 W/m 16,6 C 17,2 C 1,6 km/h (1 Bft) 100,00 %
25.07.2016 06:04 17,2 C 96 % 1015,9 hPa 0,0 l/m 0,0 km/h (0 Bft) S-SW 197 0 min 0,000 mm 0,0 UV-I 33 W/m 16,6 C 17,2 C 0,0 km/h (0 Bft) 100,00 %
25.07.2016 06:06 17,2 C 96 % 1016,0 hPa 0,0 l/m 0,0 km/h (0 Bft) S-SW 197 0 min 0,000 mm 0,0 UV-I 35 W/m 16,6 C 17,2 C 0,0 km/h (0 Bft) 97,92 %
25.07.2016 06:08 17,3 C 96 % 1015,9 hPa 0,0 l/m 0,0 km/h (0 Bft) S-SW 197 0 min 0,000 mm 0,0 UV-I 37 W/m 16,7 C 17,3 C 0,0 km/h (0 Bft) 100,00 %
25.07.2016 06:10 17,3 C 96 % 1016,0 hPa 0,0 l/m 0,7 km/h (0 Bft) S-SW 197 0 min 0,000 mm 0,0 UV-I 38 W/m 16,7 C 17,3 C 1,6 km/h (1 Bft) 100,00 %
25.07.2016 06:12 17,3 C 96 % 1016,0 hPa 0,0 l/m 0,0 km/h (0 Bft) S-SW 197 0 min 0,000 mm 0,0 UV-I 39 W/m 16,7 C 17,3 C 0,0 km/h (0 Bft) 100,00 %
25.07.2016 06:14 17,3 C 96 % 1016,0 hPa 0,0 l/m 0,0 km/h (0 Bft) S-SW 197 0 min 0,000 mm 0,0 UV-I 41 W/m 16,7 C 17,3 C 0,0 km/h (0 Bft) 100,00 %
25.07.2016 06:16 17,3 C 96 % 1016,1 hPa 0,0 l/m 0,0 km/h (0 Bft) S-SW 197 0 min 0,000 mm 0,0 UV-I 44 W/m 16,7 C 17,3 C 0,0 km/h (0 Bft) 97,56 %
25.07.2016 06:18 17,4 C 96 % 1016,0 hPa 0,0 l/m 0,0 km/h (0 Bft) S-SW 197 0 min 0,000 mm 0,0 UV-I 47 W/m 16,8 C 17,4 C 0,0 km/h (0 Bft) 100,00 %
25.07.2016 06:20 17,4 C 96 % 1016,0 hPa 0,0 l/m 0,1 km/h (0 Bft) S-SW 197 0 min 0,000 mm 0,0 UV-I 48 W/m 16,8 C 17,4 C 1,6 km/h (1 Bft) 97,87 %
25.07.2016 06:22 17,5 C 96 % 1015,9 hPa 0,0 l/m 0,9 km/h (0 Bft) S-SW 197 0 min 0,000 mm 0,0 UV-I 51 W/m 16,9 C 17,5 C 1,6 km/h (1 Bft) 100,00 %
25.07.2016 06:24 17,6 C 96 % 1016,0 hPa 0,0 l/m 0,3 km/h (0 Bft) S-SW 197 0 min 0,000 mm 0,0 UV-I 52 W/m 17,0 C 17,6 C 1,6 km/h (1 Bft) 100,00 %
25.07.2016 06:26 17,6 C 96 % 1015,9 hPa 0,0 l/m 0,0 km/h (0 Bft) S-SW 197 0 min 0,000 mm 0,0 UV-I 53 W/m 17,0 C 17,6 C 0,0 km/h (0 Bft) 95,74 %
25.07.2016 06:28 17,7 C 96 % 1015,9 hPa 0,0 l/m 0,0 km/h (0 Bft) S-SW 197 0 min 0,000 mm 0,0 UV-I 54 W/m 17,1 C 17,7 C 0,0 km/h (0 Bft) 96,00 %
25.07.2016 06:30 17,7 C 96 % 1015,9 hPa 0,0 l/m 0,0 km/h (0 Bft) S-SW 197 0 min 0,000 mm 0,0 UV-I 56 W/m 17,1 C 17,7 C 0,0 km/h (0 Bft) 95,74 %
25.07.2016 06:32 17,8 C 96 % 1016,0 hPa 0,0 l/m 0,0 km/h (0 Bft) S-SW 197 0 min 0,000 mm 0,0 UV-I 58 W/m 17,2 C 17,8 C 0,0 km/h (0 Bft) 95,74 %
25.07.2016 06:34 17,8 C 96 % 1016,0 hPa 0,0 l/m 0,4 km/h (0 Bft) S-SW 197 0 min 0,000 mm 0,0 UV-I 62 W/m 17,2 C 17,8 C 1,6 km/h (1 Bft) 98,00 %
25.07.2016 06:36 17,9 C 96 % 1016,0 hPa 0,0 l/m 0,3 km/h (0 Bft) S-SW 197 0 min 0,000 mm 0,0 UV-I 64 W/m 17,3 C 17,9 C 1,6 km/h (1 Bft) 97,56 %
25.07.2016 06:38 17,9 C 96 % 1016,0 hPa 0,0 l/m 0,1 km/h (0 Bft) S-SW 197 0 min 0,000 mm 0,0 UV-I 67 W/m 17,3 C 17,9 C 1,6 km/h (1 Bft) 98,00 %
25.07.2016 06:40 17,9 C 95 % 1016,0 hPa 0,0 l/m 0,2 km/h (0 Bft) S-SW 197 0 min 0,000 mm 0,0 UV-I 70 W/m 17,1 C 17,9 C 1,6 km/h (1 Bft) 97,87 %
25.07.2016 06:42 18,1 C 96 % 1015,9 hPa 0,0 l/m 0,4 km/h (0 Bft) S-SW 197 0 min 0,000 mm 0,0 UV-I 74 W/m 17,5 C 18,1 C 1,6 km/h (1 Bft) 97,87 %
25.07.2016 06:44 18,1 C 95 % 1015,9 hPa 0,0 l/m 0,4 km/h (0 Bft) S-SW 197 0 min 0,000 mm 0,0 UV-I 76 W/m 17,3 C 18,1 C 1,6 km/h (1 Bft) 97,87 %
25.07.2016 06:46 18,2 C 95 % 1016,0 hPa 0,0 l/m 0,1 km/h (0 Bft) S-SW 197 0 min 0,000 mm 0,0 UV-I 77 W/m 17,4 C 18,2 C 1,6 km/h (1 Bft) 95,74 %
25.07.2016 06:48 18,3 C 95 % 1016,0 hPa 0,0 l/m 0,8 km/h (0 Bft) S-SW 197 0 min 0,000 mm 0,0 UV-I 78 W/m 17,5 C 18,3 C 3,2 km/h (1 Bft) 95,74 %
25.07.2016 06:50 18,4 C 95 % 1016,1 hPa 0,0 l/m 1,5 km/h (1 Bft) S-SW 197 0 min 0,000 mm 0,0 UV-I 83 W/m 17,6 C 18,4 C 3,2 km/h (1 Bft) 97,44 %
25.07.2016 06:52 18,4 C 95 % 1016,1 hPa 0,0 l/m 1,1 km/h (1 Bft) S-SW 197 0 min 0,000 mm 0,0 UV-I 93 W/m 17,6 C 18,4 C 3,2 km/h (1 Bft) 98,11 %
25.07.2016 06:54 18,6 C 95 % 1016,1 hPa 0,0 l/m 0,9 km/h (0 Bft) S-SW 197 0 min 0,000 mm 0,0 UV-I 105 W/m 17,8 C 18,6 C 3,2 km/h (1 Bft) 95,74 %
25.07.2016 06:56 18,6 C 94 % 1016,1 hPa 0,0 l/m 0,5 km/h (0 Bft) S-SW 197 0 min 0,000 mm 0,0 UV-I 114 W/m 17,6 C 18,6 C 1,6 km/h (1 Bft) 98,00 %
25.07.2016 06:58 18,6 C 94 % 1016,2 hPa 0,0 l/m 1,8 km/h (1 Bft) S-SW 197 0 min 0,000 mm 0,0 UV-I 116 W/m 17,6 C 18,6 C 3,2 km/h (1 Bft) 97,37 %
25.07.2016 07:00 18,6 C 94 % 1016,2 hPa 0,0 l/m 3,6 km/h (1 Bft) S-SW 197 2 min 0,025 mm 0,0 UV-I 125 W/m 17,6 C 18,6 C 4,8 km/h (1 Bft) 100,00 %
25.07.2016 07:02 18,6 C 94 % 1016,2 hPa 0,0 l/m 3,2 km/h (1 Bft) S-SW 197 2 min 0,000 mm 0,0 UV-I 138 W/m 17,6 C 18,6 C 4,8 km/h (1 Bft) 100,00 %
25.07.2016 07:04 18,6 C 94 % 1016,2 hPa 0,0 l/m 2,6 km/h (1 Bft) S-SW 197 2 min 0,000 mm 0,0 UV-I 148 W/m 17,6 C 18,6 C 4,8 km/h (1 Bft) 100,00 %
25.07.2016 07:06 18,6 C 94 % 1016,2 hPa 0,0 l/m 3,8 km/h (1 Bft) S-SW 197 2 min 0,000 mm 0,0 UV-I 150 W/m 17,6 C 18,6 C 4,8 km/h (1 Bft) 98,00 %
25.07.2016 07:08 18,7 C 95 % 1016,2 hPa 0,0 l/m 2,8 km/h (1 Bft) S-SW 197 2 min 0,000 mm 0,0 UV-I 149 W/m 17,9 C 18,7 C 4,8 km/h (1 Bft) 100,00 %
25.07.2016 07:10 18,8 C 94 % 1016,2 hPa 0,0 l/m 2,7 km/h (1 Bft) S-SW 197 2 min 0,000 mm 0,0 UV-I 162 W/m 17,8 C 18,8 C 4,8 km/h (1 Bft) 98,11 %
25.07.2016 07:12 18,9 C 94 % 1016,2 hPa 0,0 l/m 3,5 km/h (1 Bft) S-SW 200 2 min 0,000 mm 0,0 UV-I 157 W/m 17,9 C 18,9 C 6,4 km/h (2 Bft) 100,00 %
25.07.2016 07:14 18,9 C 93 % 1016,3 hPa 0,0 l/m 3,5 km/h (1 Bft) S-SW 200 2 min 0,000 mm 0,0 UV-I 149 W/m 17,7 C 18,9 C 4,8 km/h (1 Bft) 100,00 %
25.07.2016 07:16 19,1 C 93 % 1016,2 hPa 0,0 l/m 3,7 km/h (1 Bft) S-SW 200 2 min 0,000 mm 0,0 UV-I 149 W/m 17,9 C 19,1 C 6,4 km/h (2 Bft) 100,00 %
25.07.2016 07:18 19,1 C 92 % 1016,3 hPa 0,0 l/m 2,2 km/h (1 Bft) S-SW 200 2 min 0,000 mm 0,0 UV-I 188 W/m 17,8 C 19,1 C 4,8 km/h (1 Bft) 98,11 %
25.07.2016 07:20 19,2 C 93 % 1016,3 hPa 0,0 l/m 4,2 km/h (1 Bft) S-SW 194 2 min 0,000 mm 0,0 UV-I 203 W/m 18,0 C 19,2 C 6,4 km/h (2 Bft) 100,00 %
25.07.2016 07:22 19,3 C 93 % 1016,3 hPa 0,0 l/m 3,7 km/h (1 Bft) S-SW 194 2 min 0,000 mm 0,0 UV-I 188 W/m 18,1 C 19,3 C 4,8 km/h (1 Bft) 100,00 %
25.07.2016 07:24 19,4 C 92 % 1016,3 hPa 0,0 l/m 4,0 km/h (1 Bft) SW 226 2 min 0,000 mm 0,0 UV-I 198 W/m 18,1 C 19,4 C 8,0 km/h (2 Bft) 100,00 %
25.07.2016 07:26 19,4 C 92 % 1016,3 hPa 0,0 l/m 7,8 km/h (2 Bft) W-SW 257 2 min 0,000 mm 0,0 UV-I 189 W/m 18,1 C 18,8 C 11,3 km/h (2 Bft) 100,00 %
25.07.2016 07:28 19,6 C 91 % 1016,2 hPa 0,0 l/m 7,3 km/h (2 Bft) SW 234 2 min 0,000 mm 0,3 UV-I 198 W/m 18,1 C 19,2 C 9,7 km/h (2 Bft) 98,11 %
25.07.2016 07:30 19,6 C 91 % 1016,2 hPa 0,0 l/m 5,5 km/h (1 Bft) SW 226 2 min 0,000 mm 0,5 UV-I 240 W/m 18,1 C 19,6 C 9,7 km/h (2 Bft) 100,00 %
25.07.2016 07:32 19,6 C 91 % 1016,1 hPa 0,0 l/m 4,8 km/h (1 Bft) S 180 2 min 0,000 mm 0,5 UV-I 284 W/m 18,1 C 19,6 C 9,7 km/h (2 Bft) 100,00 %
25.07.2016 07:34 19,7 C 92 % 1016,1 hPa 0,0 l/m 5,4 km/h (1 Bft) S-SW 212 2 min 0,000 mm 0,5 UV-I 291 W/m 18,4 C 19,7 C 9,7 km/h (2 Bft) 100,00 %
25.07.2016 07:36 19,8 C 91 % 1016,1 hPa 0,0 l/m 6,8 km/h (2 Bft) S-SW 213 2 min 0,000 mm 0,5 UV-I 282 W/m 18,3 C 19,6 C 11,3 km/h (2 Bft) 100,00 %
25.07.2016 07:38 19,9 C 91 % 1016,2 hPa 0,0 l/m 6,2 km/h (2 Bft) W-SW 250 2 min 0,000 mm 0,6 UV-I 323 W/m 18,4 C 19,9 C 8,0 km/h (2 Bft) 100,00 %
25.07.2016 07:40 20,0 C 90 % 1016,2 hPa 0,0 l/m 5,8 km/h (2 Bft) S-SW 211 2 min 0,000 mm 0,6 UV-I 304 W/m 18,3 C 20,0 C 9,7 km/h (2 Bft) 100,00 %
25.07.2016 07:42 20,0 C 89 % 1016,2 hPa 0,0 l/m 7,2 km/h (2 Bft) SW 225 2 min 0,000 mm 0,6 UV-I 280 W/m 18,1 C 19,7 C 11,3 km/h (2 Bft) 100,00 %
25.07.2016 07:44 20,1 C 89 % 1016,1 hPa 0,0 l/m 4,2 km/h (1 Bft) W-SW 258 2 min 0,000 mm 0,6 UV-I 272 W/m 18,2 C 20,1 C 6,4 km/h (2 Bft) 100,00 %
25.07.2016 07:46 20,1 C 89 % 1016,2 hPa 0,0 l/m 6,0 km/h (2 Bft) SW 229 2 min 0,000 mm 0,6 UV-I 304 W/m 18,2 C 20,1 C 9,7 km/h (2 Bft) 100,00 %
25.07.2016 07:48 20,2 C 89 % 1016,1 hPa 0,0 l/m 6,3 km/h (2 Bft) W-SW 250 2 min 0,000 mm 0,7 UV-I 370 W/m 18,3 C 20,2 C 11,3 km/h (2 Bft) 100,00 %
25.07.2016 07:50 20,2 C 89 % 1016,2 hPa 0,0 l/m 8,0 km/h (2 Bft) W-SW 256 2 min 0,000 mm 0,7 UV-I 380 W/m 18,3 C 19,6 C 12,9 km/h (3 Bft) 100,00 %
25.07.2016 07:52 20,3 C 88 % 1016,1 hPa 0,0 l/m 7,6 km/h (2 Bft) S-SW 213 2 min 0,000 mm 0,8 UV-I 384 W/m 18,2 C 19,8 C 11,3 km/h (2 Bft) 100,00 %
25.07.2016 07:54 20,3 C 88 % 1016,1 hPa 0,0 l/m 7,1 km/h (2 Bft) S-SW 213 2 min 0,000 mm 0,8 UV-I 397 W/m 18,2 C 20,0 C 12,9 km/h (3 Bft) 100,00 %
25.07.2016 07:56 20,3 C 88 % 1016,1 hPa 0,0 l/m 7,1 km/h (2 Bft) SW 236 2 min 0,000 mm 0,8 UV-I 406 W/m 18,2 C 20,0 C 11,3 km/h (2 Bft) 100,00 %
25.07.2016 07:58 20,4 C 88 % 1016,1 hPa 0,0 l/m 6,6 km/h (2 Bft) S 186 2 min 0,000 mm 0,9 UV-I 415 W/m 18,3 C 20,3 C 9,7 km/h (2 Bft) 98,00 %
25.07.2016 08:00 20,4 C 89 % 1016,1 hPa 0,0 l/m 6,9 km/h (2 Bft) W-SW 240 2 min 0,153 mm 0,9 UV-I 420 W/m 18,5 C 20,2 C 11,3 km/h (2 Bft) 100,00 %
25.07.2016 08:02 20,5 C 88 % 1016,1 hPa 0,0 l/m 5,2 km/h (1 Bft) W-SW 244 2 min 0,000 mm 0,9 UV-I 418 W/m 18,4 C 20,5 C 9,7 km/h (2 Bft) 100,00 %
25.07.2016 08:04 20,5 C 88 % 1016,1 hPa 0,0 l/m 6,5 km/h (2 Bft) W-SW 252 2 min 0,000 mm 0,9 UV-I 417 W/m 18,4 C 20,5 C 9,7 km/h (2 Bft) 100,00 %
25.07.2016 08:06 20,6 C 89 % 1016,1 hPa 0,0 l/m 7,4 km/h (2 Bft) S 175 2 min 0,000 mm 1,0 UV-I 417 W/m 18,7 C 20,2 C 9,7 km/h (2 Bft) 96,36 %
25.07.2016 08:08 20,6 C 88 % 1016,1 hPa 0,0 l/m 9,5 km/h (2 Bft) SW 223 2 min 0,000 mm 1,0 UV-I 417 W/m 18,5 C 19,5 C 14,5 km/h (3 Bft) 100,00 %
25.07.2016 08:10 20,7 C 88 % 1016,1 hPa 0,0 l/m 6,4 km/h (2 Bft) W-SW 258 2 min 0,000 mm 1,0 UV-I 371 W/m 18,6 C 20,7 C 9,7 km/h (2 Bft) 98,00 %
25.07.2016 08:12 20,7 C 87 % 1016,0 hPa 0,0 l/m 6,4 km/h (2 Bft) SW 231 2 min 0,000 mm 1,1 UV-I 394 W/m 18,5 C 20,7 C 9,7 km/h (2 Bft) 97,92 %
25.07.2016 08:14 20,7 C 87 % 1015,9 hPa 0,0 l/m 4,2 km/h (1 Bft) W-SW 247 2 min 0,000 mm 1,1 UV-I 401 W/m 18,5 C 20,7 C 8,0 km/h (2 Bft) 97,37 %
25.07.2016 08:16 20,8 C 88 % 1016,0 hPa 0,0 l/m 4,6 km/h (1 Bft) W 271 2 min 0,000 mm 1,1 UV-I 396 W/m 18,7 C 20,8 C 9,7 km/h (2 Bft) 100,00 %
25.07.2016 08:18 20,8 C 87 % 1016,0 hPa 0,0 l/m 2,9 km/h (1 Bft) SW 224 2 min 0,000 mm 1,2 UV-I 394 W/m 18,6 C 20,8 C 6,4 km/h (2 Bft) 97,87 %
25.07.2016 08:20 20,9 C 87 % 1015,9 hPa 0,0 l/m 3,8 km/h (1 Bft) S-SW 209 2 min 0,000 mm 1,2 UV-I 397 W/m 18,7 C 20,9 C 6,4 km/h (2 Bft) 100,00 %
25.07.2016 08:22 20,8 C 86 % 1015,9 hPa 0,0 l/m 6,4 km/h (2 Bft) S-SW 196 2 min 0,000 mm 1,2 UV-I 396 W/m 18,4 C 20,8 C 9,7 km/h (2 Bft) 100,00 %
25.07.2016 08:24 20,8 C 88 % 1016,1 hPa 0,0 l/m 7,6 km/h (2 Bft) SW 222 2 min 0,000 mm 1,2 UV-I 394 W/m 18,7 C 20,3 C 12,9 km/h (3 Bft) 100,00 %
25.07.2016 08:26 20,9 C 88 % 1016,1 hPa 0,0 l/m 5,8 km/h (2 Bft) W-SW 248 2 min 0,000 mm 1,3 UV-I 389 W/m 18,8 C 20,9 C 9,7 km/h (2 Bft) 97,87 %
25.07.2016 08:28 20,9 C 88 % 1016,0 hPa 0,0 l/m 6,2 km/h (2 Bft) SW 221 2 min 0,000 mm 1,3 UV-I 384 W/m 18,8 C 20,9 C 9,7 km/h (2 Bft) 96,23 %
25.07.2016 08:30 21,0 C 87 % 1016,1 hPa 0,0 l/m 9,1 km/h (2 Bft) W-SW 247 2 min 0,000 mm 1,3 UV-I 381 W/m 18,7 C 20,0 C 12,9 km/h (3 Bft) 97,56 %
25.07.2016 08:32 21,1 C 87 % 1016,1 hPa 0,0 l/m 7,7 km/h (2 Bft) S-SW 208 2 min 0,000 mm 1,4 UV-I 380 W/m 18,8 C 20,6 C 12,9 km/h (3 Bft) 96,23 %
25.07.2016 08:34 21,1 C 87 % 1016,1 hPa 0,0 l/m 5,2 km/h (1 Bft) SW 232 2 min 0,000 mm 1,4 UV-I 383 W/m 18,8 C 21,1 C 8,0 km/h (2 Bft) 97,37 %
25.07.2016 08:36 21,2 C 86 % 1016,2 hPa 0,0 l/m 8,7 km/h (2 Bft) W-SW 258 2 min 0,000 mm 1,4 UV-I 384 W/m 18,8 C 20,4 C 11,3 km/h (2 Bft) 98,11 %
25.07.2016 08:38 21,2 C 86 % 1016,2 hPa 0,0 l/m 7,8 km/h (2 Bft) W 265 2 min 0,000 mm 1,5 UV-I 387 W/m 18,8 C 20,7 C 11,3 km/h (2 Bft) 97,56 %
25.07.2016 08:40 21,1 C 86 % 1016,2 hPa 0,0 l/m 5,2 km/h (1 Bft) SW 220 2 min 0,000 mm 1,5 UV-I 394 W/m 18,7 C 21,1 C 9,7 km/h (2 Bft) 98,11 %
25.07.2016 08:42 21,1 C 87 % 1016,2 hPa 0,0 l/m 7,4 km/h (2 Bft) S 176 2 min 0,000 mm 1,6 UV-I 404 W/m 18,8 C 20,7 C 11,3 km/h (2 Bft) 97,44 %
25.07.2016 08:44 21,0 C 86 % 1016,2 hPa 0,0 l/m 5,3 km/h (1 Bft) W-SW 246 2 min 0,000 mm 1,6 UV-I 408 W/m 18,6 C 21,0 C 9,7 km/h (2 Bft) 98,18 %
25.07.2016 08:46 21,1 C 85 % 1016,2 hPa 0,0 l/m 5,4 km/h (1 Bft) SW 233 2 min 0,000 mm 1,6 UV-I 411 W/m 18,5 C 21,1 C 11,3 km/h (2 Bft) 97,22 %
25.07.2016 08:48 21,2 C 86 % 1016,2 hPa 0,0 l/m 6,7 km/h (2 Bft) W-SW 249 2 min 0,000 mm 1,6 UV-I 385 W/m 18,8 C 21,1 C 11,3 km/h (2 Bft) 96,23 %
25.07.2016 08:50 21,3 C 86 % 1016,2 hPa 0,0 l/m 4,9 km/h (1 Bft) W 274 2 min 0,000 mm 1,6 UV-I 294 W/m 18,9 C 21,3 C 9,7 km/h (2 Bft) 93,62 %
25.07.2016 08:52 21,3 C 84 % 1016,1 hPa 0,0 l/m 4,9 km/h (1 Bft) W 269 2 min 0,000 mm 1,7 UV-I 288 W/m 18,5 C 21,3 C 9,7 km/h (2 Bft) 98,00 %
25.07.2016 08:54 21,4 C 84 % 1016,1 hPa 0,0 l/m 4,5 km/h (1 Bft) W-SW 253 2 min 0,000 mm 1,7 UV-I 360 W/m 18,6 C 21,4 C 11,3 km/h (2 Bft) 98,00 %
25.07.2016 08:56 21,4 C 84 % 1016,1 hPa 0,0 l/m 9,7 km/h (2 Bft) W 265 2 min 0,000 mm 1,8 UV-I 412 W/m 18,6 C 20,3 C 14,5 km/h (3 Bft) 94,29 %
25.07.2016 08:58 21,4 C 83 % 1016,1 hPa 0,0 l/m 5,9 km/h (2 Bft) W-NW 289 2 min 0,000 mm 1,9 UV-I 430 W/m 18,4 C 21,4 C 11,3 km/h (2 Bft) 98,11 %
25.07.2016 09:00 21,6 C 84 % 1016,1 hPa 0,0 l/m 2,8 km/h (1 Bft) W-SW 248 2 min 0,000 mm 1,9 UV-I 432 W/m 18,8 C 21,6 C 6,4 km/h (2 Bft) 100,00 %
25.07.2016 09:02 21,8 C 83 % 1016,0 hPa 0,0 l/m 8,2 km/h (2 Bft) SW 234 2 min 0,228 mm 2,0 UV-I 422 W/m 18,8 C 21,2 C 12,9 km/h (3 Bft) 98,46 %
25.07.2016 09:04 21,9 C 83 % 1016,0 hPa 0,0 l/m 6,5 km/h (2 Bft) W-SW 244 2 min 0,000 mm 2,0 UV-I 409 W/m 18,9 C 21,9 C 12,9 km/h (3 Bft) 96,00 %
25.07.2016 09:06 21,9 C 82 % 1016,0 hPa 0,0 l/m 8,0 km/h (2 Bft) S-SW 209 2 min 0,000 mm 2,0 UV-I 398 W/m 18,7 C 21,3 C 12,9 km/h (3 Bft) 100,00 %
25.07.2016 09:08 21,9 C 82 % 1015,9 hPa 0,0 l/m 5,1 km/h (1 Bft) N-NW 330 2 min 0,000 mm 2,1 UV-I 406 W/m 18,7 C 21,9 C 9,7 km/h (2 Bft) 100,00 %
25.07.2016 09:10 22,1 C 84 % 1015,9 hPa 0,0 l/m 2,9 km/h (1 Bft) W 261 2 min 0,000 mm 2,2 UV-I 411 W/m 19,3 C 22,1 C 4,8 km/h (1 Bft) 100,00 %
25.07.2016 09:12 22,3 C 82 % 1015,9 hPa 0,0 l/m 5,9 km/h (2 Bft) SW 214 2 min 0,000 mm 2,2 UV-I 417 W/m 19,1 C 22,3 C 11,3 km/h (2 Bft) 100,00 %
25.07.2016 09:14 22,4 C 82 % 1015,9 hPa 0,0 l/m 8,0 km/h (2 Bft) SW 228 2 min 0,000 mm 2,3 UV-I 416 W/m 19,2 C 21,9 C 14,5 km/h (3 Bft) 97,56 %
25.07.2016 09:16 22,4 C 80 % 1015,8 hPa 0,0 l/m 7,2 km/h (2 Bft) W-NW 282 2 min 0,000 mm 2,3 UV-I 417 W/m 18,8 C 22,1 C 11,3 km/h (2 Bft) 100,00 %
25.07.2016 09:18 22,4 C 79 % 1015,9 hPa 0,0 l/m 9,0 km/h (2 Bft) W-SW 242 2 min 0,000 mm 2,4 UV-I 427 W/m 18,6 C 21,6 C 12,9 km/h (3 Bft) 100,00 %
25.07.2016 09:20 22,3 C 80 % 1015,8 hPa 0,0 l/m 9,4 km/h (2 Bft) W-SW 246 2 min 0,000 mm 2,4 UV-I 432 W/m 18,7 C 21,3 C 14,5 km/h (3 Bft) 100,00 %
25.07.2016 09:22 22,4 C 82 % 1015,8 hPa 0,0 l/m 7,1 km/h (2 Bft) W-SW 252 2 min 0,000 mm 2,5 UV-I 450 W/m 19,2 C 22,2 C 12,9 km/h (3 Bft) 100,00 %
25.07.2016 09:24 22,6 C 81 % 1015,8 hPa 0,0 l/m 8,3 km/h (2 Bft) W-SW 251 2 min 0,000 mm 2,6 UV-I 470 W/m 19,2 C 22,0 C 16,1 km/h (3 Bft) 97,87 %
25.07.2016 09:26 22,6 C 79 % 1015,8 hPa 0,0 l/m 10,1 km/h (2 Bft) W 269 2 min 0,000 mm 2,7 UV-I 484 W/m 18,8 C 21,5 C 16,1 km/h (3 Bft) 100,00 %
25.07.2016 09:28 22,6 C 80 % 1015,8 hPa 0,0 l/m 5,4 km/h (1 Bft) W-SW 249 2 min 0,000 mm 2,7 UV-I 497 W/m 19,0 C 22,6 C 9,7 km/h (2 Bft) 100,00 %
25.07.2016 09:30 22,6 C 79 % 1015,8 hPa 0,0 l/m 6,0 km/h (2 Bft) W-NW 284 2 min 0,000 mm 2,8 UV-I 515 W/m 18,8 C 22,6 C 12,9 km/h (3 Bft) 100,00 %
25.07.2016 09:32 22,7 C 80 % 1015,8 hPa 0,0 l/m 9,3 km/h (2 Bft) W-SW 255 2 min 0,000 mm 2,8 UV-I 524 W/m 19,1 C 21,8 C 14,5 km/h (3 Bft) 100,00 %
25.07.2016 09:34 22,8 C 79 % 1015,8 hPa 0,0 l/m 11,7 km/h (2 Bft) SW 232 2 min 0,000 mm 2,9 UV-I 546 W/m 19,0 C 21,3 C 17,7 km/h (3 Bft) 100,00 %
25.07.2016 09:36 22,9 C 79 % 1015,8 hPa 0,0 l/m 11,1 km/h (2 Bft) SW 221 2 min 0,000 mm 2,9 UV-I 563 W/m 19,1 C 21,6 C 16,1 km/h (3 Bft) 100,00 %
25.07.2016 09:38 22,9 C 78 % 1015,7 hPa 0,0 l/m 11,6 km/h (2 Bft) W 279 2 min 0,000 mm 2,9 UV-I 590 W/m 18,9 C 21,5 C 16,1 km/h (3 Bft) 97,87 %
25.07.2016 09:40 22,9 C 78 % 1015,7 hPa 0,0 l/m 7,2 km/h (2 Bft) S-SW 192 2 min 0,000 mm 2,8 UV-I 605 W/m 18,9 C 22,6 C 12,9 km/h (3 Bft) 97,56 %
25.07.2016 09:42 22,8 C 79 % 1015,8 hPa 0,0 l/m 2,7 km/h (1 Bft) W 271 2 min 0,000 mm 2,9 UV-I 620 W/m 19,0 C 22,8 C 8,0 km/h (2 Bft) 100,00 %
25.07.2016 09:44 22,8 C 80 % 1015,8 hPa 0,0 l/m 6,7 km/h (2 Bft) W-SW 242 2 min 0,000 mm 3,0 UV-I 604 W/m 19,2 C 22,7 C 14,5 km/h (3 Bft) 97,37 %
25.07.2016 09:46 22,9 C 80 % 1015,8 hPa 0,0 l/m 9,9 km/h (2 Bft) W-NW 303 2 min 0,000 mm 3,1 UV-I 566 W/m 19,3 C 21,9 C 14,5 km/h (3 Bft) 100,00 %
25.07.2016 09:48 23,1 C 81 % 1015,8 hPa 0,0 l/m 8,9 km/h (2 Bft) W-SW 252 2 min 0,000 mm 2,8 UV-I 627 W/m 19,7 C 22,4 C 19,3 km/h (3 Bft) 100,00 %
25.07.2016 09:50 23,1 C 79 % 1015,8 hPa 0,0 l/m 6,4 km/h (2 Bft) SW 229 0 min 0,000 mm 2,7 UV-I 325 W/m 19,3 C 23,1 C 11,3 km/h (2 Bft) 100,00 %
25.07.2016 09:52 23,1 C 79 % 1015,8 hPa 0,0 l/m 7,8 km/h (2 Bft) SW 225 0 min 0,000 mm 2,6 UV-I 327 W/m 19,3 C 22,7 C 12,9 km/h (3 Bft) 100,00 %
25.07.2016 09:54 23,1 C 79 % 1015,8 hPa 0,0 l/m 6,9 km/h (2 Bft) W-SW 250 0 min 0,000 mm 2,8 UV-I 352 W/m 19,3 C 22,9 C 11,3 km/h (2 Bft) 100,00 %
25.07.2016 09:56 23,2 C 78 % 1015,8 hPa 0,0 l/m 3,4 km/h (1 Bft) N 11 0 min 0,000 mm 3,2 UV-I 352 W/m 19,1 C 23,2 C 6,4 km/h (2 Bft) 100,00 %
25.07.2016 09:58 23,4 C 78 % 1015,8 hPa 0,0 l/m 2,7 km/h (1 Bft) NW 324 2 min 0,000 mm 3,5 UV-I 512 W/m 19,3 C 23,4 C 6,4 km/h (2 Bft) 100,00 %
25.07.2016 10:00 23,6 C 76 % 1015,8 hPa 0,0 l/m 5,6 km/h (1 Bft) W-NW 292 2 min 0,305 mm 3,6 UV-I 746 W/m 19,1 C 23,6 C 11,3 km/h (2 Bft) 100,00 %
25.07.2016 10:02 23,8 C 75 % 1015,7 hPa 0,0 l/m 6,2 km/h (2 Bft) NW 304 2 min 0,000 mm 3,7 UV-I 760 W/m 19,1 C 23,8 C 14,5 km/h (3 Bft) 100,00 %
25.07.2016 10:04 23,9 C 75 % 1015,8 hPa 0,0 l/m 4,3 km/h (1 Bft) S 189 2 min 0,000 mm 3,6 UV-I 727 W/m 19,2 C 23,9 C 9,7 km/h (2 Bft) 97,44 %
25.07.2016 10:06 23,9 C 73 % 1015,8 hPa 0,0 l/m 9,5 km/h (2 Bft) W-SW 242 2 min 0,000 mm 3,7 UV-I 694 W/m 18,8 C 23,1 C 16,1 km/h (3 Bft) 100,00 %
25.07.2016 10:08 23,9 C 72 % 1015,9 hPa 0,0 l/m 4,5 km/h (1 Bft) SW 234 2 min 0,000 mm 3,7 UV-I 685 W/m 18,5 C 23,9 C 11,3 km/h (2 Bft) 100,00 %
25.07.2016 10:10 23,8 C 74 % 1015,9 hPa 0,0 l/m 7,3 km/h (2 Bft) S 175 2 min 0,000 mm 4,0 UV-I 706 W/m 18,9 C 23,5 C 17,7 km/h (3 Bft) 100,00 %
25.07.2016 10:12 23,8 C 73 % 1015,9 hPa 0,0 l/m 7,5 km/h (2 Bft) SW 229 2 min 0,000 mm 4,0 UV-I 711 W/m 18,7 C 23,5 C 14,5 km/h (3 Bft) 100,00 %
25.07.2016 10:14 23,6 C 74 % 1015,8 hPa 0,0 l/m 10,6 km/h (2 Bft) W 264 2 min 0,000 mm 4,1 UV-I 711 W/m 18,7 C 22,5 C 14,5 km/h (3 Bft) 100,00 %
25.07.2016 10:16 23,6 C 73 % 1015,8 hPa 0,0 l/m 4,9 km/h (1 Bft) W-NW 296 2 min 0,000 mm 4,1 UV-I 711 W/m 18,5 C 23,6 C 9,7 km/h (2 Bft) 100,00 %
25.07.2016 10:18 23,7 C 72 % 1015,8 hPa 0,0 l/m 5,4 km/h (1 Bft) S-SW 199 2 min 0,000 mm 4,2 UV-I 720 W/m 18,3 C 23,7 C 12,9 km/h (3 Bft) 100,00 %
25.07.2016 10:20 23,8 C 72 % 1015,9 hPa 0,0 l/m 5,7 km/h (1 Bft) W-SW 250 2 min 0,000 mm 4,3 UV-I 729 W/m 18,4 C 23,8 C 11,3 km/h (2 Bft) 100,00 %
25.07.2016 10:22 23,9 C 72 % 1015,9 hPa 0,0 l/m 5,7 km/h (1 Bft) SW 232 2 min 0,000 mm 4,3 UV-I 721 W/m 18,5 C 23,9 C 11,3 km/h (2 Bft) 98,00 %
25.07.2016 10:24 23,9 C 72 % 1015,9 hPa 0,0 l/m 8,9 km/h (2 Bft) W-SW 242 2 min 0,000 mm 4,4 UV-I 739 W/m 18,5 C 23,2 C 16,1 km/h (3 Bft) 97,87 %
25.07.2016 10:26 23,9 C 71 % 1015,8 hPa 0,0 l/m 7,7 km/h (2 Bft) W 277 2 min 0,000 mm 4,5 UV-I 749 W/m 18,3 C 23,5 C 14,5 km/h (3 Bft) 96,55 %
25.07.2016 10:28 24,1 C 72 % 1015,8 hPa 0,0 l/m 6,1 km/h (2 Bft) W-SW 247 2 min 0,000 mm 4,5 UV-I 747 W/m 18,7 C 24,1 C 9,7 km/h (2 Bft) 97,06 %
25.07.2016 10:30 24,1 C 72 % 1015,8 hPa 0,0 l/m 4,3 km/h (1 Bft) W-SW 252 2 min 0,000 mm 4,5 UV-I 737 W/m 18,7 C 24,1 C 8,0 km/h (2 Bft) 97,56 %
25.07.2016 10:32 24,2 C 72 % 1015,8 hPa 0,0 l/m 4,1 km/h (1 Bft) W-NW 298 2 min 0,000 mm 4,6 UV-I 738 W/m 18,8 C 24,2 C 9,7 km/h (2 Bft) 95,83 %
25.07.2016 10:34 24,3 C 71 % 1015,8 hPa 0,0 l/m 4,2 km/h (1 Bft) W 274 2 min 0,000 mm 4,6 UV-I 741 W/m 18,7 C 24,3 C 8,0 km/h (2 Bft) 95,52 %
25.07.2016 10:36 24,3 C 72 % 1015,8 hPa 0,0 l/m 4,2 km/h (1 Bft) NW 324 2 min 0,000 mm 4,6 UV-I 738 W/m 18,9 C 24,3 C 8,0 km/h (2 Bft) 96,00 %
25.07.2016 10:38 24,3 C 69 % 1015,9 hPa 0,0 l/m 5,0 km/h (1 Bft) SW 234 2 min 0,000 mm 4,7 UV-I 748 W/m 18,2 C 24,3 C 8,0 km/h (2 Bft) 98,00 %
25.07.2016 10:40 24,2 C 71 % 1015,9 hPa 0,0 l/m 7,6 km/h (2 Bft) W-SW 240 2 min 0,000 mm 4,7 UV-I 746 W/m 18,6 C 23,9 C 14,5 km/h (3 Bft) 97,62 %
25.07.2016 10:42 24,1 C 69 % 1015,9 hPa 0,0 l/m 8,8 km/h (2 Bft) W-SW 254 2 min 0,000 mm 4,8 UV-I 759 W/m 18,0 C 23,5 C 12,9 km/h (3 Bft) 98,08 %
25.07.2016 10:44 23,9 C 70 % 1015,9 hPa 0,0 l/m 8,6 km/h (2 Bft) W 267 2 min 0,000 mm 4,9 UV-I 765 W/m 18,1 C 23,3 C 12,9 km/h (3 Bft) 97,62 %
25.07.2016 10:46 23,9 C 73 % 1015,9 hPa 0,0 l/m 8,4 km/h (2 Bft) W-NW 302 2 min 0,000 mm 4,9 UV-I 778 W/m 18,8 C 23,3 C 14,5 km/h (3 Bft) 98,00 %
25.07.2016 10:48 24,1 C 73 % 1016,0 hPa 0,0 l/m 6,2 km/h (2 Bft) W 273 2 min 0,000 mm 5,0 UV-I 806 W/m 18,9 C 24,1 C 12,9 km/h (3 Bft) 97,56 %
25.07.2016 10:50 23,9 C 70 % 1016,0 hPa 0,0 l/m 6,6 km/h (2 Bft) W-NW 298 2 min 0,000 mm 4,7 UV-I 809 W/m 18,1 C 23,9 C 11,3 km/h (2 Bft) 94,00 %
25.07.2016 10:52 24,0 C 73 % 1016,0 hPa 0,0 l/m 4,1 km/h (1 Bft) W-SW 252 2 min 0,000 mm 4,4 UV-I 524 W/m 18,9 C 24,0 C 14,5 km/h (3 Bft) 97,87 %
25.07.2016 10:54 23,9 C 71 % 1016,1 hPa 0,0 l/m 7,2 km/h (2 Bft) W 259 2 min 0,000 mm 4,1 UV-I 508 W/m 18,3 C 23,7 C 12,9 km/h (3 Bft) 100,00 %
25.07.2016 10:56 23,7 C 73 % 1016,0 hPa 0,0 l/m 6,4 km/h (2 Bft) S 173 2 min 0,000 mm 4,1 UV-I 546 W/m 18,6 C 23,7 C 9,7 km/h (2 Bft) 100,00 %
25.07.2016 10:58 23,6 C 74 % 1016,0 hPa 0,0 l/m 4,6 km/h (1 Bft) W-SW 246 2 min 0,000 mm 3,8 UV-I 454 W/m 18,7 C 23,6 C 6,4 km/h (2 Bft) 100,00 %
25.07.2016 11:00 23,7 C 74 % 1016,0 hPa 0,0 l/m 4,9 km/h (1 Bft) W-SW 242 0 min 0,457 mm 3,5 UV-I 376 W/m 18,8 C 23,7 C 8,0 km/h (2 Bft) 96,15 %
25.07.2016 11:02 23,6 C 76 % 1016,0 hPa 0,0 l/m 6,2 km/h (2 Bft) N-NW 344 0 min 0,000 mm 3,6 UV-I 376 W/m 19,1 C 23,6 C 12,9 km/h (3 Bft) 100,00 %
25.07.2016 11:04 23,6 C 73 % 1016,0 hPa 0,0 l/m 7,1 km/h (2 Bft) W-SW 258 2 min 0,000 mm 4,1 UV-I 436 W/m 18,5 C 23,4 C 14,5 km/h (3 Bft) 100,00 %
25.07.2016 11:06 23,5 C 75 % 1016,0 hPa 0,0 l/m 10,0 km/h (2 Bft) W-SW 244 2 min 0,000 mm 3,8 UV-I 551 W/m 18,8 C 22,5 C 14,5 km/h (3 Bft) 100,00 %
25.07.2016 11:08 23,4 C 75 % 1016,0 hPa 0,0 l/m 7,9 km/h (2 Bft) S-SW 212 0 min 0,000 mm 3,6 UV-I 381 W/m 18,7 C 22,9 C 11,3 km/h (2 Bft) 100,00 %
25.07.2016 11:10 23,4 C 75 % 1016,0 hPa 0,0 l/m 7,2 km/h (2 Bft) W 261 0 min 0,000 mm 3,6 UV-I 377 W/m 18,7 C 23,2 C 12,9 km/h (3 Bft) 100,00 %
25.07.2016 11:12 23,4 C 75 % 1016,0 hPa 0,0 l/m 8,3 km/h (2 Bft) S-SW 205 0 min 0,000 mm 3,7 UV-I 399 W/m 18,7 C 22,8 C 12,9 km/h (3 Bft) 98,11 %
25.07.2016 11:14 23,4 C 76 % 1015,9 hPa 0,0 l/m 6,3 km/h (2 Bft) SW 226 2 min 0,000 mm 4,0 UV-I 471 W/m 18,9 C 23,4 C 12,9 km/h (3 Bft) 97,56 %
25.07.2016 11:16 23,5 C 77 % 1015,9 hPa 0,0 l/m 6,2 km/h (2 Bft) W-SW 238 2 min 0,000 mm 4,1 UV-I 505 W/m 19,2 C 23,5 C 9,7 km/h (2 Bft) 98,11 %
25.07.2016 11:18 23,5 C 74 % 1016,0 hPa 0,0 l/m 6,8 km/h (2 Bft) SW 220 2 min 0,000 mm 4,1 UV-I 480 W/m 18,6 C 23,4 C 11,3 km/h (2 Bft) 100,00 %
25.07.2016 11:20 23,4 C 76 % 1015,9 hPa 0,0 l/m 3,2 km/h (1 Bft) W-SW 238 2 min 0,000 mm 4,1 UV-I 487 W/m 18,9 C 23,4 C 4,8 km/h (1 Bft) 100,00 %
25.07.2016 11:22 23,6 C 77 % 1015,9 hPa 0,0 l/m 2,2 km/h (1 Bft) W-SW 238 2 min 0,000 mm 4,1 UV-I 509 W/m 19,3 C 23,6 C 3,2 km/h (1 Bft) 97,87 %
25.07.2016 11:24 23,7 C 76 % 1015,9 hPa 0,0 l/m 2,6 km/h (1 Bft) SW 221 2 min 0,000 mm 4,6 UV-I 563 W/m 19,2 C 23,7 C 4,8 km/h (1 Bft) 97,22 %
25.07.2016 11:26 23,9 C 75 % 1015,9 hPa 0,0 l/m 4,4 km/h (1 Bft) SW 236 2 min 0,000 mm 5,4 UV-I 547 W/m 19,2 C 23,9 C 6,4 km/h (2 Bft) 100,00 %
25.07.2016 11:28 24,1 C 75 % 1015,9 hPa 0,0 l/m 6,7 km/h (2 Bft) W 276 2 min 0,000 mm 4,4 UV-I 498 W/m 19,4 C 24,0 C 12,9 km/h (3 Bft) 100,00 %
25.07.2016 11:30 23,9 C 75 % 1015,9 hPa 0,0 l/m 3,8 km/h (1 Bft) S 180 0 min 0,000 mm 4,1 UV-I 442 W/m 19,2 C 23,9 C 6,4 km/h (2 Bft) 98,11 %
25.07.2016 11:32 23,8 C 76 % 1015,8 hPa 0,0 l/m 7,5 km/h (2 Bft) W-SW 252 0 min 0,000 mm 4,1 UV-I 431 W/m 19,3 C 23,5 C 12,9 km/h (3 Bft) 100,00 %
25.07.2016 11:34 23,8 C 75 % 1015,7 hPa 0,0 l/m 7,7 km/h (2 Bft) S-SW 211 2 min 0,000 mm 4,5 UV-I 482 W/m 19,1 C 23,4 C 14,5 km/h (3 Bft) 100,00 %
25.07.2016 11:36 23,9 C 76 % 1015,8 hPa 0,0 l/m 5,0 km/h (1 Bft) SW 229 2 min 0,000 mm 5,9 UV-I 478 W/m 19,4 C 23,9 C 12,9 km/h (3 Bft) 100,00 %
25.07.2016 11:38 24,1 C 75 % 1015,7 hPa 0,0 l/m 6,5 km/h (2 Bft) W-SW 242 2 min 0,000 mm 6,3 UV-I 926 W/m 19,4 C 24,1 C 11,3 km/h (2 Bft) 98,11 %
25.07.2016 11:40 24,3 C 75 % 1015,7 hPa 0,0 l/m 7,7 km/h (2 Bft) W 277 2 min 0,000 mm 6,5 UV-I 978 W/m 19,6 C 23,9 C 12,9 km/h (3 Bft) 100,00 %
25.07.2016 11:42 24,3 C 75 % 1015,7 hPa 0,0 l/m 4,2 km/h (1 Bft) W 261 2 min 0,000 mm 6,3 UV-I 942 W/m 19,6 C 24,3 C 11,3 km/h (2 Bft) 100,00 %
25.07.2016 11:44 24,5 C 73 % 1015,7 hPa 0,0 l/m 6,4 km/h (2 Bft) W 266 2 min 0,000 mm 5,6 UV-I 927 W/m 19,3 C 24,5 C 11,3 km/h (2 Bft) 98,11 %
25.07.2016 11:46 24,6 C 74 % 1015,7 hPa 0,0 l/m 4,3 km/h (1 Bft) N-NW 341 2 min 0,000 mm 5,8 UV-I 696 W/m 19,6 C 24,6 C 6,4 km/h (2 Bft) 100,00 %
25.07.2016 11:48 24,9 C 70 % 1015,7 hPa 0,0 l/m 3,9 km/h (1 Bft) N-NO 19 2 min 0,000 mm 6,1 UV-I 839 W/m 19,0 C 24,9 C 8,0 km/h (2 Bft) 97,87 %
25.07.2016 11:50 25,1 C 71 % 1015,6 hPa 0,0 l/m 2,3 km/h (1 Bft) NW 311 2 min 0,000 mm 5,6 UV-I 754 W/m 19,5 C 25,1 C 4,8 km/h (1 Bft) 100,00 %
25.07.2016 11:52 25,1 C 68 % 1015,6 hPa 0,0 l/m 8,2 km/h (2 Bft) W 261 2 min 0,000 mm 5,0 UV-I 630 W/m 18,8 C 24,7 C 12,9 km/h (3 Bft) 100,00 %
25.07.2016 11:54 24,9 C 69 % 1015,6 hPa 0,0 l/m 3,5 km/h (1 Bft) W-NW 284 2 min 0,000 mm 5,4 UV-I 565 W/m 18,8 C 24,9 C 8,0 km/h (2 Bft) 100,00 %
25.07.2016 11:56 25,1 C 69 % 1015,6 hPa 0,0 l/m 3,4 km/h (1 Bft) W-NW 294 2 min 0,000 mm 6,1 UV-I 789 W/m 19,0 C 25,1 C 6,4 km/h (2 Bft) 98,11 %
25.07.2016 11:58 25,2 C 68 % 1015,5 hPa 0,0 l/m 5,3 km/h (1 Bft) SW 232 2 min 0,000 mm 6,5 UV-I 862 W/m 18,9 C 25,2 C 8,0 km/h (2 Bft) 97,44 %
25.07.2016 12:00 25,3 C 69 % 1015,5 hPa 0,0 l/m 3,4 km/h (1 Bft) SW 236 2 min 0,407 mm 6,4 UV-I 863 W/m 19,2 C 25,3 C 6,4 km/h (2 Bft) 100,00 %
25.07.2016 12:02 25,3 C 67 % 1015,4 hPa 0,0 l/m 5,9 km/h (2 Bft) W 265 2 min 0,000 mm 5,9 UV-I 837 W/m 18,7 C 25,3 C 11,3 km/h (2 Bft) 97,87 %
25.07.2016 12:04 25,2 C 68 % 1015,4 hPa 0,0 l/m 5,3 km/h (1 Bft) N-NW 329 2 min 0,000 mm 6,0 UV-I 724 W/m 18,9 C 25,2 C 11,3 km/h (2 Bft) 97,87 %
25.07.2016 12:06 25,3 C 69 % 1015,4 hPa 0,0 l/m 2,5 km/h (1 Bft) W 281 2 min 0,000 mm 6,5 UV-I 827 W/m 19,2 C 25,3 C 6,4 km/h (2 Bft) 100,00 %
25.07.2016 12:08 25,6 C 68 % 1015,4 hPa 0,0 l/m 2,7 km/h (1 Bft) W-SW 250 2 min 0,000 mm 6,6 UV-I 860 W/m 19,2 C 25,6 C 4,8 km/h (1 Bft) 98,00 %
25.07.2016 12:10 25,8 C 69 % 1015,4 hPa 0,0 l/m 4,7 km/h (1 Bft) W-SW 250 2 min 0,000 mm 6,7 UV-I 883 W/m 19,7 C 25,8 C 9,7 km/h (2 Bft) 97,87 %
25.07.2016 12:12 26,0 C 67 % 1015,4 hPa 0,0 l/m 3,9 km/h (1 Bft) N-NW 346 2 min 0,000 mm 6,8 UV-I 900 W/m 19,4 C 26,0 C 8,0 km/h (2 Bft) 100,00 %
25.07.2016 12:14 26,2 C 68 % 1015,3 hPa 0,0 l/m 3,4 km/h (1 Bft) W-NW 288 2 min 0,000 mm 6,8 UV-I 918 W/m 19,8 C 26,2 C 9,7 km/h (2 Bft) 100,00 %
25.07.2016 12:16 26,1 C 62 % 1015,4 hPa 0,0 l/m 3,3 km/h (1 Bft) NW 313 2 min 0,000 mm 4,5 UV-I 737 W/m 18,2 C 26,1 C 8,0 km/h (2 Bft) 96,23 %
25.07.2016 12:18 26,1 C 66 % 1015,3 hPa 0,0 l/m 3,5 km/h (1 Bft) W-SW 239 2 min 0,000 mm 6,0 UV-I 509 W/m 19,2 C 26,1 C 9,7 km/h (2 Bft) 97,37 %
25.07.2016 12:20 26,1 C 65 % 1015,3 hPa 0,0 l/m 6,7 km/h (2 Bft) W 263 2 min 0,000 mm 6,8 UV-I 885 W/m 19,0 C 26,0 C 11,3 km/h (2 Bft) 98,04 %
25.07.2016 12:22 26,2 C 66 % 1015,3 hPa 0,0 l/m 5,1 km/h (1 Bft) W-SW 246 2 min 0,000 mm 6,8 UV-I 886 W/m 19,3 C 26,2 C 11,3 km/h (2 Bft) 98,04 %
25.07.2016 12:24 26,1 C 67 % 1015,3 hPa 0,0 l/m 3,2 km/h (1 Bft) W-SW 245 2 min 0,000 mm 6,9 UV-I 893 W/m 19,5 C 26,1 C 6,4 km/h (2 Bft) 98,00 %
25.07.2016 12:26 26,2 C 65 % 1015,4 hPa 0,0 l/m 5,3 km/h (1 Bft) W 263 2 min 0,000 mm 6,4 UV-I 911 W/m 19,1 C 26,2 C 11,3 km/h (2 Bft) 96,55 %
25.07.2016 12:28 26,1 C 65 % 1015,3 hPa 0,0 l/m 11,4 km/h (2 Bft) W-SW 256 2 min 0,000 mm 5,7 UV-I 923 W/m 19,0 C 25,1 C 19,3 km/h (3 Bft) 98,11 %
25.07.2016 12:30 26,2 C 63 % 1015,3 hPa 0,0 l/m 10,0 km/h (2 Bft) S-SW 201 2 min 0,000 mm 7,0 UV-I 928 W/m 18,6 C 25,5 C 14,5 km/h (3 Bft) 97,62 %
25.07.2016 12:32 26,3 C 65 % 1015,2 hPa 0,0 l/m 9,0 km/h (2 Bft) SW 228 2 min 0,000 mm 7,0 UV-I 924 W/m 19,2 C 25,8 C 16,1 km/h (3 Bft) 96,36 %
25.07.2016 12:34 26,3 C 63 % 1015,2 hPa 0,0 l/m 9,9 km/h (2 Bft) NW 304 2 min 0,000 mm 7,0 UV-I 917 W/m 18,7 C 25,6 C 16,1 km/h (3 Bft) 95,74 %
25.07.2016 12:36 26,2 C 64 % 1015,1 hPa 0,0 l/m 5,2 km/h (1 Bft) W-NW 294 2 min 0,000 mm 7,0 UV-I 919 W/m 18,8 C 26,2 C 11,3 km/h (2 Bft) 98,11 %
25.07.2016 12:38 26,2 C 64 % 1015,0 hPa 0,0 l/m 9,8 km/h (2 Bft) W-SW 257 2 min 0,000 mm 7,0 UV-I 929 W/m 18,8 C 25,5 C 14,5 km/h (3 Bft) 97,62 %
25.07.2016 12:40 26,3 C 63 % 1015,0 hPa 0,0 l/m 9,5 km/h (2 Bft) W-SW 254 2 min 0,000 mm 7,0 UV-I 936 W/m 18,7 C 25,7 C 16,1 km/h (3 Bft) 97,73 %
25.07.2016 12:42 26,4 C 65 % 1014,9 hPa 0,0 l/m 8,3 km/h (2 Bft) SW 219 2 min 0,000 mm 6,9 UV-I 932 W/m 19,3 C 26,0 C 12,9 km/h (3 Bft) 96,23 %
25.07.2016 12:44 26,3 C 66 % 1015,0 hPa 0,0 l/m 7,1 km/h (2 Bft) SW 225 2 min 0,000 mm 5,1 UV-I 828 W/m 19,4 C 26,2 C 12,9 km/h (3 Bft) 97,56 %
25.07.2016 12:46 26,2 C 65 % 1014,9 hPa 0,0 l/m 6,9 km/h (2 Bft) S-SW 200 0 min 0,000 mm 3,7 UV-I 276 W/m 19,1 C 26,1 C 11,3 km/h (2 Bft) 96,23 %
25.07.2016 12:48 25,9 C 66 % 1014,9 hPa 0,0 l/m 8,4 km/h (2 Bft) W 265 0 min 0,000 mm 4,0 UV-I 284 W/m 19,0 C 25,5 C 19,3 km/h (3 Bft) 96,00 %
25.07.2016 12:50 26,1 C 66 % 1014,9 hPa 0,0 l/m 5,2 km/h (1 Bft) S-SW 198 0 min 0,000 mm 5,9 UV-I 308 W/m 19,2 C 26,1 C 8,0 km/h (2 Bft) 100,00 %
25.07.2016 12:52 26,1 C 66 % 1014,9 hPa 0,0 l/m 5,5 km/h (1 Bft) S-SW 206 2 min 0,000 mm 6,0 UV-I 575 W/m 19,2 C 26,1 C 16,1 km/h (3 Bft) 100,00 %
25.07.2016 12:54 26,2 C 65 % 1014,9 hPa 0,0 l/m 6,3 km/h (2 Bft) S-SW 196 2 min 0,000 mm 6,9 UV-I 866 W/m 19,1 C 26,2 C 9,7 km/h (2 Bft) 100,00 %
25.07.2016 12:56 26,4 C 66 % 1014,9 hPa 0,0 l/m 7,0 km/h (2 Bft) W-SW 248 2 min 0,000 mm 7,0 UV-I 883 W/m 19,5 C 26,3 C 11,3 km/h (2 Bft) 94,00 %
25.07.2016 12:58 26,5 C 63 % 1014,8 hPa 0,0 l/m 4,3 km/h (1 Bft) W-SW 242 2 min 0,000 mm 7,0 UV-I 867 W/m 18,9 C 26,5 C 12,9 km/h (3 Bft) 98,11 %
25.07.2016 13:00 26,4 C 64 % 1014,8 hPa 0,0 l/m 5,6 km/h (1 Bft) W-SW 250 2 min 0,533 mm 7,0 UV-I 875 W/m 19,0 C 26,4 C 12,9 km/h (3 Bft) 100,00 %
25.07.2016 13:02 26,6 C 63 % 1014,8 hPa 0,0 l/m 9,4 km/h (2 Bft) W-SW 245 2 min 0,000 mm 7,2 UV-I 905 W/m 19,0 C 26,0 C 16,1 km/h (3 Bft) 100,00 %
25.07.2016 13:04 26,6 C 61 % 1014,8 hPa 0,0 l/m 10,9 km/h (2 Bft) W 270 2 min 0,000 mm 7,2 UV-I 919 W/m 18,4 C 25,8 C 16,1 km/h (3 Bft) 100,00 %
25.07.2016 13:06 26,6 C 63 % 1014,8 hPa 0,0 l/m 10,0 km/h (2 Bft) W-SW 238 2 min 0,000 mm 7,1 UV-I 899 W/m 19,0 C 25,9 C 16,1 km/h (3 Bft) 100,00 %
25.07.2016 13:08 26,7 C 62 % 1014,8 hPa 0,0 l/m 11,8 km/h (2 Bft) W-SW 250 2 min 0,000 mm 7,0 UV-I 880 W/m 18,8 C 25,8 C 17,7 km/h (3 Bft) 94,74 %
25.07.2016 13:10 26,7 C 60 % 1014,8 hPa 0,0 l/m 9,3 km/h (2 Bft) W-SW 252 2 min 0,000 mm 7,0 UV-I 871 W/m 18,3 C 26,2 C 16,1 km/h (3 Bft) 100,00 %
25.07.2016 13:12 26,7 C 62 % 1014,8 hPa 0,0 l/m 3,3 km/h (1 Bft) S-SW 209 2 min 0,000 mm 7,0 UV-I 865 W/m 18,8 C 26,7 C 8,0 km/h (2 Bft) 96,00 %
25.07.2016 13:14 26,7 C 64 % 1014,8 hPa 0,0 l/m 5,3 km/h (1 Bft) W-SW 250 2 min 0,000 mm 6,9 UV-I 865 W/m 19,3 C 26,7 C 9,7 km/h (2 Bft) 100,00 %
25.07.2016 13:16 26,7 C 62 % 1014,8 hPa 0,0 l/m 11,4 km/h (2 Bft) W-SW 253 2 min 0,000 mm 7,0 UV-I 883 W/m 18,8 C 25,8 C 16,1 km/h (3 Bft) 98,51 %
25.07.2016 13:18 26,6 C 61 % 1014,8 hPa 0,0 l/m 10,1 km/h (2 Bft) W 263 2 min 0,000 mm 7,0 UV-I 880 W/m 18,4 C 25,9 C 16,1 km/h (3 Bft) 97,87 %
25.07.2016 13:20 26,8 C 63 % 1014,8 hPa 0,0 l/m 6,4 km/h (2 Bft) W 265 2 min 0,000 mm 7,0 UV-I 873 W/m 19,1 C 26,8 C 14,5 km/h (3 Bft) 100,00 %
25.07.2016 13:22 26,9 C 59 % 1014,8 hPa 0,0 l/m 10,6 km/h (2 Bft) W-SW 258 2 min 0,000 mm 7,0 UV-I 871 W/m 18,2 C 26,2 C 16,1 km/h (3 Bft) 100,00 %
25.07.2016 13:24 26,9 C 59 % 1014,9 hPa 0,0 l/m 13,0 km/h (3 Bft) W-SW 248 2 min 0,000 mm 7,0 UV-I 876 W/m 18,2 C 25,8 C 17,7 km/h (3 Bft) 97,56 %
25.07.2016 13:26 26,8 C 58 % 1014,8 hPa 0,0 l/m 10,6 km/h (2 Bft) S 171 2 min 0,000 mm 7,0 UV-I 880 W/m 17,8 C 26,1 C 17,7 km/h (3 Bft) 100,00 %
25.07.2016 13:28 26,7 C 58 % 1014,9 hPa 0,0 l/m 7,8 km/h (2 Bft) S-SW 195 2 min 0,000 mm 7,1 UV-I 895 W/m 17,7 C 26,4 C 11,3 km/h (2 Bft) 100,00 %
25.07.2016 13:30 26,8 C 60 % 1014,9 hPa 0,0 l/m 8,7 km/h (2 Bft) W-SW 253 2 min 0,000 mm 7,1 UV-I 903 W/m 18,4 C 26,4 C 11,3 km/h (2 Bft) 100,00 %
25.07.2016 13:32 26,8 C 59 % 1014,9 hPa 0,0 l/m 6,3 km/h (2 Bft) S-SW 211 2 min 0,000 mm 7,2 UV-I 929 W/m 18,1 C 26,8 C 11,3 km/h (2 Bft) 100,00 %
25.07.2016 13:34 26,8 C 58 % 1014,8 hPa 0,0 l/m 6,4 km/h (2 Bft) NW 306 2 min 0,000 mm 6,7 UV-I 822 W/m 17,8 C 26,8 C 11,3 km/h (2 Bft) 100,00 %
25.07.2016 13:36 26,8 C 57 % 1014,8 hPa 0,0 l/m 4,0 km/h (1 Bft) SW 227 2 min 0,000 mm 5,9 UV-I 725 W/m 17,6 C 26,8 C 8,0 km/h (2 Bft) 100,00 %
25.07.2016 13:38 26,8 C 61 % 1014,8 hPa 0,0 l/m 8,4 km/h (2 Bft) SW 222 2 min 0,000 mm 6,2 UV-I 612 W/m 18,6 C 26,4 C 12,9 km/h (3 Bft) 97,73 %
25.07.2016 13:40 27,1 C 63 % 1014,8 hPa 0,0 l/m 8,8 km/h (2 Bft) SW 236 2 min 0,000 mm 7,2 UV-I 836 W/m 19,4 C 26,7 C 14,5 km/h (3 Bft) 100,00 %
25.07.2016 13:42 27,4 C 59 % 1014,8 hPa 0,0 l/m 6,9 km/h (2 Bft) NW 309 2 min 0,000 mm 7,5 UV-I 1042 W/m 18,7 C 27,3 C 11,3 km/h (2 Bft) 100,00 %
25.07.2016 13:44 27,4 C 57 % 1014,7 hPa 0,0 l/m 8,3 km/h (2 Bft) W-SW 240 2 min 0,000 mm 6,4 UV-I 963 W/m 18,1 C 27,1 C 12,9 km/h (3 Bft) 100,00 %
25.07.2016 13:46 27,5 C 57 % 1014,8 hPa 0,0 l/m 7,9 km/h (2 Bft) W-NW 286 2 min 0,000 mm 6,1 UV-I 755 W/m 18,2 C 27,2 C 11,3 km/h (2 Bft) 100,00 %
25.07.2016 13:48 27,3 C 57 % 1014,7 hPa 0,0 l/m 5,4 km/h (1 Bft) W 276 2 min 0,000 mm 5,9 UV-I 724 W/m 18,0 C 27,3 C 12,9 km/h (3 Bft) 100,00 %
25.07.2016 13:50 27,2 C 56 % 1014,7 hPa 0,0 l/m 8,0 km/h (2 Bft) W-SW 254 2 min 0,000 mm 6,5 UV-I 831 W/m 17,6 C 26,9 C 14,5 km/h (3 Bft) 100,00 %
25.07.2016 13:52 27,1 C 56 % 1014,6 hPa 0,0 l/m 9,9 km/h (2 Bft) W-SW 253 2 min 0,000 mm 6,0 UV-I 974 W/m 17,5 C 26,5 C 16,1 km/h (3 Bft) 100,00 %
25.07.2016 13:54 26,9 C 55 % 1014,6 hPa 0,0 l/m 9,3 km/h (2 Bft) W-SW 251 2 min 0,000 mm 4,2 UV-I 589 W/m 17,1 C 26,4 C 14,5 km/h (3 Bft) 100,00 %
25.07.2016 13:56 26,9 C 61 % 1014,6 hPa 0,0 l/m 5,2 km/h (1 Bft) W 264 0 min 0,000 mm 6,8 UV-I 397 W/m 18,7 C 26,9 C 12,9 km/h (3 Bft) 100,00 %
25.07.2016 13:58 27,0 C 56 % 1014,5 hPa 0,0 l/m 7,5 km/h (2 Bft) SW 225 2 min 0,000 mm 7,0 UV-I 972 W/m 17,5 C 26,8 C 14,5 km/h (3 Bft) 100,00 %
25.07.2016 14:00 27,1 C 55 % 1014,5 hPa 0,0 l/m 7,0 km/h (2 Bft) S-SO 160 2 min 0,000 mm 7,0 UV-I 993 W/m 17,3 C 27,0 C 14,5 km/h (3 Bft) 100,00 %
25.07.2016 14:02 27,1 C 57 % 1014,5 hPa 0,0 l/m 2,1 km/h (1 Bft) SW 215 2 min 0,610 mm 6,8 UV-I 1001 W/m 17,8 C 27,1 C 6,4 km/h (2 Bft) 97,87 %
25.07.2016 14:04 27,3 C 57 % 1014,4 hPa 0,0 l/m 9,3 km/h (2 Bft) W-SW 250 2 min 0,000 mm 6,9 UV-I 955 W/m 18,0 C 26,8 C 16,1 km/h (3 Bft) 100,00 %
25.07.2016 14:06 27,3 C 57 % 1014,4 hPa 0,0 l/m 11,3 km/h (2 Bft) W-SW 247 2 min 0,000 mm 6,9 UV-I 970 W/m 18,0 C 26,5 C 16,1 km/h (3 Bft) 100,00 %
25.07.2016 14:08 27,4 C 58 % 1014,4 hPa 0,0 l/m 10,2 km/h (2 Bft) W-SW 253 2 min 0,000 mm 6,9 UV-I 988 W/m 18,4 C 26,8 C 17,7 km/h (3 Bft) 100,00 %
25.07.2016 14:10 27,6 C 57 % 1014,4 hPa 0,0 l/m 8,3 km/h (2 Bft) SW 232 2 min 0,000 mm 5,7 UV-I 1023 W/m 18,3 C 27,3 C 16,1 km/h (3 Bft) 100,00 %
25.07.2016 14:12 27,4 C 60 % 1014,4 hPa 0,0 l/m 5,9 km/h (2 Bft) SW 229 2 min 0,000 mm 6,0 UV-I 1027 W/m 18,9 C 27,4 C 8,0 km/h (2 Bft) 100,00 %
25.07.2016 14:14 27,4 C 58 % 1014,4 hPa 0,0 l/m 7,5 km/h (2 Bft) W-SW 251 2 min 0,000 mm 4,0 UV-I 515 W/m 18,4 C 27,2 C 14,5 km/h (3 Bft) 97,37 %
25.07.2016 14:16 27,2 C 59 % 1014,5 hPa 0,0 l/m 10,7 km/h (2 Bft) W-SW 252 0 min 0,000 mm 3,9 UV-I 371 W/m 18,5 C 26,5 C 16,1 km/h (3 Bft) 98,39 %
25.07.2016 14:18 27,1 C 59 % 1014,5 hPa 0,0 l/m 4,5 km/h (1 Bft) W-SW 256 0 min 0,000 mm 3,8 UV-I 376 W/m 18,4 C 27,1 C 8,0 km/h (2 Bft) 97,56 %
25.07.2016 14:20 26,9 C 60 % 1014,5 hPa 0,0 l/m 2,6 km/h (1 Bft) W-SW 245 0 min 0,000 mm 3,6 UV-I 375 W/m 18,5 C 26,9 C 4,8 km/h (1 Bft) 97,87 %
25.07.2016 14:22 26,8 C 58 % 1014,6 hPa 0,0 l/m 4,5 km/h (1 Bft) W 264 0 min 0,000 mm 3,3 UV-I 358 W/m 17,8 C 26,8 C 12,9 km/h (3 Bft) 97,87 %
25.07.2016 14:24 26,8 C 60 % 1014,5 hPa 0,0 l/m 6,6 km/h (2 Bft) S-SW 211 0 min 0,000 mm 3,2 UV-I 362 W/m 18,4 C 26,8 C 11,3 km/h (2 Bft) 98,11 %
25.07.2016 14:26 26,8 C 57 % 1014,6 hPa 0,0 l/m 5,1 km/h (1 Bft) W-SW 239 0 min 0,000 mm 3,1 UV-I 327 W/m 17,6 C 26,8 C 12,9 km/h (3 Bft) 97,37 %
25.07.2016 14:28 26,8 C 60 % 1014,6 hPa 0,0 l/m 4,1 km/h (1 Bft) W-SW 255 0 min 0,000 mm 2,9 UV-I 311 W/m 18,4 C 26,8 C 6,4 km/h (2 Bft) 98,00 %
25.07.2016 14:30 26,7 C 59 % 1014,5 hPa 0,0 l/m 6,7 km/h (2 Bft) SW 222 0 min 0,000 mm 2,7 UV-I 293 W/m 18,0 C 26,6 C 9,7 km/h (2 Bft) 98,00 %
25.07.2016 14:32 26,7 C 59 % 1014,5 hPa 0,0 l/m 5,0 km/h (1 Bft) W-SW 257 0 min 0,000 mm 2,7 UV-I 295 W/m 18,0 C 26,7 C 9,7 km/h (2 Bft) 97,87 %
25.07.2016 14:34 26,7 C 62 % 1014,5 hPa 0,0 l/m 4,6 km/h (1 Bft) W-SW 248 0 min 0,000 mm 2,9 UV-I 307 W/m 18,8 C 26,7 C 6,4 km/h (2 Bft) 95,74 %
25.07.2016 14:36 26,7 C 61 % 1014,5 hPa 0,0 l/m 6,5 km/h (2 Bft) W 275 0 min 0,000 mm 2,9 UV-I 297 W/m 18,5 C 26,7 C 11,3 km/h (2 Bft) 97,44 %
25.07.2016 14:38 26,6 C 59 % 1014,4 hPa 0,0 l/m 2,9 km/h (1 Bft) W-NW 295 0 min 0,000 mm 2,9 UV-I 282 W/m 17,9 C 26,6 C 4,8 km/h (1 Bft) 98,21 %
25.07.2016 14:40 26,6 C 61 % 1014,5 hPa 0,0 l/m 3,7 km/h (1 Bft) W-SW 248 0 min 0,000 mm 2,9 UV-I 280 W/m 18,4 C 26,6 C 9,7 km/h (2 Bft) 95,45 %
25.07.2016 14:42 26,6 C 61 % 1014,5 hPa 0,0 l/m 6,9 km/h (2 Bft) W-SW 249 0 min 0,000 mm 3,0 UV-I 298 W/m 18,4 C 26,5 C 14,5 km/h (3 Bft) 96,23 %
25.07.2016 14:44 26,6 C 60 % 1014,5 hPa 0,0 l/m 4,4 km/h (1 Bft) W-NW 295 0 min 0,000 mm 3,1 UV-I 311 W/m 18,2 C 26,6 C 6,4 km/h (2 Bft) 97,56 %
25.07.2016 14:46 26,6 C 59 % 1014,5 hPa 0,0 l/m 4,0 km/h (1 Bft) W 279 0 min 0,000 mm 3,3 UV-I 332 W/m 17,9 C 26,6 C 8,0 km/h (2 Bft) 97,87 %
25.07.2016 14:48 26,7 C 59 % 1014,5 hPa 0,0 l/m 4,9 km/h (1 Bft) W-SW 255 0 min 0,000 mm 5,5 UV-I 343 W/m 18,0 C 26,7 C 9,7 km/h (2 Bft) 95,74 %
25.07.2016 14:50 27,0 C 57 % 1014,5 hPa 0,0 l/m 8,2 km/h (2 Bft) W-SW 254 0 min 0,000 mm 5,4 UV-I 343 W/m 17,7 C 26,7 C 11,3 km/h (2 Bft) 100,00 %
25.07.2016 14:52 27,2 C 58 % 1014,5 hPa 0,0 l/m 4,5 km/h (1 Bft) W-SW 238 0 min 0,000 mm 5,6 UV-I 408 W/m 18,2 C 27,2 C 8,0 km/h (2 Bft) 96,23 %
25.07.2016 14:54 27,4 C 57 % 1014,4 hPa 0,0 l/m 3,8 km/h (1 Bft) W-NW 296 2 min 0,000 mm 5,8 UV-I 956 W/m 18,1 C 27,4 C 6,4 km/h (2 Bft) 100,00 %
25.07.2016 14:56 27,6 C 58 % 1014,4 hPa 0,0 l/m 5,4 km/h (1 Bft) W 265 2 min 0,000 mm 4,8 UV-I 871 W/m 18,6 C 27,6 C 11,3 km/h (2 Bft) 100,00 %
25.07.2016 14:58 27,6 C 57 % 1014,4 hPa 0,0 l/m 9,1 km/h (2 Bft) SW 227 0 min 0,000 mm 3,1 UV-I 394 W/m 18,3 C 27,2 C 16,1 km/h (3 Bft) 100,00 %
25.07.2016 15:00 27,3 C 57 % 1014,4 hPa 0,0 l/m 10,8 km/h (2 Bft) W-SW 252 0 min 0,381 mm 2,0 UV-I 194 W/m 18,0 C 26,6 C 16,1 km/h (3 Bft) 100,00 %
25.07.2016 15:02 26,9 C 59 % 1014,4 hPa 0,0 l/m 9,5 km/h (2 Bft) W 271 0 min 0,000 mm 1,4 UV-I 137 W/m 18,2 C 26,3 C 14,5 km/h (3 Bft) 98,15 %
25.07.2016 15:04 26,8 C 61 % 1014,4 hPa 0,0 l/m 2,9 km/h (1 Bft) NW 325 0 min 0,000 mm 0,9 UV-I 96 W/m 18,6 C 26,8 C 8,0 km/h (2 Bft) 100,00 %
25.07.2016 15:06 26,6 C 62 % 1014,4 hPa 0,0 l/m 6,8 km/h (2 Bft) W-SW 244 0 min 0,000 mm 0,6 UV-I 74 W/m 18,7 C 26,5 C 16,1 km/h (3 Bft) 100,00 %
25.07.2016 15:08 26,4 C 64 % 1014,5 hPa 0,0 l/m 4,9 km/h (1 Bft) N-NW 331 0 min 0,000 mm 0,5 UV-I 62 W/m 19,0 C 26,4 C 14,5 km/h (3 Bft) 94,87 %
25.07.2016 15:10 26,2 C 65 % 1014,6 hPa 0,0 l/m 4,2 km/h (1 Bft) W-NW 294 0 min 0,000 mm 0,3 UV-I 59 W/m 19,1 C 26,2 C 12,9 km/h (3 Bft) 100,00 %
25.07.2016 15:12 25,8 C 65 % 1014,6 hPa 0,0 l/m 3,1 km/h (1 Bft) W-NW 290 0 min 0,000 mm 0,2 UV-I 56 W/m 18,7 C 25,8 C 9,7 km/h (2 Bft) 100,00 %
25.07.2016 15:14 25,6 C 67 % 1014,7 hPa 0,0 l/m 6,4 km/h (2 Bft) W 273 0 min 0,000 mm 0,0 UV-I 51 W/m 19,0 C 25,6 C 12,9 km/h (3 Bft) 100,00 %
25.07.2016 15:16 25,2 C 69 % 1014,9 hPa 0,0 l/m 7,1 km/h (2 Bft) SW 234 0 min 0,000 mm 0,0 UV-I 46 W/m 19,1 C 25,0 C 11,3 km/h (2 Bft) 97,62 %
25.07.2016 15:18 24,8 C 69 % 1015,0 hPa 0,2 l/m 4,4 km/h (1 Bft) SW 229 0 min 0,000 mm 0,0 UV-I 43 W/m 18,7 C 24,8 C 9,7 km/h (2 Bft) 100,00 %
25.07.2016 15:20 24,4 C 74 % 1015,0 hPa 0,0 l/m 15,0 km/h (3 Bft) W-SW 250 0 min 0,000 mm 0,0 UV-I 40 W/m 19,5 C 22,6 C 22,5 km/h (4 Bft) 98,21 %
25.07.2016 15:22 23,9 C 74 % 1015,1 hPa 0,2 l/m 13,6 km/h (3 Bft) S-SO 166 0 min 0,000 mm 0,0 UV-I 36 W/m 19,0 C 22,2 C 19,3 km/h (3 Bft) 97,56 %
25.07.2016 15:24 23,3 C 79 % 1015,2 hPa 0,0 l/m 11,6 km/h (2 Bft) S 179 0 min 0,000 mm 0,0 UV-I 38 W/m 19,4 C 21,9 C 24,1 km/h (4 Bft) 100,00 %
25.07.2016 15:26 22,7 C 80 % 1015,0 hPa 0,0 l/m 15,9 km/h (3 Bft) S 184 0 min 0,000 mm 0,0 UV-I 48 W/m 19,1 C 20,4 C 27,4 km/h (4 Bft) 100,00 %
25.07.2016 15:28 22,2 C 81 % 1015,0 hPa 0,0 l/m 16,2 km/h (3 Bft) S-SO 165 0 min 0,000 mm 0,3 UV-I 61 W/m 18,8 C 19,7 C 22,5 km/h (4 Bft) 100,00 %
25.07.2016 15:30 21,8 C 80 % 1014,8 hPa 0,0 l/m 14,8 km/h (3 Bft) S 184 0 min 0,000 mm 0,6 UV-I 79 W/m 18,2 C 19,5 C 27,4 km/h (4 Bft) 100,00 %
25.07.2016 15:32 21,6 C 81 % 1014,9 hPa 0,0 l/m 13,9 km/h (3 Bft) SO 142 0 min 0,000 mm 0,7 UV-I 98 W/m 18,2 C 19,4 C 25,7 km/h (4 Bft) 100,00 %
25.07.2016 15:34 21,4 C 81 % 1014,8 hPa 0,0 l/m 12,0 km/h (2 Bft) SO 139 0 min 0,000 mm 0,7 UV-I 105 W/m 18,0 C 19,6 C 24,1 km/h (4 Bft) 100,00 %
25.07.2016 15:36 21,2 C 83 % 1014,8 hPa 0,0 l/m 7,2 km/h (2 Bft) SO 139 0 min 0,000 mm 0,7 UV-I 106 W/m 18,2 C 20,9 C 12,9 km/h (3 Bft) 100,00 %
25.07.2016 15:38 21,1 C 84 % 1014,9 hPa 0,0 l/m 9,7 km/h (2 Bft) S-SO 153 0 min 0,000 mm 0,7 UV-I 122 W/m 18,3 C 19,9 C 16,1 km/h (3 Bft) 100,00 %
25.07.2016 15:40 21,1 C 85 % 1014,9 hPa 0,0 l/m 8,3 km/h (2 Bft) S 174 0 min 0,000 mm 0,9 UV-I 177 W/m 18,5 C 20,4 C 12,9 km/h (3 Bft) 97,37 %
25.07.2016 15:42 21,2 C 84 % 1014,9 hPa 0,0 l/m 7,0 km/h (2 Bft) S-SO 164 0 min 0,000 mm 1,0 UV-I 201 W/m 18,4 C 21,0 C 14,5 km/h (3 Bft) 100,00 %
25.07.2016 15:44 21,4 C 84 % 1014,9 hPa 0,0 l/m 8,4 km/h (2 Bft) S 186 0 min 0,000 mm 1,0 UV-I 178 W/m 18,6 C 20,7 C 16,1 km/h (3 Bft) 97,87 %
25.07.2016 15:46 21,7 C 84 % 1014,9 hPa 0,0 l/m 4,5 km/h (1 Bft) S 170 0 min 0,000 mm 0,9 UV-I 147 W/m 18,9 C 21,7 C 9,7 km/h (2 Bft) 100,00 %
25.07.2016 15:48 21,9 C 84 % 1015,0 hPa 0,0 l/m 1,4 km/h (1 Bft) O-NO 71 0 min 0,000 mm 0,9 UV-I 146 W/m 19,1 C 21,9 C 4,8 km/h (1 Bft) 100,00 %
25.07.2016 15:50 22,0 C 83 % 1015,3 hPa 0,0 l/m 10,1 km/h (2 Bft) O-NO 76 0 min 0,000 mm 0,9 UV-I 137 W/m 19,0 C 20,8 C 17,7 km/h (3 Bft) 100,00 %
25.07.2016 15:52 22,0 C 81 % 1015,5 hPa 0,0 l/m 15,0 km/h (3 Bft) NO 43 0 min 0,000 mm 0,7 UV-I 117 W/m 18,6 C 19,7 C 19,3 km/h (3 Bft) 100,00 %
25.07.2016 15:54 21,9 C 81 % 1015,5 hPa 0,0 l/m 10,3 km/h (2 Bft) O-NO 65 0 min 0,000 mm 0,7 UV-I 116 W/m 18,5 C 20,7 C 14,5 km/h (3 Bft) 100,00 %
25.07.2016 15:56 21,8 C 82 % 1015,5 hPa 0,0 l/m 8,5 km/h (2 Bft) NO 40 0 min 0,000 mm 0,8 UV-I 132 W/m 18,6 C 21,1 C 12,9 km/h (3 Bft) 100,00 %
25.07.2016 15:58 21,8 C 83 % 1015,5 hPa 0,0 l/m 6,0 km/h (2 Bft) NO 45 0 min 0,000 mm 1,1 UV-I 162 W/m 18,8 C 21,8 C 8,0 km/h (2 Bft) 100,00 %
25.07.2016 16:00 21,8 C 82 % 1015,4 hPa 0,0 l/m 2,7 km/h (1 Bft) NO 45 0 min 0,000 mm 1,3 UV-I 198 W/m 18,6 C 21,8 C 4,8 km/h (1 Bft) 100,00 %
25.07.2016 16:02 22,1 C 83 % 1015,3 hPa 0,0 l/m 6,6 km/h (2 Bft) N-NO 26 0 min 0,101 mm 1,5 UV-I 267 W/m 19,1 C 22,0 C 8,0 km/h (2 Bft) 98,11 %
25.07.2016 16:04 22,3 C 84 % 1015,4 hPa 0,0 l/m 5,9 km/h (2 Bft) N-NO 29 0 min 0,000 mm 1,7 UV-I 280 W/m 19,5 C 22,3 C 8,0 km/h (2 Bft) 100,00 %
25.07.2016 16:06 22,6 C 81 % 1015,4 hPa 0,0 l/m 5,3 km/h (1 Bft) NO 45 0 min 0,000 mm 1,8 UV-I 293 W/m 19,2 C 22,6 C 6,4 km/h (2 Bft) 100,00 %
25.07.2016 16:08 22,8 C 79 % 1015,3 hPa 0,0 l/m 7,0 km/h (2 Bft) SO 128 0 min 0,000 mm 1,9 UV-I 317 W/m 19,0 C 22,6 C 11,3 km/h (2 Bft) 100,00 %
25.07.2016 16:10 22,8 C 80 % 1015,5 hPa 0,0 l/m 10,0 km/h (2 Bft) O-SO 109 0 min 0,000 mm 2,1 UV-I 348 W/m 19,2 C 21,7 C 14,5 km/h (3 Bft) 96,77 %
25.07.2016 16:12 22,8 C 80 % 1015,6 hPa 0,0 l/m 11,6 km/h (2 Bft) O-SO 121 2 min 0,000 mm 2,1 UV-I 377 W/m 19,2 C 21,3 C 12,9 km/h (3 Bft) 100,00 %
25.07.2016 16:14 22,8 C 77 % 1015,6 hPa 0,0 l/m 10,6 km/h (2 Bft) O-SO 110 2 min 0,000 mm 2,2 UV-I 414 W/m 18,5 C 21,6 C 14,5 km/h (3 Bft) 91,43 %
25.07.2016 16:16 22,9 C 79 % 1015,7 hPa 0,0 l/m 11,0 km/h (2 Bft) O-SO 106 2 min 0,000 mm 2,4 UV-I 438 W/m 19,1 C 21,6 C 14,5 km/h (3 Bft) 96,77 %
25.07.2016 16:18 23,1 C 79 % 1015,7 hPa 0,0 l/m 9,9 km/h (2 Bft) O-SO 113 2 min 0,000 mm 2,4 UV-I 441 W/m 19,3 C 22,1 C 12,9 km/h (3 Bft) 97,56 %
25.07.2016 16:20 23,1 C 79 % 1015,7 hPa 0,0 l/m 12,2 km/h (2 Bft) O 89 2 min 0,000 mm 2,5 UV-I 453 W/m 19,3 C 21,6 C 17,7 km/h (3 Bft) 94,00 %
25.07.2016 16:22 23,1 C 79 % 1015,7 hPa 0,0 l/m 10,1 km/h (2 Bft) O-SO 116 2 min 0,000 mm 2,5 UV-I 449 W/m 19,3 C 22,0 C 14,5 km/h (3 Bft) 97,56 %
25.07.2016 16:24 23,1 C 80 % 1015,6 hPa 0,0 l/m 13,0 km/h (3 Bft) O-SO 107 2 min 0,000 mm 2,5 UV-I 424 W/m 19,5 C 21,4 C 16,1 km/h (3 Bft) 98,11 %
25.07.2016 16:26 22,9 C 81 % 1015,6 hPa 0,0 l/m 10,8 km/h (2 Bft) SO 124 2 min 0,000 mm 2,4 UV-I 404 W/m 19,5 C 21,6 C 16,1 km/h (3 Bft) 95,74 %
25.07.2016 16:28 22,8 C 81 % 1015,6 hPa 0,0 l/m 6,5 km/h (2 Bft) O 101 2 min 0,000 mm 2,5 UV-I 409 W/m 19,4 C 22,8 C 11,3 km/h (2 Bft) 97,87 %
25.07.2016 16:30 22,8 C 80 % 1015,6 hPa 0,0 l/m 6,1 km/h (2 Bft) O-NO 59 2 min 0,000 mm 2,5 UV-I 415 W/m 19,2 C 22,8 C 9,7 km/h (2 Bft) 97,87 %
25.07.2016 16:32 22,8 C 78 % 1015,6 hPa 0,0 l/m 8,4 km/h (2 Bft) O-NO 70 2 min 0,000 mm 2,5 UV-I 420 W/m 18,8 C 22,2 C 11,3 km/h (2 Bft) 96,00 %
25.07.2016 16:34 22,8 C 76 % 1015,5 hPa 0,0 l/m 7,2 km/h (2 Bft) O 99 2 min 0,000 mm 2,3 UV-I 378 W/m 18,3 C 22,5 C 11,3 km/h (2 Bft) 100,00 %
25.07.2016 16:36 22,9 C 78 % 1015,6 hPa 0,0 l/m 7,8 km/h (2 Bft) O 82 2 min 0,000 mm 2,2 UV-I 350 W/m 18,9 C 22,5 C 14,5 km/h (3 Bft) 96,43 %
25.07.2016 16:38 22,9 C 77 % 1015,7 hPa 0,0 l/m 7,9 km/h (2 Bft) O-NO 58 0 min 0,000 mm 2,0 UV-I 309 W/m 18,6 C 22,4 C 16,1 km/h (3 Bft) 97,37 %
25.07.2016 16:40 22,9 C 79 % 1015,7 hPa 0,0 l/m 8,4 km/h (2 Bft) O-SO 108 0 min 0,000 mm 2,0 UV-I 307 W/m 19,1 C 22,3 C 14,5 km/h (3 Bft) 98,00 %
25.07.2016 16:42 22,9 C 77 % 1015,7 hPa 0,0 l/m 11,2 km/h (2 Bft) SO 127 0 min 0,000 mm 2,2 UV-I 330 W/m 18,6 C 21,6 C 16,1 km/h (3 Bft) 96,00 %
25.07.2016 16:44 22,8 C 77 % 1015,7 hPa 0,0 l/m 13,6 km/h (3 Bft) O-SO 108 2 min 0,000 mm 2,3 UV-I 390 W/m 18,5 C 20,9 C 16,1 km/h (3 Bft) 97,87 %
25.07.2016 16:46 22,7 C 78 % 1015,7 hPa 0,0 l/m 12,0 km/h (2 Bft) O-SO 113 2 min 0,000 mm 2,4 UV-I 409 W/m 18,7 C 21,1 C 16,1 km/h (3 Bft) 100,00 %
25.07.2016 16:48 22,8 C 80 % 1015,6 hPa 0,0 l/m 13,5 km/h (3 Bft) SO 126 2 min 0,000 mm 2,8 UV-I 530 W/m 19,2 C 20,9 C 17,7 km/h (3 Bft) 100,00 %
25.07.2016 16:50 23,0 C 78 % 1015,6 hPa 0,0 l/m 12,7 km/h (3 Bft) O-SO 111 2 min 0,000 mm 3,1 UV-I 708 W/m 18,9 C 21,3 C 16,1 km/h (3 Bft) 98,11 %
25.07.2016 16:52 23,2 C 78 % 1015,5 hPa 0,0 l/m 11,5 km/h (2 Bft) O-SO 107 2 min 0,000 mm 3,1 UV-I 810 W/m 19,1 C 21,8 C 16,1 km/h (3 Bft) 100,00 %
25.07.2016 16:54 23,4 C 78 % 1015,5 hPa 0,0 l/m 5,8 km/h (2 Bft) S-SO 151 2 min 0,000 mm 3,1 UV-I 834 W/m 19,3 C 23,4 C 12,9 km/h (3 Bft) 98,00 %
25.07.2016 16:56 23,7 C 76 % 1015,4 hPa 0,0 l/m 11,4 km/h (2 Bft) O-SO 111 2 min 0,000 mm 3,0 UV-I 796 W/m 19,2 C 22,4 C 14,5 km/h (3 Bft) 100,00 %
25.07.2016 16:58 23,9 C 75 % 1015,4 hPa 0,0 l/m 9,5 km/h (2 Bft) SO 144 2 min 0,000 mm 2,7 UV-I 741 W/m 19,2 C 23,1 C 16,1 km/h (3 Bft) 100,00 %
25.07.2016 17:00 23,7 C 75 % 1015,4 hPa 0,0 l/m 12,1 km/h (2 Bft) S-SO 161 2 min 0,000 mm 2,8 UV-I 761 W/m 19,0 C 22,3 C 17,7 km/h (3 Bft) 97,56 %
25.07.2016 17:02 23,5 C 75 % 1015,4 hPa 0,0 l/m 9,7 km/h (2 Bft) S-SO 153 2 min 0,305 mm 2,7 UV-I 791 W/m 18,8 C 22,6 C 16,1 km/h (3 Bft) 96,43 %
25.07.2016 17:04 23,4 C 76 % 1015,3 hPa 0,0 l/m 9,3 km/h (2 Bft) SO 141 2 min 0,000 mm 2,1 UV-I 497 W/m 18,9 C 22,6 C 17,7 km/h (3 Bft) 100,00 %
25.07.2016 17:06 23,4 C 75 % 1015,3 hPa 0,0 l/m 7,9 km/h (2 Bft) S-SO 163 2 min 0,000 mm 2,0 UV-I 370 W/m 18,7 C 22,9 C 19,3 km/h (3 Bft) 98,00 %
25.07.2016 17:08 23,3 C 76 % 1015,3 hPa 0,0 l/m 9,1 km/h (2 Bft) S 185 2 min 0,000 mm 1,9 UV-I 360 W/m 18,8 C 22,5 C 12,9 km/h (3 Bft) 98,18 %
25.07.2016 17:10 23,4 C 76 % 1015,3 hPa 0,0 l/m 7,4 km/h (2 Bft) O-SO 115 2 min 0,000 mm 2,0 UV-I 384 W/m 18,9 C 23,1 C 11,3 km/h (2 Bft) 100,00 %
25.07.2016 17:12 23,4 C 76 % 1015,4 hPa 0,0 l/m 7,5 km/h (2 Bft) S-SO 147 2 min 0,000 mm 2,1 UV-I 545 W/m 18,9 C 23,1 C 11,3 km/h (2 Bft) 100,00 %
25.07.2016 17:14 23,4 C 76 % 1015,4 hPa 0,0 l/m 5,3 km/h (1 Bft) S 171 2 min 0,000 mm 1,8 UV-I 403 W/m 18,9 C 23,4 C 9,7 km/h (2 Bft) 100,00 %
25.07.2016 17:16 23,4 C 76 % 1015,3 hPa 0,0 l/m 5,8 km/h (2 Bft) O-SO 105 0 min 0,000 mm 1,6 UV-I 278 W/m 18,9 C 23,4 C 12,9 km/h (3 Bft) 100,00 %
25.07.2016 17:18 23,4 C 75 % 1015,3 hPa 0,0 l/m 6,1 km/h (2 Bft) SO 144 0 min 0,000 mm 1,4 UV-I 237 W/m 18,7 C 23,4 C 11,3 km/h (2 Bft) 100,00 %
25.07.2016 17:20 23,3 C 77 % 1015,3 hPa 0,0 l/m 5,6 km/h (1 Bft) S-SO 154 0 min 0,000 mm 1,2 UV-I 195 W/m 19,0 C 23,3 C 11,3 km/h (2 Bft) 100,00 %
25.07.2016 17:22 23,3 C 77 % 1015,3 hPa 0,0 l/m 5,8 km/h (2 Bft) S-SO 154 0 min 0,000 mm 1,0 UV-I 162 W/m 19,0 C 23,3 C 11,3 km/h (2 Bft) 100,00 %
25.07.2016 17:24 23,2 C 78 % 1015,3 hPa 0,0 l/m 4,1 km/h (1 Bft) S-SO 155 0 min 0,000 mm 0,9 UV-I 136 W/m 19,1 C 23,2 C 6,4 km/h (2 Bft) 100,00 %
25.07.2016 17:26 23,1 C 78 % 1015,3 hPa 0,0 l/m 5,3 km/h (1 Bft) S-SO 158 0 min 0,000 mm 0,7 UV-I 118 W/m 19,0 C 23,1 C 9,7 km/h (2 Bft) 100,00 %
25.07.2016 17:28 23,0 C 77 % 1015,3 hPa 0,0 l/m 5,7 km/h (1 Bft) S 169 0 min 0,000 mm 0,6 UV-I 103 W/m 18,7 C 23,0 C 9,7 km/h (2 Bft) 100,00 %
25.07.2016 17:30 22,9 C 78 % 1015,3 hPa 0,0 l/m 4,5 km/h (1 Bft) S-SO 166 0 min 0,000 mm 0,5 UV-I 88 W/m 18,9 C 22,9 C 11,3 km/h (2 Bft) 100,00 %
25.07.2016 17:32 22,8 C 79 % 1015,3 hPa 0,0 l/m 5,5 km/h (1 Bft) S 173 0 min 0,000 mm 0,2 UV-I 78 W/m 19,0 C 22,8 C 11,3 km/h (2 Bft) 100,00 %
25.07.2016 17:34 22,8 C 80 % 1015,3 hPa 0,0 l/m 5,1 km/h (1 Bft) S-SW 196 0 min 0,000 mm 0,0 UV-I 72 W/m 19,2 C 22,8 C 8,0 km/h (2 Bft) 100,00 %
25.07.2016 17:36 22,7 C 79 % 1015,4 hPa 0,0 l/m 4,1 km/h (1 Bft) S 173 0 min 0,000 mm 0,0 UV-I 69 W/m 18,9 C 22,7 C 8,0 km/h (2 Bft) 100,00 %
25.07.2016 17:38 22,6 C 81 % 1015,4 hPa 0,0 l/m 2,1 km/h (1 Bft) S 173 0 min 0,000 mm 0,0 UV-I 67 W/m 19,2 C 22,6 C 3,2 km/h (1 Bft) 100,00 %
25.07.2016 17:40 22,6 C 80 % 1015,4 hPa 0,0 l/m 3,4 km/h (1 Bft) SW 217 0 min 0,000 mm 0,0 UV-I 66 W/m 19,0 C 22,6 C 4,8 km/h (1 Bft) 100,00 %
25.07.2016 17:42 22,6 C 80 % 1015,4 hPa 0,0 l/m 2,1 km/h (1 Bft) SW 221 0 min 0,000 mm 0,0 UV-I 67 W/m 19,0 C 22,6 C 4,8 km/h (1 Bft) 95,74 %
25.07.2016 17:44 22,6 C 80 % 1015,4 hPa 0,0 l/m 3,8 km/h (1 Bft) W 261 0 min 0,000 mm 0,0 UV-I 68 W/m 19,0 C 22,6 C 6,4 km/h (2 Bft) 97,87 %
25.07.2016 17:46 22,6 C 80 % 1015,5 hPa 0,0 l/m 2,9 km/h (1 Bft) W 261 0 min 0,000 mm 0,0 UV-I 70 W/m 19,0 C 22,6 C 4,8 km/h (1 Bft) 100,00 %
25.07.2016 17:48 22,6 C 80 % 1015,5 hPa 0,0 l/m 1,9 km/h (1 Bft) W 261 0 min 0,000 mm 0,0 UV-I 73 W/m 19,0 C 22,6 C 3,2 km/h (1 Bft) 100,00 %
25.07.2016 17:50 22,6 C 82 % 1015,5 hPa 0,0 l/m 1,7 km/h (1 Bft) W 261 0 min 0,000 mm 0,0 UV-I 77 W/m 19,4 C 22,6 C 3,2 km/h (1 Bft) 97,87 %
25.07.2016 17:52 22,5 C 81 % 1015,4 hPa 0,0 l/m 1,4 km/h (1 Bft) W 261 0 min 0,000 mm 0,0 UV-I 81 W/m 19,1 C 22,5 C 3,2 km/h (1 Bft) 97,87 %
25.07.2016 17:54 22,4 C 81 % 1015,4 hPa 0,2 l/m 1,4 km/h (1 Bft) W 261 0 min 0,000 mm 0,0 UV-I 85 W/m 19,0 C 22,4 C 3,2 km/h (1 Bft) 97,22 %
25.07.2016 17:56 22,4 C 81 % 1015,3 hPa 0,0 l/m 0,5 km/h (0 Bft) W 261 0 min 0,000 mm 0,0 UV-I 90 W/m 19,0 C 22,4 C 1,6 km/h (1 Bft) 100,00 %
25.07.2016 17:58 22,4 C 82 % 1015,3 hPa 0,0 l/m 0,0 km/h (0 Bft) W 261 0 min 0,000 mm 0,0 UV-I 96 W/m 19,2 C 22,4 C 0,0 km/h (0 Bft) 100,00 %
25.07.2016 18:00 22,4 C 81 % 1015,3 hPa 0,0 l/m 0,3 km/h (0 Bft) W 261 0 min 0,127 mm 0,0 UV-I 94 W/m 19,0 C 22,4 C 3,2 km/h (1 Bft) 97,87 %
25.07.2016 18:02 22,4 C 83 % 1015,2 hPa 0,0 l/m 1,8 km/h (1 Bft) W 261 0 min 0,000 mm 0,0 UV-I 93 W/m 19,4 C 22,4 C 3,2 km/h (1 Bft) 100,00 %
25.07.2016 18:04 22,4 C 81 % 1015,1 hPa 0,0 l/m 2,3 km/h (1 Bft) W 261 0 min 0,000 mm 0,0 UV-I 95 W/m 19,0 C 22,4 C 3,2 km/h (1 Bft) 100,00 %
25.07.2016 18:06 22,4 C 84 % 1015,2 hPa 0,0 l/m 2,2 km/h (1 Bft) W 261 0 min 0,000 mm 0,0 UV-I 92 W/m 19,6 C 22,4 C 3,2 km/h (1 Bft) 100,00 %
25.07.2016 18:08 22,4 C 83 % 1015,2 hPa 0,0 l/m 3,0 km/h (1 Bft) W-SW 250 0 min 0,000 mm 0,0 UV-I 86 W/m 19,4 C 22,4 C 4,8 km/h (1 Bft) 98,11 %
25.07.2016 18:10 22,4 C 85 % 1015,3 hPa 0,0 l/m 4,4 km/h (1 Bft) S-SW 206 0 min 0,000 mm 0,0 UV-I 77 W/m 19,7 C 22,4 C 6,4 km/h (2 Bft) 94,74 %
25.07.2016 18:12 22,3 C 84 % 1015,4 hPa 0,0 l/m 2,4 km/h (1 Bft) SW 232 0 min 0,000 mm 0,0 UV-I 73 W/m 19,5 C 22,3 C 4,8 km/h (1 Bft) 98,00 %
25.07.2016 18:14 22,3 C 85 % 1015,4 hPa 0,0 l/m 3,6 km/h (1 Bft) SW 231 0 min 0,000 mm 0,0 UV-I 73 W/m 19,7 C 22,3 C 6,4 km/h (2 Bft) 98,11 %
25.07.2016 18:16 22,3 C 85 % 1015,4 hPa 0,0 l/m 5,1 km/h (1 Bft) S 189 0 min 0,000 mm 0,0 UV-I 74 W/m 19,7 C 22,3 C 8,0 km/h (2 Bft) 94,29 %
25.07.2016 18:18 22,3 C 86 % 1015,3 hPa 0,0 l/m 7,4 km/h (2 Bft) S-SW 198 0 min 0,000 mm 0,0 UV-I 75 W/m 19,8 C 22,0 C 11,3 km/h (2 Bft) 98,00 %
25.07.2016 18:20 22,2 C 85 % 1015,3 hPa 0,0 l/m 6,1 km/h (2 Bft) S-SW 204 0 min 0,000 mm 0,0 UV-I 75 W/m 19,6 C 22,2 C 9,7 km/h (2 Bft) 96,23 %
25.07.2016 18:22 22,2 C 86 % 1015,3 hPa 0,0 l/m 7,5 km/h (2 Bft) SW 217 0 min 0,000 mm 0,0 UV-I 74 W/m 19,7 C 21,8 C 12,9 km/h (3 Bft) 96,00 %
25.07.2016 18:24 22,2 C 86 % 1015,3 hPa 0,0 l/m 8,3 km/h (2 Bft) SW 217 0 min 0,000 mm 0,0 UV-I 75 W/m 19,7 C 21,6 C 12,9 km/h (3 Bft) 95,74 %
25.07.2016 18:26 22,1 C 87 % 1015,3 hPa 0,0 l/m 7,8 km/h (2 Bft) S-SW 199 0 min 0,000 mm 0,0 UV-I 75 W/m 19,8 C 21,6 C 12,9 km/h (3 Bft) 97,56 %
25.07.2016 18:28 22,0 C 87 % 1015,3 hPa 0,0 l/m 8,1 km/h (2 Bft) S 189 0 min 0,000 mm 0,0 UV-I 74 W/m 19,7 C 21,4 C 11,3 km/h (2 Bft) 96,23 %
25.07.2016 18:30 21,9 C 87 % 1015,3 hPa 0,0 l/m 7,4 km/h (2 Bft) S-SW 201 0 min 0,000 mm 0,0 UV-I 73 W/m 19,6 C 21,5 C 9,7 km/h (2 Bft) 94,87 %
25.07.2016 18:32 21,8 C 86 % 1015,3 hPa 0,0 l/m 6,5 km/h (2 Bft) S-SW 208 0 min 0,000 mm 0,0 UV-I 72 W/m 19,3 C 21,8 C 11,3 km/h (2 Bft) 97,56 %
25.07.2016 18:34 21,7 C 86 % 1015,4 hPa 0,0 l/m 6,1 km/h (2 Bft) S-SW 205 0 min 0,000 mm 0,0 UV-I 70 W/m 19,3 C 21,7 C 9,7 km/h (2 Bft) 98,11 %
25.07.2016 18:36 21,7 C 86 % 1015,3 hPa 0,0 l/m 8,1 km/h (2 Bft) S-SW 206 0 min 0,000 mm 0,0 UV-I 71 W/m 19,3 C 21,1 C 14,5 km/h (3 Bft) 94,64 %
25.07.2016 18:38 21,6 C 85 % 1015,3 hPa 0,0 l/m 7,9 km/h (2 Bft) S-SW 204 0 min 0,000 mm 0,0 UV-I 76 W/m 19,0 C 21,1 C 11,3 km/h (2 Bft) 94,74 %
25.07.2016 18:40 21,6 C 85 % 1015,2 hPa 0,0 l/m 5,2 km/h (1 Bft) S 181 0 min 0,000 mm 0,0 UV-I 127 W/m 19,0 C 21,6 C 11,3 km/h (2 Bft) 94,00 %
25.07.2016 18:42 21,6 C 85 % 1015,2 hPa 0,0 l/m 7,3 km/h (2 Bft) S-SO 157 2 min 0,000 mm 0,0 UV-I 177 W/m 19,0 C 21,3 C 9,7 km/h (2 Bft) 100,00 %
25.07.2016 18:44 21,6 C 84 % 1015,3 hPa 0,0 l/m 7,0 km/h (2 Bft) S 181 2 min 0,000 mm 0,0 UV-I 179 W/m 18,8 C 21,4 C 11,3 km/h (2 Bft) 94,00 %
25.07.2016 18:46 21,7 C 83 % 1015,3 hPa 0,0 l/m 7,1 km/h (2 Bft) S 179 0 min 0,000 mm 0,0 UV-I 154 W/m 18,7 C 21,5 C 11,3 km/h (2 Bft) 97,37 %
25.07.2016 18:48 21,7 C 83 % 1015,3 hPa 0,0 l/m 6,8 km/h (2 Bft) W 273 0 min 0,000 mm 0,0 UV-I 120 W/m 18,7 C 21,6 C 11,3 km/h (2 Bft) 100,00 %
25.07.2016 18:50 21,7 C 81 % 1015,3 hPa 0,0 l/m 7,1 km/h (2 Bft) S-SW 198 0 min 0,000 mm 0,0 UV-I 112 W/m 18,3 C 21,5 C 9,7 km/h (2 Bft) 100,00 %
25.07.2016 18:52 21,7 C 81 % 1015,3 hPa 0,0 l/m 7,6 km/h (2 Bft) SW 217 0 min 0,000 mm 0,0 UV-I 101 W/m 18,3 C 21,3 C 11,3 km/h (2 Bft) 98,11 %
25.07.2016 18:54 21,7 C 82 % 1015,3 hPa 0,0 l/m 6,1 km/h (2 Bft) SW 231 0 min 0,000 mm 0,0 UV-I 97 W/m 18,5 C 21,7 C 9,7 km/h (2 Bft) 100,00 %
25.07.2016 18:56 21,7 C 82 % 1015,2 hPa 0,0 l/m 4,9 km/h (1 Bft) SW 233 0 min 0,000 mm 0,0 UV-I 95 W/m 18,5 C 21,7 C 8,0 km/h (2 Bft) 98,00 %
25.07.2016 18:58 21,6 C 81 % 1015,3 hPa 0,0 l/m 4,9 km/h (1 Bft) SW 228 0 min 0,000 mm 0,0 UV-I 97 W/m 18,2 C 21,6 C 9,7 km/h (2 Bft) 100,00 %
25.07.2016 19:00 21,6 C 82 % 1015,3 hPa 0,0 l/m 4,6 km/h (1 Bft) SW 227 0 min 0,000 mm 0,0 UV-I 96 W/m 18,4 C 21,6 C 9,7 km/h (2 Bft) 100,00 %
25.07.2016 19:02 21,6 C 82 % 1015,4 hPa 0,0 l/m 6,2 km/h (2 Bft) S-SW 205 0 min 0,076 mm 0,0 UV-I 93 W/m 18,4 C 21,6 C 11,3 km/h (2 Bft) 96,23 %
25.07.2016 19:04 21,6 C 81 % 1015,3 hPa 0,0 l/m 7,5 km/h (2 Bft) SW 226 0 min 0,000 mm 0,0 UV-I 95 W/m 18,2 C 21,2 C 12,9 km/h (3 Bft) 100,00 %
25.07.2016 19:06 21,6 C 81 % 1015,3 hPa 0,0 l/m 8,0 km/h (2 Bft) SW 219 0 min 0,000 mm 0,0 UV-I 96 W/m 18,2 C 21,0 C 12,9 km/h (3 Bft) 100,00 %
25.07.2016 19:08 21,7 C 82 % 1015,3 hPa 0,0 l/m 4,9 km/h (1 Bft) S-SW 198 0 min 0,000 mm 0,0 UV-I 97 W/m 18,5 C 21,7 C 8,0 km/h (2 Bft) 97,87 %
25.07.2016 19:10 21,7 C 82 % 1015,3 hPa 0,0 l/m 5,6 km/h (1 Bft) S-SW 195 0 min 0,000 mm 0,0 UV-I 97 W/m 18,5 C 21,7 C 8,0 km/h (2 Bft) 97,87 %
25.07.2016 19:12 21,7 C 82 % 1015,3 hPa 0,0 l/m 3,9 km/h (1 Bft) SW 236 0 min 0,000 mm 0,0 UV-I 97 W/m 18,5 C 21,7 C 6,4 km/h (2 Bft) 97,56 %
25.07.2016 19:14 21,7 C 83 % 1015,3 hPa 0,0 l/m 2,9 km/h (1 Bft) S 191 0 min 0,000 mm 0,0 UV-I 98 W/m 18,7 C 21,7 C 6,4 km/h (2 Bft) 100,00 %
25.07.2016 19:16 21,8 C 83 % 1015,3 hPa 0,0 l/m 3,8 km/h (1 Bft) SW 234 0 min 0,000 mm 0,0 UV-I 101 W/m 18,8 C 21,8 C 6,4 km/h (2 Bft) 100,00 %
25.07.2016 19:18 21,8 C 84 % 1015,4 hPa 0,0 l/m 3,8 km/h (1 Bft) W 275 0 min 0,000 mm 0,0 UV-I 104 W/m 19,0 C 21,8 C 9,7 km/h (2 Bft) 100,00 %
25.07.2016 19:20 21,8 C 83 % 1015,4 hPa 0,0 l/m 8,2 km/h (2 Bft) W-SW 257 0 min 0,000 mm 0,0 UV-I 106 W/m 18,8 C 21,2 C 11,3 km/h (2 Bft) 100,00 %
25.07.2016 19:22 21,9 C 83 % 1015,4 hPa 0,0 l/m 6,4 km/h (2 Bft) W-SW 257 0 min 0,000 mm 0,0 UV-I 110 W/m 18,9 C 21,9 C 14,5 km/h (3 Bft) 98,00 %
25.07.2016 19:24 21,9 C 83 % 1015,4 hPa 0,0 l/m 6,0 km/h (2 Bft) SW 216 0 min 0,000 mm 0,0 UV-I 114 W/m 18,9 C 21,9 C 11,3 km/h (2 Bft) 100,00 %
25.07.2016 19:26 21,9 C 83 % 1015,5 hPa 0,0 l/m 4,1 km/h (1 Bft) W-SW 244 2 min 0,000 mm 0,0 UV-I 119 W/m 18,9 C 21,9 C 6,4 km/h (2 Bft) 100,00 %
25.07.2016 19:28 21,9 C 83 % 1015,5 hPa 0,0 l/m 5,8 km/h (2 Bft) SW 236 2 min 0,000 mm 0,0 UV-I 129 W/m 18,9 C 21,9 C 9,7 km/h (2 Bft) 100,00 %
25.07.2016 19:30 22,0 C 83 % 1015,5 hPa 0,0 l/m 5,8 km/h (2 Bft) S-SW 210 2 min 0,000 mm 0,0 UV-I 140 W/m 19,0 C 22,0 C 8,0 km/h (2 Bft) 100,00 %
25.07.2016 19:32 22,1 C 83 % 1015,5 hPa 0,0 l/m 3,9 km/h (1 Bft) W-SW 256 2 min 0,000 mm 0,0 UV-I 143 W/m 19,1 C 22,1 C 9,7 km/h (2 Bft) 100,00 %
25.07.2016 19:34 22,1 C 83 % 1015,6 hPa 0,0 l/m 6,7 km/h (2 Bft) W-SW 250 2 min 0,000 mm 0,0 UV-I 143 W/m 19,1 C 22,0 C 12,9 km/h (3 Bft) 97,87 %
25.07.2016 19:36 22,1 C 83 % 1015,6 hPa 0,0 l/m 5,7 km/h (1 Bft) W-SW 250 2 min 0,000 mm 0,0 UV-I 139 W/m 19,1 C 22,1 C 11,3 km/h (2 Bft) 97,87 %
25.07.2016 19:38 22,2 C 83 % 1015,6 hPa 0,0 l/m 4,3 km/h (1 Bft) W-SW 241 2 min 0,000 mm 0,0 UV-I 131 W/m 19,2 C 22,2 C 8,0 km/h (2 Bft) 100,00 %
25.07.2016 19:40 22,2 C 83 % 1015,6 hPa 0,0 l/m 6,5 km/h (2 Bft) W-SW 252 2 min 0,000 mm 0,0 UV-I 126 W/m 19,2 C 22,2 C 11,3 km/h (2 Bft) 100,00 %
25.07.2016 19:42 22,2 C 83 % 1015,6 hPa 0,0 l/m 6,1 km/h (2 Bft) W-SW 247 2 min 0,000 mm 0,0 UV-I 129 W/m 19,2 C 22,2 C 8,0 km/h (2 Bft) 100,00 %
25.07.2016 19:44 22,2 C 83 % 1015,6 hPa 0,0 l/m 4,1 km/h (1 Bft) SW 231 2 min 0,000 mm 0,0 UV-I 120 W/m 19,2 C 22,2 C 6,4 km/h (2 Bft) 100,00 %
25.07.2016 19:46 22,2 C 83 % 1015,6 hPa 0,0 l/m 5,5 km/h (1 Bft) W-SW 252 2 min 0,000 mm 0,0 UV-I 117 W/m 19,2 C 22,2 C 11,3 km/h (2 Bft) 100,00 %
25.07.2016 19:48 22,2 C 83 % 1015,6 hPa 0,0 l/m 5,1 km/h (1 Bft) W-SW 244 2 min 0,000 mm 0,0 UV-I 125 W/m 19,2 C 22,2 C 8,0 km/h (2 Bft) 96,67 %
25.07.2016 19:50 22,2 C 83 % 1015,6 hPa 0,0 l/m 7,5 km/h (2 Bft) S-SW 205 2 min 0,000 mm 0,0 UV-I 103 W/m 19,2 C 21,8 C 12,9 km/h (3 Bft) 98,46 %
25.07.2016 19:52 22,2 C 83 % 1015,6 hPa 0,0 l/m 6,7 km/h (2 Bft) SW 227 2 min 0,000 mm 0,0 UV-I 93 W/m 19,2 C 22,1 C 12,9 km/h (3 Bft) 100,00 %
25.07.2016 19:54 22,2 C 83 % 1015,7 hPa 0,0 l/m 5,5 km/h (1 Bft) SW 233 2 min 0,000 mm 0,0 UV-I 88 W/m 19,2 C 22,2 C 8,0 km/h (2 Bft) 97,87 %
25.07.2016 19:56 22,2 C 83 % 1015,7 hPa 0,0 l/m 4,0 km/h (1 Bft) SW 227 2 min 0,000 mm 0,0 UV-I 81 W/m 19,2 C 22,2 C 4,8 km/h (1 Bft) 97,87 %
25.07.2016 19:58 22,2 C 83 % 1015,7 hPa 0,0 l/m 5,4 km/h (1 Bft) W-SW 239 2 min 0,000 mm 0,0 UV-I 74 W/m 19,2 C 22,2 C 12,9 km/h (3 Bft) 100,00 %
25.07.2016 20:00 22,2 C 83 % 1015,7 hPa 0,0 l/m 8,4 km/h (2 Bft) W-SW 258 2 min 0,000 mm 0,0 UV-I 68 W/m 19,2 C 21,5 C 12,9 km/h (3 Bft) 94,34 %
25.07.2016 20:02 22,2 C 83 % 1015,8 hPa 0,0 l/m 8,6 km/h (2 Bft) SW 233 2 min 0,077 mm 0,0 UV-I 61 W/m 19,2 C 21,5 C 14,5 km/h (3 Bft) 100,00 %
25.07.2016 20:04 22,2 C 83 % 1015,8 hPa 0,0 l/m 7,2 km/h (2 Bft) W 259 2 min 0,000 mm 0,0 UV-I 55 W/m 19,2 C 21,9 C 12,9 km/h (3 Bft) 100,00 %
25.07.2016 20:06 22,1 C 83 % 1015,8 hPa 0,0 l/m 7,0 km/h (2 Bft) W-SW 256 0 min 0,000 mm 0,0 UV-I 49 W/m 19,1 C 21,9 C 11,3 km/h (2 Bft) 93,62 %
25.07.2016 20:08 22,1 C 83 % 1015,8 hPa 0,0 l/m 7,3 km/h (2 Bft) W 266 0 min 0,000 mm 0,0 UV-I 45 W/m 19,1 C 21,8 C 14,5 km/h (3 Bft) 93,18 %
25.07.2016 20:10 22,1 C 82 % 1015,9 hPa 0,0 l/m 9,8 km/h (2 Bft) W-SW 242 0 min 0,000 mm 0,0 UV-I 41 W/m 18,9 C 21,0 C 16,1 km/h (3 Bft) 97,87 %
25.07.2016 20:12 22,0 C 82 % 1015,9 hPa 0,0 l/m 10,1 km/h (2 Bft) W-SW 243 0 min 0,000 mm 0,0 UV-I 37 W/m 18,8 C 20,8 C 16,1 km/h (3 Bft) 97,56 %
25.07.2016 20:14 21,9 C 82 % 1015,9 hPa 0,0 l/m 8,0 km/h (2 Bft) W-SW 242 0 min 0,000 mm 0,0 UV-I 33 W/m 18,7 C 21,3 C 12,9 km/h (3 Bft) 96,43 %
25.07.2016 20:16 21,9 C 83 % 1015,9 hPa 0,0 l/m 5,5 km/h (1 Bft) SW 228 0 min 0,000 mm 0,0 UV-I 30 W/m 18,9 C 21,9 C 9,7 km/h (2 Bft) 94,74 %
25.07.2016 20:18 21,8 C 83 % 1015,9 hPa 0,0 l/m 8,1 km/h (2 Bft) W-SW 251 0 min 0,000 mm 0,0 UV-I 27 W/m 18,8 C 21,2 C 14,5 km/h (3 Bft) 98,21 %
25.07.2016 20:20 21,8 C 83 % 1016,0 hPa 0,0 l/m 8,9 km/h (2 Bft) W 261 0 min 0,000 mm 0,0 UV-I 25 W/m 18,8 C 21,0 C 12,9 km/h (3 Bft) 96,00 %
25.07.2016 20:22 21,8 C 83 % 1016,0 hPa 0,0 l/m 8,1 km/h (2 Bft) W-SW 253 0 min 0,000 mm 0,0 UV-I 22 W/m 18,8 C 21,2 C 12,9 km/h (3 Bft) 97,87 %
25.07.2016 20:24 21,7 C 83 % 1016,0 hPa 0,0 l/m 7,0 km/h (2 Bft) W-SW 246 0 min 0,000 mm 0,0 UV-I 19 W/m 18,7 C 21,5 C 11,3 km/h (2 Bft) 97,73 %
25.07.2016 20:26 21,7 C 83 % 1016,0 hPa 0,0 l/m 9,2 km/h (2 Bft) S-SW 196 0 min 0,000 mm 0,0 UV-I 17 W/m 18,7 C 20,8 C 14,5 km/h (3 Bft) 95,24 %
25.07.2016 20:28 21,6 C 84 % 1016,0 hPa 0,0 l/m 7,4 km/h (2 Bft) SW 222 0 min 0,000 mm 0,0 UV-I 15 W/m 18,8 C 21,2 C 11,3 km/h (2 Bft) 98,11 %
25.07.2016 20:30 21,6 C 84 % 1015,9 hPa 0,0 l/m 7,2 km/h (2 Bft) S-SW 205 0 min 0,000 mm 0,0 UV-I 12 W/m 18,8 C 21,3 C 12,9 km/h (3 Bft) 97,37 %
25.07.2016 20:32 21,6 C 84 % 1015,9 hPa 0,0 l/m 8,1 km/h (2 Bft) W-SW 254 0 min 0,000 mm 0,0 UV-I 11 W/m 18,8 C 21,0 C 11,3 km/h (2 Bft) 98,21 %
25.07.2016 20:34 21,5 C 84 % 1015,9 hPa 0,0 l/m 7,7 km/h (2 Bft) SW 236 0 min 0,000 mm 0,0 UV-I 10 W/m 18,7 C 21,0 C 12,9 km/h (3 Bft) 97,37 %
25.07.2016 20:36 21,4 C 84 % 1016,0 hPa 0,0 l/m 6,7 km/h (2 Bft) W-SW 241 0 min 0,000 mm 0,0 UV-I 9 W/m 18,6 C 21,3 C 9,7 km/h (2 Bft) 95,92 %
25.07.2016 20:38 21,4 C 84 % 1016,0 hPa 0,0 l/m 6,4 km/h (2 Bft) W-SW 254 0 min 0,000 mm 0,0 UV-I 7 W/m 18,6 C 21,4 C 12,9 km/h (3 Bft) 96,23 %
25.07.2016 20:40 21,4 C 84 % 1016,1 hPa 0,0 l/m 7,8 km/h (2 Bft) W-SW 251 0 min 0,000 mm 0,0 UV-I 6 W/m 18,6 C 20,9 C 12,9 km/h (3 Bft) 100,00 %
25.07.2016 20:42 21,4 C 83 % 1016,1 hPa 0,0 l/m 7,2 km/h (2 Bft) W 271 0 min 0,000 mm 0,0 UV-I 5 W/m 18,4 C 21,1 C 12,9 km/h (3 Bft) 96,23 %
25.07.2016 20:44 21,4 C 83 % 1016,2 hPa 0,0 l/m 6,0 km/h (2 Bft) W-SW 258 0 min 0,000 mm 0,0 UV-I 5 W/m 18,4 C 21,4 C 11,3 km/h (2 Bft) 100,00 %
25.07.2016 20:46 21,4 C 83 % 1016,2 hPa 0,0 l/m 6,1 km/h (2 Bft) W 271 0 min 0,000 mm 0,0 UV-I 1 W/m 18,4 C 21,4 C 14,5 km/h (3 Bft) 100,00 %
25.07.2016 20:48 21,4 C 83 % 1016,2 hPa 0,0 l/m 5,8 km/h (2 Bft) W 274 0 min 0,000 mm 0,0 UV-I 0 W/m 18,4 C 21,4 C 11,3 km/h (2 Bft) 100,00 %
25.07.2016 20:50 21,4 C 83 % 1016,2 hPa 0,0 l/m 4,2 km/h (1 Bft) W-SW 246 0 min 0,000 mm 0,0 UV-I 0 W/m 18,4 C 21,4 C 9,7 km/h (2 Bft) 100,00 %
25.07.2016 20:52 21,4 C 83 % 1016,2 hPa 0,0 l/m 5,6 km/h (1 Bft) W 267 0 min 0,000 mm 0,0 UV-I 0 W/m 18,4 C 21,4 C 9,7 km/h (2 Bft) 98,00 %
25.07.2016 20:54 21,4 C 83 % 1016,2 hPa 0,0 l/m 4,3 km/h (1 Bft) W 265 0 min 0,000 mm 0,0 UV-I 0 W/m 18,4 C 21,4 C 6,4 km/h (2 Bft) 100,00 %
25.07.2016 20:56 21,3 C 83 % 1016,3 hPa 0,0 l/m 4,3 km/h (1 Bft) W 262 0 min 0,000 mm 0,0 UV-I 0 W/m 18,3 C 21,3 C 6,4 km/h (2 Bft) 97,87 %
25.07.2016 20:58 21,3 C 83 % 1016,3 hPa 0,0 l/m 4,5 km/h (1 Bft) W 263 0 min 0,000 mm 0,0 UV-I 0 W/m 18,3 C 21,3 C 6,4 km/h (2 Bft) 100,00 %
25.07.2016 21:00 21,3 C 83 % 1016,3 hPa 0,0 l/m 4,3 km/h (1 Bft) W 261 0 min 0,000 mm 0,0 UV-I 0 W/m 18,3 C 21,3 C 6,4 km/h (2 Bft) 100,00 %
25.07.2016 21:02 21,2 C 83 % 1016,3 hPa 0,0 l/m 4,0 km/h (1 Bft) W-SW 244 0 min 0,025 mm 0,0 UV-I 0 W/m 18,2 C 21,2 C 6,4 km/h (2 Bft) 100,00 %
25.07.2016 21:04 21,2 C 83 % 1016,4 hPa 0,0 l/m 6,9 km/h (2 Bft) W-SW 240 0 min 0,000 mm 0,0 UV-I 0 W/m 18,2 C 21,0 C 14,5 km/h (3 Bft) 100,00 %
25.07.2016 21:06 21,2 C 83 % 1016,4 hPa 0,0 l/m 6,7 km/h (2 Bft) SW 225 0 min 0,000 mm 0,0 UV-I 0 W/m 18,2 C 21,1 C 11,3 km/h (2 Bft) 100,00 %
25.07.2016 21:08 21,1 C 84 % 1016,4 hPa 0,0 l/m 5,9 km/h (2 Bft) W-SW 246 0 min 0,000 mm 0,0 UV-I 0 W/m 18,3 C 21,1 C 9,7 km/h (2 Bft) 97,87 %
25.07.2016 21:10 21,1 C 84 % 1016,4 hPa 0,0 l/m 5,4 km/h (1 Bft) W-SW 250 0 min 0,000 mm 0,0 UV-I 0 W/m 18,3 C 21,1 C 8,0 km/h (2 Bft) 100,00 %
25.07.2016 21:12 21,1 C 84 % 1016,5 hPa 0,0 l/m 7,1 km/h (2 Bft) W-SW 248 0 min 0,000 mm 0,0 UV-I 0 W/m 18,3 C 20,8 C 12,9 km/h (3 Bft) 100,00 %
25.07.2016 21:14 21,1 C 84 % 1016,5 hPa 0,0 l/m 6,6 km/h (2 Bft) SW 225 0 min 0,000 mm 0,0 UV-I 0 W/m 18,3 C 21,0 C 9,7 km/h (2 Bft) 100,00 %
25.07.2016 21:16 21,0 C 84 % 1016,6 hPa 0,0 l/m 6,1 km/h (2 Bft) W-SW 244 0 min 0,000 mm 0,0 UV-I 0 W/m 18,2 C 21,0 C 8,0 km/h (2 Bft) 100,00 %
25.07.2016 21:18 21,0 C 84 % 1016,6 hPa 0,0 l/m 8,0 km/h (2 Bft) SW 233 0 min 0,000 mm 0,0 UV-I 0 W/m 18,2 C 20,4 C 12,9 km/h (3 Bft) 97,87 %
25.07.2016 21:20 20,9 C 84 % 1016,6 hPa 0,0 l/m 7,1 km/h (2 Bft) S-SW 212 0 min 0,000 mm 0,0 UV-I 0 W/m 18,1 C 20,6 C 9,7 km/h (2 Bft) 100,00 %
25.07.2016 21:22 20,9 C 84 % 1016,5 hPa 0,0 l/m 5,9 km/h (2 Bft) SW 226 0 min 0,000 mm 0,0 UV-I 0 W/m 18,1 C 20,9 C 9,7 km/h (2 Bft) 100,00 %
25.07.2016 21:24 20,9 C 84 % 1016,5 hPa 0,0 l/m 5,2 km/h (1 Bft) W-SW 241 0 min 0,000 mm 0,0 UV-I 0 W/m 18,1 C 20,9 C 8,0 km/h (2 Bft) 100,00 %
25.07.2016 21:26 20,8 C 84 % 1016,5 hPa 0,0 l/m 7,2 km/h (2 Bft) S-SW 206 0 min 0,000 mm 0,0 UV-I 0 W/m 18,0 C 20,5 C 9,7 km/h (2 Bft) 100,00 %
25.07.2016 21:28 20,7 C 85 % 1016,4 hPa 0,0 l/m 7,2 km/h (2 Bft) SW 224 0 min 0,000 mm 0,0 UV-I 0 W/m 18,1 C 20,4 C 9,7 km/h (2 Bft) 100,00 %
25.07.2016 21:30 20,7 C 85 % 1016,4 hPa 0,0 l/m 6,1 km/h (2 Bft) W-SW 238 0 min 0,000 mm 0,0 UV-I 0 W/m 18,1 C 20,7 C 9,7 km/h (2 Bft) 100,00 %
25.07.2016 21:32 20,6 C 86 % 1016,4 hPa 0,0 l/m 5,1 km/h (1 Bft) SW 231 0 min 0,000 mm 0,0 UV-I 0 W/m 18,2 C 20,6 C 8,0 km/h (2 Bft) 100,00 %
25.07.2016 21:34 20,6 C 86 % 1016,4 hPa 0,0 l/m 5,1 km/h (1 Bft) S-SW 202 0 min 0,000 mm 0,0 UV-I 0 W/m 18,2 C 20,6 C 8,0 km/h (2 Bft) 100,00 %
25.07.2016 21:36 20,5 C 87 % 1016,4 hPa 0,0 l/m 4,9 km/h (1 Bft) S 179 0 min 0,000 mm 0,0 UV-I 0 W/m 18,3 C 20,5 C 6,4 km/h (2 Bft) 100,00 %
25.07.2016 21:38 20,4 C 87 % 1016,5 hPa 0,0 l/m 5,1 km/h (1 Bft) S-SW 196 0 min 0,000 mm 0,0 UV-I 0 W/m 18,2 C 20,4 C 8,0 km/h (2 Bft) 100,00 %
25.07.2016 21:40 20,4 C 87 % 1016,4 hPa 0,0 l/m 4,5 km/h (1 Bft) SW 227 0 min 0,000 mm 0,0 UV-I 0 W/m 18,2 C 20,4 C 6,4 km/h (2 Bft) 96,92 %
25.07.2016 21:42 20,4 C 87 % 1016,5 hPa 0,0 l/m 5,2 km/h (1 Bft) SW 234 0 min 0,000 mm 0,0 UV-I 0 W/m 18,2 C 20,4 C 8,0 km/h (2 Bft) 100,00 %
25.07.2016 21:44 20,4 C 87 % 1016,5 hPa 0,0 l/m 3,0 km/h (1 Bft) SW 225 0 min 0,000 mm 0,0 UV-I 0 W/m 18,2 C 20,4 C 4,8 km/h (1 Bft) 100,00 %
25.07.2016 21:46 20,3 C 87 % 1016,6 hPa 0,0 l/m 4,6 km/h (1 Bft) SW 236 0 min 0,000 mm 0,0 UV-I 0 W/m 18,1 C 20,3 C 6,4 km/h (2 Bft) 100,00 %
25.07.2016 21:48 20,3 C 88 % 1016,6 hPa 0,0 l/m 5,2 km/h (1 Bft) SW 219 0 min 0,000 mm 0,0 UV-I 0 W/m 18,2 C 20,3 C 8,0 km/h (2 Bft) 94,00 %
25.07.2016 21:50 20,3 C 88 % 1016,6 hPa 0,0 l/m 4,8 km/h (1 Bft) W-SW 249 0 min 0,000 mm 0,0 UV-I 0 W/m 18,2 C 20,3 C 11,3 km/h (2 Bft) 100,00 %
25.07.2016 21:52 20,3 C 88 % 1016,6 hPa 0,0 l/m 5,8 km/h (2 Bft) W-SW 238 0 min 0,000 mm 0,0 UV-I 0 W/m 18,2 C 20,3 C 8,0 km/h (2 Bft) 98,11 %
25.07.2016 21:54 20,2 C 88 % 1016,6 hPa 0,0 l/m 5,6 km/h (1 Bft) W-SW 241 0 min 0,000 mm 0,0 UV-I 0 W/m 18,1 C 20,2 C 8,0 km/h (2 Bft) 100,00 %
25.07.2016 21:56 20,3 C 88 % 1016,7 hPa 0,0 l/m 4,9 km/h (1 Bft) W-SW 242 0 min 0,000 mm 0,0 UV-I 0 W/m 18,2 C 20,3 C 9,7 km/h (2 Bft) 100,00 %
25.07.2016 21:58 20,3 C 88 % 1016,6 hPa 0,0 l/m 6,2 km/h (2 Bft) SW 232 0 min 0,000 mm 0,0 UV-I 0 W/m 18,2 C 20,3 C 8,0 km/h (2 Bft) 98,11 %
25.07.2016 22:00 20,3 C 88 % 1016,7 hPa 0,0 l/m 5,3 km/h (1 Bft) W-SW 244 0 min 0,000 mm 0,0 UV-I 0 W/m 18,2 C 20,3 C 9,7 km/h (2 Bft) 100,00 %
25.07.2016 22:02 20,3 C 88 % 1016,7 hPa 0,0 l/m 4,5 km/h (1 Bft) W-SW 251 0 min 0,025 mm 0,0 UV-I 0 W/m 18,2 C 20,3 C 8,0 km/h (2 Bft) 100,00 %
25.07.2016 22:04 20,2 C 88 % 1016,7 hPa 0,0 l/m 4,8 km/h (1 Bft) S-SW 202 0 min 0,000 mm 0,0 UV-I 0 W/m 18,1 C 20,2 C 8,0 km/h (2 Bft) 100,00 %
25.07.2016 22:06 20,2 C 88 % 1016,7 hPa 0,0 l/m 6,8 km/h (2 Bft) S-SW 213 0 min 0,000 mm 0,0 UV-I 0 W/m 18,1 C 20,0 C 9,7 km/h (2 Bft) 95,74 %
25.07.2016 22:08 20,2 C 88 % 1016,7 hPa 0,0 l/m 6,3 km/h (2 Bft) SW 217 0 min 0,000 mm 0,0 UV-I 0 W/m 18,1 C 20,2 C 8,0 km/h (2 Bft) 98,00 %
25.07.2016 22:10 20,1 C 89 % 1016,7 hPa 0,0 l/m 5,8 km/h (2 Bft) SW 215 0 min 0,000 mm 0,0 UV-I 0 W/m 18,2 C 20,1 C 8,0 km/h (2 Bft) 97,56 %
25.07.2016 22:12 20,1 C 89 % 1016,7 hPa 0,0 l/m 5,5 km/h (1 Bft) SW 224 0 min 0,000 mm 0,0 UV-I 0 W/m 18,2 C 20,1 C 8,0 km/h (2 Bft) 94,00 %
25.07.2016 22:14 20,1 C 89 % 1016,7 hPa 0,0 l/m 4,9 km/h (1 Bft) SW 226 0 min 0,000 mm 0,0 UV-I 0 W/m 18,2 C 20,1 C 6,4 km/h (2 Bft) 98,11 %
25.07.2016 22:16 20,1 C 89 % 1016,7 hPa 0,0 l/m 5,2 km/h (1 Bft) SW 219 0 min 0,000 mm 0,0 UV-I 0 W/m 18,2 C 20,1 C 8,0 km/h (2 Bft) 97,37 %
25.07.2016 22:18 20,1 C 89 % 1016,7 hPa 0,0 l/m 5,2 km/h (1 Bft) SW 223 0 min 0,000 mm 0,0 UV-I 0 W/m 18,2 C 20,1 C 6,4 km/h (2 Bft) 96,00 %
25.07.2016 22:20 20,1 C 89 % 1016,7 hPa 0,0 l/m 4,7 km/h (1 Bft) S-SW 195 0 min 0,000 mm 0,0 UV-I 0 W/m 18,2 C 20,1 C 8,0 km/h (2 Bft) 97,87 %
25.07.2016 22:22 20,1 C 89 % 1016,6 hPa 0,0 l/m 5,0 km/h (1 Bft) SW 227 0 min 0,000 mm 0,0 UV-I 0 W/m 18,2 C 20,1 C 6,4 km/h (2 Bft) 96,00 %
25.07.2016 22:24 20,1 C 89 % 1016,7 hPa 0,0 l/m 4,7 km/h (1 Bft) S-SW 198 0 min 0,000 mm 0,0 UV-I 0 W/m 18,2 C 20,1 C 8,0 km/h (2 Bft) 97,44 %
25.07.2016 22:26 20,1 C 89 % 1016,6 hPa 0,0 l/m 5,4 km/h (1 Bft) SW 235 0 min 0,000 mm 0,0 UV-I 0 W/m 18,2 C 20,1 C 6,4 km/h (2 Bft) 98,11 %
25.07.2016 22:28 20,1 C 89 % 1016,7 hPa 0,0 l/m 4,9 km/h (1 Bft) S 174 0 min 0,000 mm 0,0 UV-I 0 W/m 18,2 C 20,1 C 8,0 km/h (2 Bft) 97,37 %
25.07.2016 22:30 20,1 C 88 % 1016,6 hPa 0,0 l/m 4,7 km/h (1 Bft) SW 232 0 min 0,000 mm 0,0 UV-I 0 W/m 18,0 C 20,1 C 8,0 km/h (2 Bft) 98,11 %
25.07.2016 22:32 20,1 C 88 % 1016,6 hPa 0,0 l/m 4,9 km/h (1 Bft) S-SW 199 0 min 0,000 mm 0,0 UV-I 0 W/m 18,0 C 20,1 C 6,4 km/h (2 Bft) 91,49 %
25.07.2016 22:34 20,1 C 88 % 1016,6 hPa 0,0 l/m 4,5 km/h (1 Bft) W-SW 251 0 min 0,000 mm 0,0 UV-I 0 W/m 18,0 C 20,1 C 6,4 km/h (2 Bft) 97,87 %
25.07.2016 22:36 20,2 C 89 % 1016,7 hPa 0,0 l/m 4,6 km/h (1 Bft) S-SW 194 0 min 0,000 mm 0,0 UV-I 0 W/m 18,3 C 20,2 C 6,4 km/h (2 Bft) 95,74 %
25.07.2016 22:38 20,1 C 89 % 1016,6 hPa 0,0 l/m 6,3 km/h (2 Bft) S-SW 208 0 min 0,000 mm 0,0 UV-I 0 W/m 18,2 C 20,1 C 8,0 km/h (2 Bft) 98,11 %
25.07.2016 22:40 20,1 C 89 % 1016,6 hPa 0,0 l/m 3,5 km/h (1 Bft) W-SW 242 0 min 0,000 mm 0,0 UV-I 0 W/m 18,2 C 20,1 C 4,8 km/h (1 Bft) 97,56 %
25.07.2016 22:42 20,1 C 89 % 1016,6 hPa 0,0 l/m 4,1 km/h (1 Bft) S-SW 192 0 min 0,000 mm 0,0 UV-I 0 W/m 18,2 C 20,1 C 6,4 km/h (2 Bft) 100,00 %
25.07.2016 22:44 20,1 C 89 % 1016,6 hPa 0,0 l/m 4,0 km/h (1 Bft) S-SW 207 0 min 0,000 mm 0,0 UV-I 0 W/m 18,2 C 20,1 C 6,4 km/h (2 Bft) 100,00 %
25.07.2016 22:46 20,1 C 89 % 1016,6 hPa 0,0 l/m 5,3 km/h (1 Bft) S-SW 198 0 min 0,000 mm 0,0 UV-I 0 W/m 18,2 C 20,1 C 8,0 km/h (2 Bft) 100,00 %
25.07.2016 22:48 20,1 C 89 % 1016,6 hPa 0,0 l/m 5,6 km/h (1 Bft) S 170 0 min 0,000 mm 0,0 UV-I 0 W/m 18,2 C 20,1 C 8,0 km/h (2 Bft) 97,37 %
25.07.2016 22:50 20,1 C 89 % 1016,6 hPa 0,0 l/m 5,9 km/h (2 Bft) S-SW 209 0 min 0,000 mm 0,0 UV-I 0 W/m 18,2 C 20,1 C 8,0 km/h (2 Bft) 100,00 %
25.07.2016 22:52 20,1 C 89 % 1016,6 hPa 0,0 l/m 4,5 km/h (1 Bft) S-SW 207 0 min 0,000 mm 0,0 UV-I 0 W/m 18,2 C 20,1 C 8,0 km/h (2 Bft) 100,00 %
25.07.2016 22:54 20,0 C 89 % 1016,5 hPa 0,0 l/m 6,8 km/h (2 Bft) S-SW 194 0 min 0,000 mm 0,0 UV-I 0 W/m 18,1 C 19,8 C 9,7 km/h (2 Bft) 100,00 %
25.07.2016 22:56 20,1 C 89 % 1016,5 hPa 0,0 l/m 6,0 km/h (2 Bft) S-SW 211 0 min 0,000 mm 0,0 UV-I 0 W/m 18,2 C 20,1 C 8,0 km/h (2 Bft) 100,00 %
25.07.2016 22:58 20,1 C 89 % 1016,5 hPa 0,0 l/m 5,5 km/h (1 Bft) S-SO 168 0 min 0,000 mm 0,0 UV-I 0 W/m 18,2 C 20,1 C 8,0 km/h (2 Bft) 100,00 %
25.07.2016 23:00 20,0 C 89 % 1016,4 hPa 0,0 l/m 4,7 km/h (1 Bft) S-SW 213 0 min 0,000 mm 0,0 UV-I 0 W/m 18,1 C 20,0 C 8,0 km/h (2 Bft) 100,00 %
25.07.2016 23:02 20,0 C 89 % 1016,4 hPa 0,0 l/m 4,3 km/h (1 Bft) SW 229 0 min 0,000 mm 0,0 UV-I 0 W/m 18,1 C 20,0 C 6,4 km/h (2 Bft) 100,00 %
25.07.2016 23:04 20,0 C 89 % 1016,4 hPa 0,0 l/m 3,8 km/h (1 Bft) SW 219 0 min 0,000 mm 0,0 UV-I 0 W/m 18,1 C 20,0 C 6,4 km/h (2 Bft) 100,00 %
25.07.2016 23:06 19,9 C 89 % 1016,4 hPa 0,0 l/m 3,7 km/h (1 Bft) S-SW 200 0 min 0,000 mm 0,0 UV-I 0 W/m 18,0 C 19,9 C 6,4 km/h (2 Bft) 98,46 %
25.07.2016 23:08 19,9 C 89 % 1016,4 hPa 0,0 l/m 4,7 km/h (1 Bft) S-SW 209 0 min 0,000 mm 0,0 UV-I 0 W/m 18,0 C 19,9 C 6,4 km/h (2 Bft) 97,87 %
25.07.2016 23:10 19,9 C 89 % 1016,4 hPa 0,0 l/m 3,3 km/h (1 Bft) S-SW 209 0 min 0,000 mm 0,0 UV-I 0 W/m 18,0 C 19,9 C 6,4 km/h (2 Bft) 100,00 %
25.07.2016 23:12 19,9 C 89 % 1016,4 hPa 0,0 l/m 4,0 km/h (1 Bft) S-SW 198 0 min 0,000 mm 0,0 UV-I 0 W/m 18,0 C 19,9 C 6,4 km/h (2 Bft) 98,00 %
25.07.2016 23:14 19,9 C 89 % 1016,4 hPa 0,0 l/m 4,4 km/h (1 Bft) S 184 0 min 0,000 mm 0,0 UV-I 0 W/m 18,0 C 19,9 C 8,0 km/h (2 Bft) 100,00 %
25.07.2016 23:16 19,9 C 89 % 1016,4 hPa 0,0 l/m 4,4 km/h (1 Bft) S-SW 201 0 min 0,000 mm 0,0 UV-I 0 W/m 18,0 C 19,9 C 8,0 km/h (2 Bft) 98,00 %
25.07.2016 23:18 19,9 C 89 % 1016,4 hPa 0,0 l/m 4,3 km/h (1 Bft) S-SW 193 0 min 0,000 mm 0,0 UV-I 0 W/m 18,0 C 19,9 C 6,4 km/h (2 Bft) 100,00 %
25.07.2016 23:20 19,9 C 89 % 1016,4 hPa 0,0 l/m 3,8 km/h (1 Bft) S-SW 205 0 min 0,000 mm 0,0 UV-I 0 W/m 18,0 C 19,9 C 4,8 km/h (1 Bft) 100,00 %
25.07.2016 23:22 19,8 C 89 % 1016,4 hPa 0,0 l/m 3,1 km/h (1 Bft) S-SW 205 0 min 0,000 mm 0,0 UV-I 0 W/m 17,9 C 19,8 C 4,8 km/h (1 Bft) 100,00 %
25.07.2016 23:24 19,8 C 89 % 1016,5 hPa 0,0 l/m 1,9 km/h (1 Bft) S-SW 205 0 min 0,000 mm 0,0 UV-I 0 W/m 17,9 C 19,8 C 3,2 km/h (1 Bft) 100,00 %
25.07.2016 23:26 19,8 C 89 % 1016,5 hPa 0,0 l/m 2,3 km/h (1 Bft) S-SW 205 0 min 0,000 mm 0,0 UV-I 0 W/m 17,9 C 19,8 C 3,2 km/h (1 Bft) 100,00 %
25.07.2016 23:28 19,8 C 89 % 1016,5 hPa 0,0 l/m 2,4 km/h (1 Bft) S-SW 205 0 min 0,000 mm 0,0 UV-I 0 W/m 17,9 C 19,8 C 3,2 km/h (1 Bft) 100,00 %
25.07.2016 23:30 19,8 C 90 % 1016,5 hPa 0,0 l/m 2,5 km/h (1 Bft) S-SW 205 0 min 0,000 mm 0,0 UV-I 0 W/m 18,1 C 19,8 C 3,2 km/h (1 Bft) 100,00 %
25.07.2016 23:32 19,7 C 90 % 1016,5 hPa 0,0 l/m 2,5 km/h (1 Bft) S-SW 205 0 min 0,000 mm 0,0 UV-I 0 W/m 18,0 C 19,7 C 3,2 km/h (1 Bft) 98,00 %
25.07.2016 23:34 19,7 C 90 % 1016,5 hPa 0,0 l/m 2,7 km/h (1 Bft) S-SW 205 0 min 0,000 mm 0,0 UV-I 0 W/m 18,0 C 19,7 C 4,8 km/h (1 Bft) 100,00 %
25.07.2016 23:36 19,7 C 90 % 1016,5 hPa 0,0 l/m 2,6 km/h (1 Bft) S-SW 205 0 min 0,000 mm 0,0 UV-I 0 W/m 18,0 C 19,7 C 3,2 km/h (1 Bft) 97,56 %
25.07.2016 23:38 19,7 C 90 % 1016,5 hPa 0,0 l/m 3,3 km/h (1 Bft) S-SW 205 0 min 0,000 mm 0,0 UV-I 0 W/m 18,0 C 19,7 C 4,8 km/h (1 Bft) 100,00 %
25.07.2016 23:40 19,6 C 90 % 1016,5 hPa 0,0 l/m 2,7 km/h (1 Bft) S-SW 205 0 min 0,000 mm 0,0 UV-I 0 W/m 17,9 C 19,6 C 4,8 km/h (1 Bft) 98,00 %
25.07.2016 23:42 19,6 C 91 % 1016,5 hPa 0,0 l/m 2,4 km/h (1 Bft) S-SW 205 0 min 0,000 mm 0,0 UV-I 0 W/m 18,1 C 19,6 C 4,8 km/h (1 Bft) 100,00 %
25.07.2016 23:44 19,6 C 91 % 1016,5 hPa 0,0 l/m 2,3 km/h (1 Bft) S-SW 205 0 min 0,000 mm 0,0 UV-I 0 W/m 18,1 C 19,6 C 3,2 km/h (1 Bft) 100,00 %
25.07.2016 23:46 19,6 C 91 % 1016,5 hPa 0,0 l/m 3,3 km/h (1 Bft) S-SW 205 0 min 0,000 mm 0,0 UV-I 0 W/m 18,1 C 19,6 C 4,8 km/h (1 Bft) 100,00 %
25.07.2016 23:48 19,6 C 91 % 1016,5 hPa 0,0 l/m 2,3 km/h (1 Bft) S-SW 205 0 min 0,000 mm 0,0 UV-I 0 W/m 18,1 C 19,6 C 3,2 km/h (1 Bft) 100,00 %
25.07.2016 23:50 19,6 C 91 % 1016,5 hPa 0,0 l/m 1,7 km/h (1 Bft) S-SW 205 0 min 0,000 mm 0,0 UV-I 0 W/m 18,1 C 19,6 C 3,2 km/h (1 Bft) 100,00 %
25.07.2016 23:52 19,6 C 91 % 1016,6 hPa 0,0 l/m 2,8 km/h (1 Bft) S-SW 205 0 min 0,000 mm 0,0 UV-I 0 W/m 18,1 C 19,6 C 3,2 km/h (1 Bft) 100,00 %
25.07.2016 23:54 19,6 C 91 % 1016,5 hPa 0,0 l/m 3,0 km/h (1 Bft) S-SW 205 0 min 0,000 mm 0,0 UV-I 0 W/m 18,1 C 19,6 C 4,8 km/h (1 Bft) 100,00 %
25.07.2016 23:56 19,5 C 91 % 1016,6 hPa 0,0 l/m 3,7 km/h (1 Bft) S-SW 205 0 min 0,000 mm 0,0 UV-I 0 W/m 18,0 C 19,5 C 4,8 km/h (1 Bft) 100,00 %
25.07.2016 23:58 19,5 C 91 % 1016,6 hPa 0,0 l/m 3,4 km/h (1 Bft) S-SW 205 0 min 0,000 mm 0,0 UV-I 0 W/m 18,0 C 19,5 C 4,8 km/h (1 Bft) 100,00 %
_ Min-Zeit 05:54 13:54 14:04 - 00:00 - - - - - - 05:54 05:54 00:00 16:14
Minimum _ 17,1 C 55 % 1014,4 hPa - 0,0 km/h (0 Bft) - - - - - - 16,3 C 17,1 C 0,0 km/h (0 Bft) 91,43 %
_ Max-Zeit 14:58 05:32 21:56 15:18 15:28 - - 05:44 14:02 13:42 13:42 18:18 14:56 15:26 00:02
Maximum _ 27,7 C 96 % 1016,7 hPa 0,2 l/m 16,2 km/h
S-SO (3 Bft)
- - 2 min 0,610 mm 7,5 UV-I 1042 W/m 19,8 C 27,6 C 27,4 km/h
S-SW (4 Bft)
100,00 %
Durchschnitt _ 21,4 C 83 % 1015,7 hPa #0,6 l/m 4,8 km/h (1 Bft) S-SW - #8:40 h #3,835 mm 3,5 UV-I 364 W/m 18,2 C 21,2 C 8,2 km/h (2 Bft) 98,66 %